[[{"header":{"parameterUnit":"m.s-1","parameterCategory":1,"la1":31.0,"la2":29.5877,"lo1":-88.7671,"lo2":-86.6584,"dy":0.0162,"dx":0.0185,"nx":115,"ny":88,"refTime":"2023-08-22T12:00:00:Z","depth":0,"parameterNumber":2,"parameterNumberName":"U-component_of_WINDS"},"data":[0.0,0.0,0.0,0.0,0.0,0.0,0.0,0.0,0.0,0.0,0.0,0.0,0.0,0.0,0.0,0.0,0.0,0.0,0.0,0.0,0.0,0.0,0.0,0.0,0.0,0.0,0.0,0.0,0.0,0.0,0.0,0.0,0.0,0.0,0.0,0.0,0.0,0.0,0.0,0.0,0.0,0.0,0.0,0.0,0.0,0.0,0.0,0.0,0.0,0.0,0.0,0.0,0.0,0.0,0.0,0.0,0.0,0.0,0.0,0.0,0.0,0.0,0.0,0.0,0.0,0.0,0.0,0.0,0.0,0.0,0.0,0.0,0.0,0.0,0.0,0.0,0.0,0.0,0.0,0.0,0.0,0.0,0.0,0.0,0.0,0.0,0.0,0.0,0.0,0.0,0.0,0.0,0.0,0.0,0.0,0.0,0.0,0.0,0.0,0.0,0.0,0.0,0.0,0.0,0.0,0.0,0.0,0.0,0.0,0.0,0.0,0.0,0.0,0.0,0.0,0.0,0.0,0.0,0.0,0.0,0.0,0.0,0.0,0.0,0.0,0.0,0.0,0.0,0.0,0.0,0.0,0.0,0.0,0.0,0.0,0.0,0.0,0.0,0.0,0.0,0.0,0.0,0.0,0.0,0.0,0.0,0.0,0.0,0.0,0.0,0.0,0.0,0.0,0.0,0.0,0.0,0.0,0.0,0.0,0.0,0.0,0.0,0.0,0.0,0.0,0.0,0.0,0.0,0.0,0.0,0.0,0.0,0.0,0.0,0.0,0.0,0.0,0.0,0.0,0.0,0.0,0.0,0.0,0.0,0.0,0.0,0.0,0.0,0.0,0.0,0.0,0.0,0.0,0.0,0.0,0.0,0.0,0.0,0.0,0.0,0.0,0.0,0.0,0.0,0.0,0.0,0.0,0.0,0.0,0.0,0.0,0.0,0.0,0.0,0.0,0.0,0.0,0.0,0.0,0.0,0.0,0.0,0.0,0.0,0.0,0.0,0.0,0.0,0.0,0.0,0.0,0.0,0.0,0.0,0.0,0.0,0.0,0.0,0.0,0.0,0.0,0.0,0.0,0.0,0.0,0.0,0.0,0.0,0.0,0.0,0.0,0.0,0.0,0.0,0.0,0.0,0.0,0.0,0.0,0.0,0.0,0.0,0.0,0.0,0.0,0.0,0.0,0.0,0.0,0.0,0.0,0.0,0.0,0.0,0.0,0.0,0.0,0.0,0.0,0.0,0.0,0.0,0.0,0.0,0.0,0.0,0.0,0.0,0.0,0.0,0.0,0.0,0.0,0.0,0.0,0.0,0.0,0.0,0.0,0.0,0.0,0.0,0.0,0.0,0.0,0.0,0.0,0.0,0.0,0.0,0.0,0.0,0.0,0.0,0.0,0.0,0.0,0.0,0.0,0.0,0.0,0.0,0.0,0.0,0.0,0.0,0.0,0.0,0.0,0.0,0.0,0.0,0.0,0.0,0.0,0.0,0.0,0.0,0.0,0.0,0.0,0.0,0.0,0.0,0.0,0.0,0.0,0.0,0.0,0.0,0.0,0.0,0.0,0.0,0.0,0.0,0.0,0.0,0.0,0.0,0.0,0.0,0.0,0.0,0.0,0.0,0.0,0.0,0.0,0.0,0.0,0.0,0.0,0.0,0.0,0.0,0.0,0.0,0.0,0.0,0.0,0.0,0.0,0.0,0.0,0.0,0.0,0.0,0.0,0.0,0.0,0.0,0.0,0.0,0.0,0.0,0.0,0.0,0.0,0.0,0.0,0.0,0.0,0.0,0.0,0.0,0.0,0.0,0.0,0.0,0.0,0.0,0.0,0.0,0.0,0.0,0.0,0.0,0.0,0.0,0.0,0.0,0.0,0.0,0.0,0.0,0.0,0.0,0.0,0.0,0.0,0.0,0.0,0.0,0.0,0.0,0.0,0.0,0.0,0.0,0.0,0.0,0.0,0.0,0.0,0.0,0.0,0.0,0.0,0.0,0.0,0.0,0.0,0.0,0.0,0.0,0.0,0.0,0.0,0.0,0.0,0.0,0.0,0.0,0.0,0.0,0.0,0.0,0.0,0.0,0.0,0.0,0.0,0.0,0.0,0.0,0.0,0.0,0.0,0.0,0.0,0.0,0.0,0.0,0.0,0.0,0.0,0.0,0.0,0.0,0.0,0.0,0.0,0.0,0.0,0.0,0.0,0.0,0.0,0.0,0.0,0.0,0.0,0.0,0.0,0.0,0.0,0.0,0.0,0.0,0.0,0.0,0.0,0.0,0.0,0.0,0.0,0.0,0.0,0.0,0.0,0.0,0.0,0.0,0.0,0.0,0.0,0.0,0.0,0.0,0.0,0.0,0.0,0.0,0.0,0.0,0.0,0.0,0.0,0.0,0.0,0.0,0.0,0.0,0.0,0.0,0.0,0.0,0.0,0.0,0.0,0.0,0.0,0.0,0.0,0.0,0.0,0.0,0.0,0.0,0.0,0.0,0.0,0.0,0.0,0.0,0.0,0.0,0.0,0.0,0.0,0.0,0.0,0.0,0.0,0.0,0.0,0.0,0.0,0.0,0.0,0.0,0.0,0.0,0.0,0.0,0.0,0.0,0.0,0.0,0.0,0.0,0.0,0.0,0.0,0.0,0.0,0.0,0.0,0.0,0.0,0.0,0.0,0.0,0.0,0.0,0.0,0.0,0.0,0.0,0.0,0.0,0.0,0.0,0.0,0.0,0.0,0.0,0.0,0.0,0.0,0.0,0.0,0.0,0.0,0.0,0.0,0.0,0.0,0.0,0.0,0.0,0.0,0.0,0.0,0.0,0.0,0.0,0.0,0.0,0.0,0.0,0.0,0.0,0.0,0.0,0.0,0.0,0.0,0.0,0.0,0.0,0.0,0.0,0.0,0.0,0.0,0.0,0.0,0.0,0.0,0.0,0.0,0.0,0.0,0.0,0.0,0.0,0.0,0.0,0.0,0.0,0.0,0.0,0.0,0.0,0.0,0.0,0.0,0.0,0.0,0.0,0.0,0.0,0.0,0.0,0.0,0.0,0.0,0.0,0.0,0.0,0.0,0.0,0.0,0.0,0.0,0.0,0.0,0.0,0.0,0.0,0.0,0.0,0.0,0.0,0.0,0.0,0.0,0.0,0.0,0.0,0.0,0.0,0.0,0.0,0.0,0.0,0.0,0.0,0.0,0.0,0.0,0.0,0.0,0.0,0.0,0.0,0.0,0.0,0.0,0.0,0.0,0.0,0.0,0.0,0.0,0.0,0.0,0.0,0.0,0.0,0.0,0.0,0.0,0.0,0.0,0.0,0.0,0.0,0.0,0.0,0.0,0.0,0.0,0.0,0.0,0.0,0.0,0.0,0.0,0.0,0.0,0.0,0.0,0.0,0.0,0.0,0.0,0.0,0.0,0.0,0.0,0.0,0.0,0.0,0.0,0.0,0.0,0.0,0.0,0.0,0.0,0.0,0.0,0.0,0.0,0.0,0.0,0.0,0.0,0.0,0.0,0.0,0.0,0.0,0.0,0.0,0.0,0.0,0.0,0.0,0.0,0.0,0.0,0.0,0.0,0.0,0.0,0.0,0.0,0.0,0.0,0.0,0.0,0.0,0.0,0.0,0.0,0.0,0.0,0.0,0.0,0.0,0.0,0.0,0.0,0.0,0.0,0.0,0.0,0.0,0.0,0.0,0.0,0.0,0.0,0.0,0.0,0.0,0.0,0.0,0.0,0.0,0.0,0.0,0.0,0.0,0.0,0.0,0.0,0.0,0.0,0.0,0.0,0.0,0.0,0.0,0.0,0.0,0.0,0.0,0.0,0.0,0.0,0.0,0.0,0.0,0.0,0.0,0.0,0.0,0.0,0.0,0.0,0.0,0.0,0.0,0.0,0.0,0.0,0.0,0.0,0.0,0.0,0.0,0.0,0.0,0.0,0.0,0.0,0.0,0.0,0.0,0.0,0.0,0.0,0.0,0.0,0.0,0.0,0.0,0.0,0.0,0.0,0.0,0.0,0.0,0.0,0.0,0.0,0.0,0.0,0.0,0.0,0.0,0.0,0.0,0.0,0.0,0.0,0.0,0.0,0.0,0.0,0.0,0.0,0.0,0.0,0.0,0.0,0.0,0.0,0.0,0.0,0.0,0.0,0.0,0.0,0.0,0.0,0.0,0.0,0.0,0.0,0.0,0.0,0.0,0.0,0.0,0.0,0.0,0.0,0.0,0.0,0.0,0.0,0.0,0.0,0.0,0.0,0.0,0.0,0.0,0.0,0.0,1.1726,0.0,0.0,0.0,0.0,0.0,0.0,0.0,0.0,0.0,0.0,0.0,0.0,0.0,0.0,0.0,0.0,0.0,0.0,0.0,0.0,0.0,0.0,0.0,0.0,0.0,0.0,0.0,0.0,0.0,0.0,0.0,0.0,0.0,0.0,0.0,0.0,0.0,0.0,0.0,0.0,0.0,0.0,0.0,0.0,0.0,0.0,0.0,0.0,0.0,0.0,0.0,0.0,0.0,0.0,0.0,0.0,0.0,0.0,0.0,0.0,0.0,0.0,0.0,0.0,0.0,0.0,0.0,0.0,0.0,0.0,0.0,0.0,0.0,0.0,0.0,0.0,0.0,0.0,0.0,0.0,0.0,0.0,0.0,0.0,0.0,0.0,0.0,0.0,0.0,0.0,0.0,0.0,0.0,0.0,0.0,0.0,0.0,0.0,0.0,0.0,0.0,0.0,0.0,0.0,0.0,0.0,0.0,0.0,0.0,0.0,0.8953,0.9379,0.8157,0.7975,0.9157,0.0,0.0,0.0,0.0,0.0,0.0,0.0,0.0,0.0,0.0,0.0,0.0,0.0,0.0,0.0,0.0,0.0,0.0,0.0,0.0,0.0,0.0,0.0,0.0,0.0,0.0,0.0,0.0,0.0,0.0,0.0,0.0,0.0,0.0,0.0,0.0,0.0,0.0,0.0,0.0,0.0,0.0,0.0,0.0,0.0,0.0,0.0,0.0,0.0,0.0,0.0,0.0,0.0,0.0,0.0,0.0,0.0,0.0,0.0,0.0,0.0,0.0,0.0,0.0,0.0,0.0,0.0,0.0,0.0,0.0,0.0,0.0,0.0,0.0,0.0,0.0,0.0,0.0,0.0,0.0,0.0,0.0,0.0,0.0,0.0,0.0,0.0,0.0,0.0,0.0,0.0,0.0,0.0,0.0,0.0,0.0,0.0,0.0,0.0,0.0,0.0,0.0,0.0,0.0,0.0,0.0,0.0,0.0,0.0,0.0,0.0,0.0,0.6526,0.6584,0.722,0.0,0.0,0.0,0.0,0.0,0.0,0.0,0.0,0.0,0.0,0.0,0.0,0.0,0.0,0.0,0.0,0.0,0.0,0.0,0.0,0.0,0.0,0.0,0.0,0.0,0.0,0.0,0.0,0.0,0.0,0.0,0.0,0.0,0.0,0.0,0.0,0.0,0.0,0.0,0.0,0.0,0.0,0.0,0.0,0.0,0.0,0.0,0.0,0.0,0.0,0.0,0.0,0.0,0.0,0.0,0.0,0.0,0.0,0.0,0.0,0.0,0.0,0.0,0.0,0.0,0.0,0.0,0.0,0.0,0.0,0.0,0.0,0.0,0.0,0.0,0.0,0.0,0.0,0.0,0.0,0.0,0.0,0.0,0.0,0.0,0.0,0.0,0.0,0.0,0.0,0.0,0.0,0.0,0.0,0.0,0.0,0.0,0.0,0.0,0.0,0.0,0.0,0.0,0.0,0.0,0.0,0.0,0.0,0.0,0.0,0.4789,0.5907,0.6591,0.0,0.8163,0.0,0.0,0.0,0.0,0.0,0.0,0.0,0.0,0.0,0.0,0.0,0.0,0.0,0.0,0.0,0.0,0.0,0.0,0.0,0.0,0.0,0.0,0.0,0.0,0.0,0.0,0.0,0.0,0.0,0.0,0.0,0.0,0.0,0.0,0.0,0.0,0.0,0.0,0.0,0.0,0.0,0.0,0.0,0.0,0.0,0.0,0.0,0.0,0.0,0.0,0.0,0.0,0.0,0.0,0.0,0.0,0.0,0.0,0.0,0.0,0.0,0.0,0.0,0.0,0.0,0.0,0.0,0.0,0.0,0.0,0.0,0.0,0.0,0.0,0.0,0.0,0.0,0.0,0.0,0.0,0.0,0.0,0.0,0.0,0.0,0.0,0.0,0.0,0.0,0.0,0.0,0.0,0.0,0.0,0.0,0.0,0.0,0.0,0.0,0.0,0.0,0.0,0.0,0.0,0.0,0.0,0.0,0.0,0.0,0.0,0.324,0.3117,0.4017,0.4879,0.0,0.0,0.0,0.0,0.0,0.0,0.0,0.0,0.0,0.0,0.0,0.0,0.0,0.0,0.0,0.0,0.0,0.0,0.0,0.0,0.0,0.0,0.0,0.0,0.0,0.0,0.0,0.0,0.0,0.0,0.0,0.0,0.0,0.0,0.0,0.0,0.0,0.0,0.0,0.0,0.0,0.0,0.0,0.0,0.0,0.0,0.0,0.0,0.0,0.0,0.0,0.0,0.0,0.0,0.0,0.0,0.0,0.0,0.0,0.0,0.0,0.0,0.0,0.0,0.0,0.0,0.0,0.0,0.0,0.0,0.0,0.0,0.0,0.0,0.0,0.0,0.0,0.0,0.0,0.0,0.0,0.0,0.0,0.0,0.0,0.0,0.0,0.0,0.0,0.0,0.0,0.0,0.0,0.0,0.0,0.0,0.0,0.0,0.0,0.0,0.0,0.0,0.0,0.0,0.0,0.0,0.0,0.0,0.0,0.0,0.1693,0.2149,0.1842,0.2699,0.345,0.4162,0.0,0.0,0.0,0.0,0.0,0.0,0.0,0.0,0.0,0.0,0.0,0.0,0.0,0.0,0.0,0.0,0.0,0.0,0.0,0.0,0.0,0.0,0.0,0.0,0.0,0.0,0.0,0.0,0.0,0.0,0.0,0.0,0.0,0.0,0.0,0.0,0.0,0.0,0.0,0.0,0.0,0.0,0.0,0.0,0.0,0.0,0.0,0.0,0.0,0.0,0.0,0.0,0.0,0.0,0.0,0.0,0.0,0.0,0.0,0.0,0.0,0.0,0.0,0.0,0.0,0.0,0.0,0.0,0.0,0.0,0.0,0.0,0.0,0.0,0.0,0.0,0.0,0.0,0.0,0.0,0.0,0.0,0.0,0.0,0.0,0.0,0.0,0.0,0.0,0.0,0.0,0.0,0.0,0.0,0.0,0.0,0.0,0.0,0.0,0.0,0.0,0.0,0.0,0.0,0.0,0.0,0.0,0.0,-0.151,0.03,0.1855,0.2866,0.3937,0.4416,0.0,0.0,0.0,0.0,0.0,0.0,0.0,0.0,0.0,0.0,0.0,0.0,0.0,0.0,0.0,0.0,0.0,0.0,0.0,0.0,0.0,0.0,0.0,0.0,0.0,0.0,0.0,0.0,0.0,0.0,0.0,0.0,0.0,0.0,0.0,0.0,0.0,0.0,0.0,0.0,0.0,0.0,0.0,0.0,0.0,0.0,0.0,0.0,0.0,0.0,0.0,0.0,0.0,0.0,0.0,0.0,0.0,0.0,0.0,0.0,0.0,0.0,0.0,0.0,0.0,0.0,0.0,0.0,0.0,0.0,0.0,0.0,0.0,0.0,0.0,0.0,0.0,0.0,0.0,0.0,0.0,0.0,0.0,0.0,0.0,0.0,0.0,0.0,0.0,0.0,0.0,0.0,0.0,0.0,0.0,0.0,0.0,0.0,0.0,0.0,0.0,0.0,0.0,0.0,0.0,0.0,0.0,0.0,0.0,-0.2793,-0.2735,-0.1733,0.0228,0.1088,0.2062,0.0,0.0,0.0,0.0,0.0,0.0,0.0,0.0,0.0,0.0,0.0,0.0,0.0,0.0,0.0,0.0,0.0,0.0,0.0,0.0,0.0,0.0,0.0,0.0,0.0,0.0,0.0,0.0,0.0,0.0,0.0,0.0,0.0,0.0,0.0,0.0,0.0,0.0,0.0,0.0,0.0,0.0,0.0,0.0,0.0,0.0,0.0,0.0,0.0,0.0,0.0,0.0,0.0,0.0,0.0,0.0,0.0,0.0,0.0,0.0,0.0,0.0,0.0,0.0,0.0,0.0,0.0,0.0,0.0,0.0,0.0,0.0,0.0,0.0,0.0,0.0,0.0,0.0,0.0,0.0,0.0,0.0,0.0,0.0,0.0,0.0,0.0,0.0,0.0,0.0,0.0,0.0,0.0,0.0,0.0,0.0,0.0,0.0,0.0,0.0,0.0,0.0,0.0,0.0,0.0,0.0,0.0,0.0,0.0,-0.4912,0.0,-0.5741,-0.3255,-0.1769,-0.0069,0.0,0.0,0.0,0.0,0.0,0.0,0.0,0.0,0.0,0.0,0.0,0.0,0.0,0.0,0.0,0.0,0.0,0.0,0.0,0.0,0.0,0.0,0.0,0.0,0.0,0.0,0.0,0.0,0.0,0.0,0.0,0.0,0.0,0.0,0.0,0.0,0.0,0.0,0.0,0.0,0.0,0.0,0.0,0.0,0.0,0.0,0.0,0.0,0.0,0.0,0.0,0.0,0.0,0.0,0.0,0.0,0.0,0.0,0.0,0.0,0.0,0.0,0.0,0.0,0.0,0.0,0.0,0.0,0.0,0.0,0.0,0.0,0.0,0.0,0.0,0.0,0.0,0.0,0.0,0.0,0.0,0.0,0.0,0.0,0.0,0.0,0.0,0.0,0.0,0.0,0.0,0.0,0.0,0.0,0.0,0.0,0.0,0.0,0.0,0.0,0.0,0.0,0.0,0.0,0.0,0.0,0.0,0.0,-0.509,-0.7956,-1.0283,-1.0124,-0.7261,-0.4498,-0.171,0.0,0.0,0.0,0.0,0.0,0.0,0.0,0.0,0.0,0.0,0.0,0.0,0.0,0.0,0.0,0.0,0.0,0.0,0.0,0.0,0.0,0.0,0.0,0.0,0.0,0.0,0.0,0.0,0.0,0.0,0.0,0.0,0.0,0.0,0.0,0.0,0.0,0.0,0.0,0.0,0.0,0.0,0.0,0.0,0.0,0.0,0.0,0.0,0.0,0.0,0.0,0.0,0.0,0.0,0.0,0.0,0.0,0.0,0.0,0.0,0.0,0.0,0.0,0.0,0.0,0.0,0.0,0.0,0.0,0.0,0.0,0.0,0.0,0.0,0.0,0.0,0.0,0.0,0.0,0.0,0.0,0.0,0.0,0.0,0.0,0.0,0.0,0.0,0.0,0.0,0.0,0.0,0.0,0.0,0.0,0.0,0.0,0.0,0.0,0.0,0.0,0.0,0.0,0.0,0.0,0.0,0.0,0.0,0.0,-1.1381,-1.4512,-1.5184,-1.3063,-0.8736,-0.5259,0.0,0.0,0.0,0.0,0.0,0.0,0.0,0.0,0.0,0.0,0.0,0.0,0.0,0.0,0.0,0.0,0.0,0.0,0.0,0.0,0.0,0.0,0.0,0.0,0.0,0.0,0.0,0.0,0.0,0.0,0.0,0.0,0.0,0.0,0.0,0.0,0.0,0.0,0.0,0.0,0.0,0.0,0.0,0.0,0.0,0.0,0.0,0.0,0.0,0.0,0.0,0.0,0.0,0.0,0.0,0.0,0.0,0.0,0.0,0.0,0.0,0.0,0.0,0.0,0.0,0.0,0.0,0.0,0.0,0.0,0.0,0.0,0.0,0.0,0.0,0.0,0.0,0.0,0.0,0.0,0.0,0.0,0.0,0.0,0.0,0.0,0.0,0.0,0.0,0.0,0.0,0.0,0.0,0.0,0.0,0.0,0.0,0.0,0.0,0.0,0.0,0.0,0.0,0.0,0.0,0.0,0.0,0.0,0.0,-1.6417,-1.9151,-2.0141,-1.9113,-1.4398,-0.9761,-0.528,0.0,0.0,0.0,0.0,0.0,0.0,0.0,0.0,0.0,0.0,0.0,0.0,0.0,0.0,0.0,0.0,0.0,0.0,0.0,0.0,0.0,0.0,0.0,0.0,0.0,0.0,0.0,0.0,0.0,0.0,0.0,0.0,0.0,0.0,0.0,0.0,0.0,0.0,0.0,0.0,0.0,0.0,0.0,0.0,0.0,0.0,0.0,0.0,0.0,0.0,0.0,0.0,0.0,0.0,0.0,0.0,0.0,0.0,0.0,0.0,0.0,0.0,0.0,0.0,0.0,0.0,0.0,0.0,0.0,0.0,0.0,0.0,0.0,0.0,0.0,0.0,0.0,0.0,0.0,0.0,0.0,0.0,0.0,0.0,0.0,0.0,0.0,0.0,0.0,0.0,0.0,0.0,0.0,0.0,0.0,0.0,0.0,0.0,0.0,0.0,0.0,0.0,0.0,0.0,0.0,0.0,0.0,0.0,-2.2307,-2.3938,-2.488,-2.5009,-2.0821,-1.4904,0.0,0.0,0.0,0.0,0.0,0.0,0.0,0.0,0.0,0.0,0.0,0.0,0.0,0.0,0.0,0.0,0.0,0.0,0.0,0.0,0.0,0.0,0.0,0.0,0.0,0.0,0.0,0.0,0.0,0.0,0.0,0.0,0.0,0.0,0.0,0.0,0.0,0.0,0.0,0.0,0.0,0.0,0.0,0.0,0.0,0.0,0.0,0.0,0.0,0.0,0.0,0.0,0.0,0.0,0.0,0.0,0.0,0.0,0.0,0.0,0.0,0.0,0.0,0.0,0.0,0.0,0.0,0.0,0.0,0.0,0.0,0.0,0.0,0.0,0.0,0.0,0.0,0.0,0.0,0.0,0.0,0.0,0.0,0.0,0.0,0.0,0.0,0.0,0.0,0.0,0.0,0.0,0.0,0.0,0.0,0.0,0.0,0.0,0.0,0.0,0.0,0.0,0.0,0.0,0.0,0.0,0.0,0.0,0.0,-2.3148,-2.6414,-2.8647,-2.9745,-2.4279,-1.8362,0.0,0.0,0.0,0.0,0.0,0.0,0.0,0.0,0.0,0.0,0.0,0.0,0.0,0.0,0.0,0.0,0.0,0.0,0.0,0.0,0.0,0.0,0.0,0.0,0.0,0.0,0.0,0.0,0.0,0.0,0.0,0.0,0.0,0.0,0.0,0.0,0.0,0.0,0.0,0.0,0.0,0.0,0.0,0.0,0.0,0.0,0.0,0.0,0.0,0.0,0.0,0.0,0.0,0.0,0.0,0.0,0.0,0.0,0.0,0.0,0.0,0.0,0.0,0.0,0.0,0.0,0.0,0.0,0.0,0.0,0.0,0.0,0.0,0.0,0.0,0.0,0.0,0.0,0.0,0.0,0.0,0.0,0.0,0.0,0.0,0.0,0.0,0.0,0.0,0.0,0.0,0.0,0.0,0.0,0.0,0.0,0.0,0.0,0.0,0.0,0.0,0.0,0.0,0.0,0.0,0.0,0.0,0.0,-1.7891,-2.2893,-2.6443,-2.9037,-3.0568,-2.6501,-2.1346,0.0,0.0,0.0,0.0,0.0,0.0,0.0,0.0,0.0,0.0,0.0,0.0,0.0,0.0,0.0,0.0,0.0,0.0,0.0,0.0,0.0,0.0,0.0,0.0,0.0,0.0,0.0,0.0,0.0,0.0,0.0,0.0,0.0,0.0,0.0,0.0,0.0,0.0,0.0,0.0,0.0,0.0,0.0,0.0,0.0,0.0,0.0,0.0,0.0,0.0,0.0,0.0,0.0,0.0,0.0,0.0,0.0,0.0,0.0,0.0,0.0,0.0,0.0,0.0,0.0,0.0,0.0,0.0,0.0,0.0,0.0,0.0,0.0,0.0,0.0,0.0,0.0,0.0,0.0,0.0,0.0,0.0,0.0,0.0,0.0,0.0,0.0,0.0,0.0,0.0,0.0,0.0,0.0,0.0,0.0,0.0,0.0,0.0,0.0,0.0,0.0,0.0,0.0,0.0,0.0,0.0,0.0,0.0,-1.8368,-2.1997,-2.5119,-2.7305,-2.8421,-2.7472,-2.3614,0.0,0.0,0.0,0.0,0.0,0.0,0.0,0.0,0.0,0.0,0.0,0.0,0.0,0.0,0.0,0.0,0.0,0.0,0.0,0.0,0.0,0.0,0.0,0.0,0.0,0.0,0.0,0.0,0.0,0.0,0.0,0.0,0.0,0.0,0.0,0.0,0.0,0.0,0.0,0.0,0.0,0.0,0.0,0.0,0.0,0.0,0.0,0.0,0.0,0.0,0.0,0.0,0.0,0.0,0.0,0.0,0.0,0.0,0.0,0.0,0.0,0.0,0.0,0.0,0.0,0.0,0.0,0.0,0.0,0.0,0.0,0.0,0.0,0.0,0.0,0.0,0.0,0.0,0.0,0.0,0.0,0.0,0.0,0.0,0.0,0.0,0.0,0.0,0.0,0.0,0.0,0.0,0.0,0.0,0.0,0.0,0.0,0.0,0.0,0.0,0.0,0.0,0.0,0.0,0.0,0.0,0.0,0.0,-1.8593,-2.2303,-2.4574,-2.5614,-2.5419,-2.5664,-2.3504,0.0,0.0,0.0,0.0,0.0,0.0,0.0,0.0,0.0,0.0,0.0,0.0,0.0,0.0,0.0,0.0,0.0,0.0,0.0,0.0,0.0,0.0,0.0,0.0,0.0,0.0,0.0,0.0,0.0,0.0,0.0,0.0,0.0,0.0,0.0,0.0,0.0,0.0,0.0,0.0,0.0,0.0,0.0,0.0,0.0,0.0,0.0,0.0,-1.4032,0.0,0.0,0.0,0.0,0.0,0.0,0.0,0.0,0.0,0.0,0.0,0.0,0.0,0.0,0.0,0.0,0.0,0.0,0.0,0.0,0.0,0.0,0.0,0.0,0.0,0.0,0.0,0.0,0.0,0.0,0.0,0.0,0.0,0.0,0.0,0.0,0.0,0.0,0.0,0.0,0.0,0.0,0.0,0.0,0.0,0.0,0.0,0.0,0.0,0.0,0.0,0.0,0.0,0.0,0.0,0.0,0.0,0.0,0.0,-1.9039,-2.1949,-2.3788,-2.4178,-2.3185,-2.3552,-2.2318,0.0,0.0,0.0,0.0,0.0,0.0,0.0,0.0,0.0,0.0,0.0,0.0,0.0,0.0,0.0,0.0,0.0,0.0,0.0,0.0,0.0,0.0,0.0,0.0,0.0,0.0,0.0,0.0,0.0,0.0,0.0,0.0,0.0,0.0,0.0,0.0,0.0,0.0,0.0,0.0,0.0,0.0,0.0,0.0,0.0,0.0,0.0,0.0,0.0,0.0,0.0,0.0,0.0,0.0,0.0,0.0,0.0,0.0,0.0,0.0,0.0,0.0,0.0,0.0,0.0,0.0,0.0,0.0,0.0,0.0,0.0,0.0,0.0,0.0,0.0,0.0,0.0,0.0,0.0,0.0,0.0,0.0,0.0,0.0,0.0,0.0,0.0,0.0,0.0,0.0,0.0,0.0,0.0,0.0,0.0,0.0,0.0,0.0,0.0,0.0,0.0,0.0,0.0,0.0,0.0,0.0,0.0,-1.6351,-1.9619,-2.1837,-2.3076,-2.2947,-2.1411,-2.1494,-2.0855,-1.9247,0.0,0.0,0.0,0.0,0.0,0.0,0.0,0.0,0.0,0.0,0.0,0.0,0.0,0.0,0.0,0.0,0.0,0.0,0.0,0.0,0.0,0.0,0.0,0.0,0.0,0.0,0.0,0.0,0.0,0.0,0.0,0.0,0.0,0.0,0.0,0.0,0.0,0.0,-2.2184,-2.7676,0.0,0.0,0.0,0.0,0.0,0.0,0.0,0.0,-2.7239,0.0,0.0,0.0,0.0,0.0,0.0,0.0,0.0,0.0,0.0,0.0,0.0,0.0,0.0,0.0,0.0,0.0,0.0,0.0,0.0,0.0,0.0,0.0,0.0,0.0,0.0,0.0,0.0,0.0,0.0,0.0,0.0,0.0,0.0,0.0,0.0,0.0,0.0,0.0,0.0,0.0,0.0,0.0,0.0,0.0,0.0,0.0,0.0,0.0,0.0,0.0,0.0,0.0,0.0,0.0,0.0,-1.4716,-1.7297,-2.0252,-2.365,-2.3078,-2.1871,-2.0206,-2.0223,-2.0183,-1.9753,0.0,0.0,0.0,0.0,0.0,0.0,0.0,0.0,0.0,0.0,0.0,0.0,0.0,0.0,0.0,0.0,0.0,0.0,0.0,0.0,0.0,0.0,0.0,0.0,0.0,0.0,0.0,0.0,0.0,0.0,0.0,0.0,0.0,0.0,0.0,0.0,0.0,0.0,0.0,-3.3299,-3.6471,0.0,0.0,0.0,0.0,0.0,0.0,0.0,0.0,-2.9915,0.0,0.0,0.0,0.0,0.0,0.0,0.0,0.0,0.0,0.0,0.0,0.0,0.0,0.0,0.0,0.0,0.0,0.0,0.0,0.0,0.0,0.0,0.0,0.0,0.0,0.0,0.0,0.0,0.0,0.0,0.0,0.0,0.0,0.0,0.0,0.0,0.0,0.0,0.0,0.0,0.0,0.0,0.0,0.0,0.0,0.0,0.0,0.0,0.0,0.0,0.0,0.0,0.0,0.0,0.0,-1.5801,-1.904,-2.1797,-2.4082,-2.3356,-2.175,-1.9334,-1.9729,-2.0099,0.0,0.0,0.0,0.0,0.0,0.0,0.0,0.0,0.0,0.0,0.0,0.0,0.0,0.0,0.0,0.0,0.0,0.0,0.0,0.0,0.0,0.0,0.0,0.0,0.0,0.0,0.0,0.0,0.0,0.0,0.0,0.0,0.0,0.0,0.0,0.0,0.0,0.0,0.0,0.0,-3.6067,-3.9337,-4.2408,0.0,0.0,0.0,0.0,0.0,0.0,-3.7998,-3.5191,0.0,0.0,0.0,0.0,0.0,0.0,0.0,0.0,0.0,0.0,0.0,0.0,0.0,0.0,0.0,0.0,0.0,0.0,0.0,0.0,0.0,0.0,0.0,0.0,0.0,0.0,0.0,0.0,0.0,0.0,0.0,0.0,0.0,0.0,0.0,0.0,0.0,0.0,0.0,0.0,0.0,0.0,0.0,0.0,0.0,0.0,0.0,0.0,0.0,0.0,0.0,0.0,0.0,0.0,0.0,-1.6807,-2.0675,-2.3202,-2.4298,-2.3505,-2.1699,-1.8838,-1.9058,-1.9528,0.0,0.0,0.0,0.0,0.0,0.0,0.0,0.0,0.0,0.0,0.0,0.0,0.0,0.0,0.0,0.0,0.0,0.0,0.0,0.0,0.0,0.0,0.0,0.0,0.0,0.0,0.0,0.0,0.0,0.0,0.0,0.0,0.0,0.0,0.0,0.0,0.0,0.0,0.0,0.0,0.0,-4.1844,-4.4953,-4.5141,0.0,0.0,0.0,0.0,-4.3853,-4.1977,0.0,0.0,0.0,0.0,0.0,0.0,0.0,0.0,0.0,0.0,0.0,0.0,0.0,0.0,0.0,0.0,0.0,0.0,0.0,0.0,0.0,0.0,0.0,0.0,0.0,0.0,0.0,0.0,0.0,0.0,0.0,0.0,0.0,0.0,0.0,0.0,0.0,0.0,0.0,0.0,0.0,0.0,0.0,0.0,0.0,0.0,0.0,0.0,0.0,0.0,0.0,0.0,0.0,0.0,0.0,0.0,-1.8171,-2.1399,-2.367,-2.4838,-2.3247,-2.1164,-1.8732,-1.7357,-1.7456,0.0,0.0,0.0,0.0,0.0,0.0,0.0,0.0,0.0,0.0,0.0,0.0,0.0,0.0,0.0,0.0,0.0,0.0,0.0,0.0,0.0,0.0,0.0,0.0,0.0,0.0,0.0,0.0,0.0,0.0,0.0,0.0,0.0,0.0,0.0,0.0,0.0,0.0,0.0,0.0,0.0,-4.5022,-4.565,-4.6011,-4.584,0.0,0.0,-4.5944,-4.6012,-4.6105,0.0,0.0,0.0,0.0,0.0,0.0,0.0,0.0,0.0,0.0,0.0,0.0,0.0,0.0,0.0,0.0,0.0,0.0,0.0,0.0,0.0,0.0,0.0,0.0,0.0,0.0,0.0,0.0,0.0,0.0,0.0,0.0,0.0,0.0,0.0,0.0,0.0,0.0,0.0,0.0,0.0,0.0,0.0,0.0,0.0,0.0,0.0,0.0,0.0,0.0,0.0,0.0,0.0,0.0,0.0,-1.4683,-1.9086,-2.2816,-2.4862,-2.5037,-2.3207,-2.0901,-1.8155,-1.6848,-1.6844,0.0,0.0,0.0,0.0,0.0,0.0,0.0,0.0,0.0,0.0,0.0,0.0,0.0,0.0,0.0,0.0,0.0,0.0,0.0,0.0,0.0,0.0,0.0,0.0,0.0,0.0,0.0,0.0,0.0,0.0,0.0,0.0,0.0,0.0,0.0,0.0,0.0,0.0,0.0,0.0,0.0,0.0,-4.628,-4.7438,0.0,0.0,0.0,-4.7314,-4.6781,0.0,0.0,0.0,0.0,0.0,0.0,0.0,0.0,0.0,0.0,0.0,0.0,0.0,0.0,0.0,0.0,0.0,0.0,0.0,0.0,0.0,0.0,0.0,0.0,0.0,0.0,0.0,0.0,0.0,0.0,0.0,0.0,0.0,0.0,0.0,0.0,0.0,0.0,0.0,0.0,0.0,0.0,0.0,0.0,0.0,0.0,0.0,0.0,0.0,0.0,0.0,0.0,0.0,0.0,0.0,0.0,0.0,-1.9861,-2.3928,-2.5717,-2.5082,-2.3199,-2.0853,-1.797,-1.6909,0.0,0.0,0.0,0.0,0.0,0.0,0.0,0.0,0.0,0.0,0.0,0.0,0.0,0.0,0.0,0.0,0.0,0.0,0.0,0.0,0.0,0.0,0.0,0.0,0.0,0.0,0.0,-1.2626,0.0,0.0,0.0,0.0,0.0,0.0,0.0,0.0,0.0,0.0,0.0,0.0,0.0,0.0,-4.4228,-4.6584,-4.834,-4.9183,0.0,0.0,-4.8063,-4.7492,-4.8422,-4.7553,0.0,0.0,0.0,0.0,0.0,0.0,0.0,0.0,0.0,0.0,0.0,0.0,0.0,0.0,0.0,0.0,0.0,0.0,0.0,0.0,0.0,0.0,0.0,0.0,0.0,0.0,0.0,0.0,0.0,0.0,0.0,0.0,0.0,0.0,0.0,0.0,0.0,0.0,0.0,0.0,0.0,0.0,0.0,0.0,0.0,0.0,0.0,0.0,0.0,0.0,0.0,0.0,0.0,0.0,0.0,-2.0603,-2.4175,-2.5749,-2.5167,-2.3228,-2.1056,-1.8679,-1.7553,-1.7411,0.0,0.0,0.0,0.0,0.0,0.0,0.0,0.0,0.0,0.0,0.0,0.0,0.0,0.0,0.0,0.0,0.0,0.0,0.0,0.0,0.0,0.0,0.0,0.0,0.0,0.0,0.0,0.0,0.0,0.0,0.0,0.0,0.0,0.0,0.0,0.0,0.0,0.0,0.0,0.0,0.0,-4.5723,-4.6363,-4.8142,-4.9375,0.0,0.0,-4.8241,-4.8617,-5.004,-4.9181,-4.3467,0.0,0.0,0.0,0.0,0.0,0.0,0.0,0.0,0.0,0.0,0.0,0.0,0.0,0.0,0.0,0.0,0.0,0.0,0.0,0.0,0.0,0.0,0.0,0.0,0.0,0.0,0.0,0.0,0.0,0.0,0.0,0.0,0.0,0.0,0.0,0.0,0.0,0.0,0.0,0.0,0.0,0.0,0.0,0.0,0.0,0.0,0.0,0.0,0.0,0.0,0.0,0.0,0.0,-1.7049,-2.0624,-2.4693,-2.6587,-2.6135,-2.4166,-2.2236,-2.042,-1.8946,-1.8505,0.0,0.0,0.0,0.0,0.0,0.0,0.0,0.0,0.0,0.0,0.0,0.0,0.0,0.0,0.0,0.0,0.0,0.0,0.0,0.0,0.0,0.0,0.0,0.0,0.0,0.0,0.0,0.0,-1.6974,-1.7259,-1.6943,0.0,0.0,0.0,0.0,0.0,0.0,0.0,0.0,0.0,0.0,-4.5959,-4.7371,-4.8872,0.0,0.0,-4.8986,-4.8663,-4.7813,-4.8928,-4.8328,-4.375,-4.2848,0.0,0.0,0.0,0.0,0.0,0.0,0.0,0.0,0.0,0.0,0.0,0.0,0.0,0.0,0.0,0.0,0.0,0.0,0.0,0.0,0.0,0.0,0.0,0.0,0.0,0.0,0.0,0.0,0.0,0.0,0.0,0.0,0.0,0.0,0.0,0.0,0.0,0.0,0.0,0.0,0.0,0.0,0.0,0.0,0.0,0.0,0.0,0.0,0.0,0.0,0.0,0.0,-1.7679,-2.091,-2.4968,-2.6908,-2.6628,-2.4687,-2.2977,-2.1575,-2.0327,-1.9884,0.0,0.0,0.0,0.0,0.0,0.0,0.0,0.0,0.0,0.0,0.0,0.0,0.0,0.0,0.0,0.0,0.0,0.0,0.0,0.0,0.0,0.0,0.0,0.0,0.0,0.0,0.0,0.0,-1.8351,-1.8353,-1.8585,0.0,0.0,0.0,0.0,0.0,0.0,0.0,0.0,0.0,0.0,-4.602,-4.7664,-4.8655,-4.8954,-4.8365,-4.8348,-4.8023,-4.7005,-4.7835,-4.7456,-4.4064,0.0,0.0,0.0,0.0,0.0,0.0,0.0,0.0,0.0,0.0,0.0,0.0,0.0,0.0,0.0,0.0,0.0,0.0,0.0,0.0,0.0,0.0,0.0,0.0,0.0,0.0,0.0,0.0,0.0,0.0,-1.6053,0.0,0.0,0.0,0.0,0.0,0.0,0.0,0.0,0.0,0.0,0.0,0.0,0.0,0.0,0.0,0.0,0.0,0.0,0.0,0.0,0.0,0.0,-1.8573,-2.1657,-2.4853,-2.6403,-2.6309,-2.4494,-2.3038,-2.1969,-2.1556,-2.1672,-2.2345,0.0,0.0,0.0,0.0,0.0,0.0,0.0,0.0,0.0,0.0,0.0,0.0,0.0,0.0,0.0,0.0,0.0,0.0,0.0,0.0,0.0,0.0,0.0,0.0,0.0,0.0,-2.0485,-2.0379,-2.0583,0.0,0.0,0.0,0.0,0.0,0.0,0.0,0.0,0.0,0.0,-4.3669,-4.6005,-4.6883,-4.7051,-4.7154,-4.7162,-4.6456,-4.6055,-4.647,-4.7178,-4.686,0.0,0.0,0.0,0.0,0.0,0.0,0.0,0.0,0.0,0.0,0.0,0.0,0.0,0.0,0.0,0.0,0.0,0.0,0.0,0.0,0.0,0.0,0.0,0.0,0.0,0.0,0.0,-2.6931,-2.5636,0.0,0.0,0.0,0.0,0.0,0.0,0.0,0.0,0.0,0.0,0.0,-3.3033,-3.4112,0.0,0.0,0.0,0.0,0.0,0.0,0.0,0.0,0.0,0.0,0.0,0.0,-1.9792,-2.2811,-2.5699,-2.7301,-2.752,-2.5801,-2.4485,-2.3654,-2.3531,-2.3887,-2.4695,0.0,0.0,0.0,0.0,0.0,0.0,0.0,0.0,0.0,0.0,0.0,0.0,0.0,0.0,0.0,0.0,0.0,0.0,0.0,0.0,0.0,0.0,0.0,0.0,0.0,-2.3457,0.0,0.0,0.0,0.0,0.0,0.0,0.0,0.0,0.0,0.0,0.0,-3.9312,-4.1787,-4.4044,-4.5518,-4.5832,-4.633,-4.6873,0.0,0.0,0.0,0.0,0.0,0.0,0.0,0.0,0.0,0.0,0.0,0.0,0.0,0.0,-4.9125,-4.5454,-4.4102,-4.3565,-4.36,0.0,0.0,0.0,0.0,0.0,0.0,0.0,0.0,0.0,0.0,0.0,0.0,0.0,0.0,0.0,0.0,-2.8946,0.0,0.0,0.0,0.0,0.0,0.0,0.0,0.0,-3.3615,-3.5254,-3.5606,-3.6869,-3.7071,0.0,-3.4867,-3.0523,0.0,0.0,0.0,0.0,0.0,0.0,0.0,0.0,-2.0976,-2.3376,-2.5951,-2.7512,-2.7901,-2.6151,-2.4932,-2.4453,-2.4618,-2.526,-2.6382,-2.6269,-2.6746,0.0,0.0,0.0,0.0,0.0,0.0,0.0,0.0,0.0,0.0,0.0,0.0,0.0,0.0,0.0,0.0,0.0,0.0,0.0,0.0,0.0,0.0,0.0,-2.5326,0.0,0.0,0.0,0.0,0.0,0.0,0.0,0.0,0.0,-3.5954,-3.9012,-4.1718,-4.3192,-4.4851,-4.5723,-4.5166,0.0,0.0,0.0,0.0,0.0,0.0,0.0,-4.4947,-4.4415,-4.5241,-4.614,-4.6654,-4.8985,-5.064,-5.0228,0.0,0.0,-4.8589,-4.744,-4.6765,-4.6496,-4.5945,-4.5257,-4.4458,-4.4836,-4.521,0.0,0.0,0.0,0.0,0.0,0.0,0.0,0.0,-3.6998,-3.6318,0.0,-3.3279,0.0,0.0,0.0,0.0,0.0,0.0,0.0,0.0,-3.7345,-3.8422,-3.7558,-3.7535,-3.7549,-3.7484,-3.6958,-3.5388,-3.2739,-2.7209,0.0,0.0,0.0,0.0,0.0,0.0,-2.217,-2.347,-2.5643,-2.7009,-2.7534,-2.5544,-2.442,-2.4433,-2.4879,-2.5893,-2.7376,-2.7813,-2.8532,-2.9579,-2.9181,0.0,0.0,0.0,0.0,0.0,0.0,0.0,0.0,0.0,0.0,0.0,0.0,0.0,0.0,0.0,0.0,0.0,0.0,0.0,0.0,-2.8728,0.0,0.0,0.0,0.0,0.0,0.0,0.0,0.0,0.0,0.0,-3.8259,-4.1599,-4.4082,-4.451,0.0,0.0,0.0,0.0,-4.5278,-4.3899,-4.3571,-4.3571,-4.3681,-4.4911,-4.5865,-4.5865,0.0,0.0,-4.8343,-4.9701,-5.0428,-4.9241,-5.0083,-5.1041,-5.1665,-5.0395,-4.9258,-4.8543,-4.8033,-4.7504,-4.688,-4.743,-4.7975,-4.4189,0.0,0.0,0.0,0.0,-4.0636,-4.2038,-4.4009,-4.2718,-4.1766,-4.1041,-3.8232,0.0,0.0,0.0,0.0,0.0,0.0,-3.5521,-3.6861,-3.7266,-3.778,-3.8358,-3.8378,-3.836,-3.8322,-3.7631,-3.6734,-3.55,-3.1548,-2.7454,-2.3395,0.0,0.0,0.0,0.0,-2.3765,-2.5728,-2.6737,-2.7392,-2.7812,-2.5951,-2.5304,-2.6002,-2.5923,-2.6772,-2.8682,-2.8855,-2.9572,-3.0963,-3.093,0.0,0.0,0.0,0.0,0.0,0.0,0.0,0.0,0.0,0.0,0.0,0.0,0.0,0.0,0.0,0.0,0.0,0.0,0.0,-3.0285,-2.9449,-2.8581,0.0,0.0,0.0,0.0,0.0,0.0,0.0,0.0,0.0,-3.9378,-4.1205,-4.2624,0.0,0.0,-4.4158,-4.313,-4.3681,-4.4433,-4.5112,0.0,0.0,0.0,-4.5975,-4.5902,-4.5902,-4.7241,-4.8508,-4.9114,-5.0086,-5.0677,-5.0282,-5.0533,-5.071,-5.0306,-4.9939,-4.9682,-4.9942,-4.9714,-4.9365,-4.9172,-4.934,-4.9258,-4.7276,-4.4889,-4.3763,-4.3156,-4.2905,-4.3054,-4.4269,-4.609,-4.4949,-4.411,-4.335,-4.1007,-3.8303,-3.5413,-3.3793,0.0,0.0,0.0,-3.6558,-3.7891,-3.6644,-3.6486,-3.7191,-3.69,-3.6784,-3.6743,-3.6279,-3.57,-3.4999,-3.2176,-2.9206,-2.6014,0.0,0.0,-2.2361,-2.3724,-2.5275,-2.697,-2.7579,-2.7898,-2.7934,-2.6478,-2.6121,-2.6942,-2.71,-2.7967,-2.9598,-2.9673,-3.0297,-3.164,-3.1719,-3.1489,0.0,0.0,0.0,0.0,0.0,0.0,0.0,0.0,0.0,0.0,0.0,-2.376,-2.3592,0.0,0.0,0.0,-2.8152,-2.937,-3.0105,-3.0135,0.0,0.0,0.0,0.0,0.0,0.0,0.0,-3.5191,-3.7686,-3.9433,-3.9559,-4.0635,-4.177,-4.2714,-4.3087,-4.2991,-4.2212,0.0,-4.3554,-4.4189,-4.388,-4.3878,-4.4841,-4.4859,-4.4937,-4.5512,-4.6835,-4.7957,-4.8489,-4.9022,-4.9334,-4.9315,-4.9077,-4.8691,-4.8214,-4.8122,-4.8508,-4.9536,-4.9436,-4.921,-4.9337,-4.9201,-4.8838,-4.8633,-4.8379,-4.5781,-4.4735,-4.4785,-4.4655,-4.5022,-4.5589,-4.4646,-4.4,-4.3512,-4.1837,-4.0065,-3.823,-3.6845,0.0,-3.7198,-3.6845,-3.7003,-3.7605,-3.5714,-3.4789,-3.4742,-3.397,-3.3569,-3.3578,-3.3526,-3.3149,-3.2349,-3.0407,-2.9025,-2.8156,-2.6254,-2.48,-2.4019,-2.5347,-2.6507,-2.7442,-2.8141,-2.8326,-2.7885,-2.691,-2.6734,-2.7431,-2.8222,-2.9168,-3.0242,-3.023,-3.0729,-3.1796,-3.1729,-3.1777,-3.1939,0.0,0.0,0.0,0.0,0.0,0.0,0.0,0.0,0.0,0.0,0.0,0.0,0.0,0.0,0.0,-2.9773,0.0,-2.9918,-3.0893,0.0,0.0,0.0,-3.2791,-3.2907,-3.5879,-3.7587,-3.6699,0.0,0.0,-3.8854,0.0,-4.1041,-4.2441,-4.2784,-4.2615,-4.181,-4.2339,-4.2579,-4.2055,-4.1817,-4.1817,-4.231,-4.2754,-4.3536,-4.4584,-4.5945,-4.6612,-4.6614,-4.6632,-4.6651,-4.6759,-4.6139,-4.5718,-4.5718,-4.581,-4.6159,-4.759,-4.777,-4.7703,-4.7918,-4.7656,-4.7207,-4.6445,-4.5879,-4.5215,-4.5253,-4.5731,-4.5561,-4.5235,-4.4744,-4.3798,-4.2975,-4.2178,-4.0707,-3.885,-3.6872,-3.7703,-3.7824,-3.7403,-3.6698,-3.6486,-3.6504,-3.4248,-3.3049,-3.2754,-3.1981,-3.16,-3.1556,-3.1272,-3.133,-3.1547,-2.966,-2.8596,-2.8282,-2.6691,-2.5564,-2.4996,-2.5562,-2.6493,-2.7772,-2.7823,-2.7572,-2.7014,-2.6127,-2.6346,-2.7809,-2.8052,-2.8899,-3.0454,-3.0327,-3.0665,-3.1618,-3.1447,-3.0836,-2.983,-2.9535,0.0,0.0,0.0,0.0,0.0,0.0,0.0,0.0,0.0,-2.6101,-2.4873,0.0,-2.7985,0.0,-2.9896,-3.1622,-3.2467,-3.2811,0.0,0.0,-3.4106,-3.4471,-3.5603,-3.6416,-3.6447,-3.5299,-3.6495,-3.7269,-3.6555,-3.7222,-3.8069,-3.9007,-4.0849,-4.1793,-4.1091,-4.1091,-4.1434,-4.1693,-4.1304,-4.1476,-4.2445,-4.2949,-4.2939,-4.2769,-4.3465,-4.387,-4.3297,-4.3207,-4.3386,-4.3888,-4.374,-4.3699,-4.4245,-4.42,-4.416,-4.4671,-4.5768,-4.6707,-4.644,-4.6006,-4.5354,-4.3613,-4.3301,-4.3301,-4.332,-4.3359,-4.3916,-4.3859,-4.3324,-4.2371,-4.147,-4.0572,-3.8783,-3.7464,-3.6491,-3.6509,-3.6486,-3.6321,-3.5165,-3.4651,-3.4541,-3.2504,-3.1316,-3.0966,-3.0173,-2.9551,-2.907,-2.9189,-2.9166,-2.9053,-2.8315,-2.784,-2.7625,-2.7122,-2.6579,-2.5954,-2.5903,-2.6457,-2.7565,-2.7325,-2.7052,-2.6739,-2.6275,-2.6482,-2.744,-2.785,-2.8447,-2.9318,-2.9181,-2.9379,-2.9963,-3.0204,-2.9976,-2.9233,-2.8931,-2.7933,0.0,0.0,0.0,0.0,0.0,0.0,0.0,0.0,0.0,0.0,0.0,-2.9359,0.0,-3.1084,-3.2377,-3.3395,-3.3769,-3.4254,-3.5049,-3.5034,-3.5323,-3.6106,-3.6227,-3.5932,-3.5246,-3.5813,-3.6173,-3.5798,-3.6107,-3.6489,-3.6902,-3.8216,-3.9243,-3.944,-3.9442,-3.9599,-4.0043,-3.9747,-3.9774,-4.0697,-4.099,-4.1006,-4.0697,-4.1078,-4.1387,-4.0978,-4.0948,-4.109,-4.1464,-4.1417,-4.1432,-4.1862,-4.1859,-4.1724,-4.1738,-4.2417,-4.3484,-4.4457,-4.3875,-4.2895,-4.0742,-4.0879,-4.0859,-4.0429,-3.9803,-4.0955,-4.1513,-4.1496,-4.0577,-3.9657,-3.8635,-3.6502,-3.5747,-3.595,-3.4376,-3.398,-3.4422,-3.2915,-3.221,-3.2096,-3.0625,-2.9639,-2.9116,-2.8435,-2.7584,-2.6649,-2.7186,-2.7004,-2.6144,-2.6697,-2.6756,-2.6447,-2.7081,-2.701,-2.6277,-2.5875,-2.6151,-2.7019,-2.6853,-2.6746,-2.6689,-2.6615,-2.6645,-2.6762,-2.7482,-2.7847,-2.7791,-2.7672,-2.7708,-2.7964,-2.8596,-2.902,-2.9107,-2.8334,-2.7835,0.0,-2.6245,0.0,0.0,0.0,0.0,0.0,0.0,0.0,0.0,-3.0675,-3.1037,-3.2512,-3.2632,-3.2871,-3.344,-3.4023,-3.44,-3.454,-3.5019,-3.5365,-3.5437,-3.5502,-3.5482,-3.5386,-3.5361,-3.539,-3.5182,-3.5268,-3.5225,-3.5186,-3.5259,-3.5756,-3.68,-3.7227,-3.7446,-3.7379,-3.7309,-3.7155,-3.7391,-3.7694,-3.7858,-3.7929,-3.8303,-3.8778,-3.8561,-3.8602,-3.877,-3.8876,-3.8828,-3.889,-3.9014,-3.8982,-3.8895,-3.8636,-3.8757,-3.963,-4.1669,-4.1462,-4.0375,-3.8927,-3.9082,-3.9082,-3.8921,-3.8665,-3.8295,-3.8498,-3.9051,-3.8714,-3.7564,-3.5823,-3.4491,-3.3435,-3.2753,-3.2793,-3.2529,-3.2019,-3.0758,-3.017,-3.0115,-2.89,-2.7802,-2.6877,-2.669,-2.6191,-2.5436,-2.5227,-2.534,-2.5685,-2.5247,-2.4964,-2.484,-2.4723,-2.4392,-2.3897,0.0,0.0,0.0,-2.6782,-2.6797,-2.6161,-2.5686,-2.5751,-2.6436,-2.663,0.0,-2.7663,-2.7291,-2.725,-2.7647,-2.7602,0.0,0.0,0.0,0.0,0.0,0.0,0.0,0.0,0.0,0.0,0.0,-3.0821,-2.9943,-2.9827,-3.119,-3.2407,-3.323,-3.3305,-3.335,-3.3484,-3.3604,-3.397,-3.4539,-3.4182,-3.4121,-3.4744,-3.4327,-3.3742,-3.318,-3.3147,-3.2959,-3.2444,-3.2403,-3.2383,-3.238,-3.24,-3.2482,-3.2757,-3.4248,-3.5043,-3.459,-3.4235,-3.3958,-3.4311,-3.4203,-3.4133,-3.3874,-3.4316,-3.4544,-3.4213,-3.4398,-3.4873,-3.5369,-3.533,-3.5488,-3.6011,-3.596,-3.5793,-3.5722,-3.5998,-3.6789,-3.8505,-3.8682,-3.8206,-3.7133,0.0,-3.7324,-3.7048,0.0,-3.6132,-3.5956,-3.596,-3.6145,-3.5391,-3.3934,-3.2746,-3.2128,-3.1954,-3.1188,-3.0701,-3.044,-2.9456,-2.8905,-2.8711,-2.7796,-2.6951,-2.6177,-2.5825,-2.5167,-2.4259,-2.4411,-2.4513,-2.4507,-2.4513,-2.4377,-2.4156,-2.4378,-2.4264,-2.3823,-2.4346,-2.485,-2.5255,-2.5744,-2.6016,-2.5978,-2.5696,-2.5989,-2.6887,0.0,0.0,0.0,0.0,0.0,0.0,0.0,0.0,0.0,0.0,0.0,-2.8117,-2.873,-2.9619,-3.0678,-3.0224,-3.0423,-3.1492,-3.0919,-3.0473,-3.0425,-3.2035,-3.314,-3.3455,-3.3499,-3.3499,-3.3499,-3.3499,-3.3532,-3.3573,-3.287,-3.233,-3.2048,-3.1396,-3.0635,-3.0087,-2.9929,-2.9862,-2.9496,-2.9471,-2.9501,-2.947,-2.947,-2.944,-2.972,-3.1596,-3.3026,-3.2689,-3.2417,-3.2289,-3.2545,-3.24,-3.2096,-3.216,-3.24,-3.2396,-3.2134,-3.2315,-3.2611,-3.2987,-3.299,-3.3064,-3.3326,-3.3094,-3.2918,-3.3367,-3.342,-3.3789,-3.5006,-3.6002,-3.6667,-3.5362,-3.5547,-3.5547,-3.5137,-3.4473,-3.4471,-3.3945,-3.3161,0.0,0.0,0.0,-3.1362,-3.1161,-3.1634,-2.9715,-2.9046,-2.9322,-2.8326,-2.7776,-2.7564,-2.675,-2.6149,-2.5703,-2.508,-2.4236,-2.3241,-2.3739,-2.3675,-2.3135,-2.3631,-2.3729,-2.3473,-2.4049,-2.4235,-2.4049,-2.4652,-2.4741,-2.4321,-2.4638,-2.5089,-2.5668,-2.5716,-2.6186,-2.7144,-2.7163,-2.7286,-2.7471,-2.7223,-2.7233,-2.7504,-2.732,-2.742,-2.7872,-2.8202,-2.8414,-2.8416,-2.8783,-2.9307,-3.0054,-2.9496,-2.936,-3.0027,-3.0087,-3.0488,-3.1407,-3.2393,-3.2898,-3.2794,-3.2703,-3.2507,-3.2418,-3.2404,-3.2182,-3.1649,-3.093,-3.009,-2.9172,-2.8454,-2.7968,-2.7353,-2.7346,-2.7048,-2.6851,-2.681,-2.6565,-2.6301,-2.6279,-2.6442,-2.6818,-2.88,-3.0585,-3.0663,-3.0313,-3.0407,-3.0723,-3.0404,-3.0555,-3.0248,-3.0427,-3.0591,-3.0434,-3.0545,-3.0672,-3.0573,-3.0655,-3.0715,-3.0778,-3.0445,-3.0331,-3.1091,-3.0886,-3.081,-3.1741,-3.3189,-3.4519,-3.3645,-3.375,-3.3769,-3.3711,-3.3574,-3.3532,-3.2934,-3.2048,-3.2191,-3.2132,-3.1864,-3.0674,-3.0124,-2.9979,-2.8756,-2.8355,-2.845,-2.6726,-2.6087,0.0,-2.5317,-2.4441,-2.3803,-2.3667,-2.3214,-2.2485,-2.2149,-2.1966,-2.1823,-2.1645,-2.1456,-2.144,-2.1535,-2.1875,-2.2383,-2.2541,-2.2851,-2.3392,-2.4386,-2.4748,-2.445,-2.463,-2.5105,-2.5906,-2.5981,-2.628,-2.6952,-2.6821,-2.6863,-2.7212,-2.7236,-2.742,-2.789,-2.8219,-2.8414,-2.8416,-2.8766,-2.9143,-2.9386,-2.8796,-2.8295,-2.7974,-2.8402,-2.9461,-3.1289,-3.1057,-3.0613,-3.0016,-2.9483,-2.8778,-2.8285,-2.833,-2.8302,-2.8102,-2.7956,-2.7726,-2.7429,-2.7312,-2.7065,-2.6913,-2.6826,-2.5901,-2.4855,-2.4603,-2.3958,-2.2851,-2.2979,-2.3067,-2.3685,-2.5467,-2.7159,-2.7598,-2.696,-2.6846,-2.7508,-2.6917,-2.6623,-2.6332,-2.6794,-2.685,-2.6041,-2.6624,-2.7113,-2.7174,-2.7299,-2.752,-2.7869,-2.7917,-2.7965,-2.819,-2.8378,-2.8703,-2.9396,-3.0155,-3.1053,-3.3186,-3.3292,-3.3278,-3.3003,-3.2541,-3.204,-3.1594,-3.1211,-3.1162,-3.1099,-3.097,-3.0166,-2.9551,-2.8992,-2.8079,-2.7362,-2.677,-2.575,-2.5159,-2.4898,-2.3955,-2.3219,-2.2699,-2.2289,-2.1944,-2.1584,-2.1385,-2.1291,-2.1244,-2.1086,-2.0846,-2.0665,-2.0616,-2.0623,-2.0657,-2.1212,-2.1766,-2.2265,-2.3411,-2.4096,-2.4298,-2.4393,-2.497,-2.6096,-2.6323,-2.6871,-2.7733,-2.7781,-2.7885,-2.8057,-2.7942,-2.7869,-2.7908,-2.8202,-2.8414,-2.8416,-2.8484,-2.8439,-2.8217,-2.7032,-2.6087,-2.5507,-2.57,-2.6204,-2.7184,-2.814,-2.8604,-2.8307,-2.7689,-2.722,-2.6914,-2.6594,-2.6146,-2.5351,-2.5208,-2.472,-2.3761,-2.3446,-2.3271,-2.3031,-2.2959,-2.258,-2.1728,-2.1736,-2.152,-2.0493,-2.0531,-2.0646,-2.077,-2.1761,-2.3256,-2.4847,-2.4843,-2.4571,-2.4722,-2.4529,-2.404,-2.3485,-2.3755,-2.369,-2.3103,-2.3738,-2.4077,-2.3915,-2.4356,-2.4828,-2.4911,-2.4815,-2.5244,-2.628,-2.6213,-2.6662,-2.7656,-2.8308,-2.9417,-3.2524,-3.2551,-3.2553,-3.2112,-3.1374,-3.0787,-3.0564,-3.057,-3.0331,-3.0208,-3.0078,-2.9688,-2.9194,-2.8632,-2.7419,-2.6449,-2.5743,-2.4821,-2.4125,-2.3588,-2.2718,-2.2151,-2.1809,-2.115,-2.083,-2.0797,-2.0618,-2.042,-2.0291,-2.0213,-1.99,-1.9471,-1.94,-1.9281,-1.9073,-1.9844,-2.0508,-2.1035,-2.2006,-2.2937,-2.3804,-2.3839,-2.4455,-2.5642,-2.6117,-2.6863,-2.7883,-2.8072,-2.8252,-2.839,-2.8208,-2.7976,-2.7747,-2.7886,-2.7958,-2.7944,-2.7704,-2.7201,-2.6467,-2.5088,-2.3893,-2.3057,-2.3128,-2.3053,-2.2924,-2.4396,-2.5716,-2.6051,-2.5429,-2.5027,-2.4889,-2.4691,-2.397,-2.2786,-2.2483,-2.1876,-2.0425,-1.9991,-1.978,-1.9414,-1.9437,-1.9349,-1.8786,-1.879,-1.8588,-1.8091,-1.8051,-1.8143,-1.8154,-1.8272,-1.9457,-2.1037,-2.2247,-2.2444,-2.1975,-2.2091,-2.18,-2.0736,-2.1131,-2.107,-2.0784,-2.0986,-2.1493,-2.1179,-2.1773,-2.2277,-2.1995,-2.215,-2.2832,-2.3981,-2.4222,-2.4785,-2.6249,-2.7073,-2.8144,-3.0692,-3.0571,-3.062,-3.0366,-3.0041,-3.0227,-3.0292,-3.018,-2.9661,-2.9374,-2.9339,-2.9008,-2.903,-2.8931,-2.6628,-2.5866,-2.6224,-2.3658,-2.2506,-2.2636,-2.1665,-2.1119,-2.0957,-2.0469,-2.0273,-2.0088,-1.9388,-1.8691,-1.8186,-1.7847,-1.7348,-1.6831,-1.6702,-1.7089,-1.7821,-1.803,-1.8576,-1.9582,-2.0177,-2.1019,-2.2067,-2.2122,-2.2545,-2.3384,-2.3875,-2.4785,-2.6214,-2.63,-2.6563,-2.716,-2.7195,-2.717,-2.7113,-2.6852,-2.6673,-2.664,-2.595,-2.5029,-2.3945,-2.3249,-2.2291,-2.1027,-2.1342,-2.1126,-1.9924,-1.9959,-2.094,-2.2292,-2.1738,-2.1219,-2.0973,-2.0982,-2.0644,-1.9843,-1.9631,-1.9547,-1.9186,-1.9395,-1.9346,-1.9313,-1.8376,-1.7804,-1.6618,-1.6266,-1.5612,-1.48,-1.4921,-1.5084,-1.5065,-1.5371,-1.5682,-1.653,-1.7983,-1.9401,-1.9447,-1.9585,-1.903,-1.8013,-1.8695,-1.8605,-1.7818,-1.8025,-1.8815,-1.8478,-1.8928,-1.9259,-1.9668,-2.028,-2.0769,-2.1323,-2.2113,-2.3201,-2.4446,-2.5621,-2.7024,-2.9526,-2.933,-2.9508,-2.9391,-2.9163,-2.9612,-2.978,-2.9682,-2.9922,-2.9796,-2.931,-2.8645,-2.7875,-2.7001,-2.5689,-2.4766,-2.3922,-2.2243,-2.1245,-2.0845,-2.0357,-1.9667,-1.8772,-1.8532,-1.8261,-1.7896,-1.7504,-1.7182,-1.6872,-1.6378,-1.5661,-1.488,-1.4998,-1.5085,-1.5079,-1.5847,-1.6506,-1.6826,-1.7228,-1.7612,-1.8093,-2.0162,-2.1289,-2.1275,-2.2239,-2.3257,-2.4218,-2.4547,-2.4847,-2.5118,-2.5152,-2.5226,-2.5395,-2.5238,-2.5294,-2.5615,-2.4776,-2.3503,-2.2011,-2.1287,-2.0515,-1.9523,-1.9287,-1.8934,-1.8351,-1.746,-1.751,-1.8665,-1.9089,-1.9264,-1.9183,-1.8544,-1.7715,-1.7021,-1.6532,-1.6128,-1.5609,-1.5609,-1.5549,-1.5568,-1.5496,-1.5179,-1.445,-1.4171,-1.3845,-1.3293,-1.3354,-1.3322,-1.3442,-1.3322,-1.3092,-1.3177,-1.377,-1.4647,-1.587,-1.6467,-1.5947,-1.5283,-1.5383,-1.5331,-1.4946,-1.5157,-1.5808,-1.5436,-1.6069,-1.6419,-1.6227,-1.7366,-1.8207,-1.8855,-2.0263,-2.168,-2.2465,-2.3732,-2.4976,-2.7846,-2.7605,-2.7755,-2.7656,-2.7483,-2.8008,-2.8064,-2.8034,-2.9002,-2.8825,-2.7741,-2.7256,-2.5791,-2.3988,-2.4227,-2.3709,-2.2362,-2.0983,-1.9975,-1.9273,-1.8728,-1.7807,-1.6715,-1.63,-1.5948,-1.5567,-1.5362,-1.5215,-1.4998,-1.4105,-1.3277,-1.2619,-1.2576,-1.2402,-1.2121,-1.3216,-1.3857,-1.3963,-1.4506,-1.459,-1.4487,-1.7277,-1.8842,-1.8651,-1.9795,-2.0834,-2.1535,-2.2114,-2.2537,-2.2729,-2.2881,-2.308,-2.3284,-2.3427,-2.3647,-2.3799,-2.301,-2.1801,-2.0281,-1.9505,-1.872,-1.785,-1.7258,-1.6757,-1.6239,-1.5312,-1.4954,-1.5448,-1.6219,-1.6636,-1.7158,-1.6405,-1.5466,-1.4721,-1.3936,-1.3219,-1.2793,-1.248,-1.2366,-1.2312,-1.243,-1.2193,-1.174,-1.1571,-1.1461,-1.1454,-1.1502,-1.1618,-1.1549,-1.1023,-1.0691,-1.0628,-0.992,-1.0525,-1.2575,-1.3319,-1.3009,-1.2476,-1.2445,-1.2672,-1.2151,-1.2615,-1.3065,-1.3015,-1.372,-1.415,-1.4141,-1.4859,-1.6079,-1.7104,-1.8417,-1.9837,-2.0435,-2.1805,-2.2965,-2.5142,-2.4828,-2.4623,-2.4128,-2.4405,-2.4424,-2.4406,-2.3328,-2.5467,-2.5206,-2.3005,-2.3725,-2.2497,-1.9208,-2.1153,-2.3045,-2.2647,-1.9778,-1.8396,-1.81,-1.6319,-1.5428,-1.5334,-1.4238,-1.3591,-1.334,-1.3003,-1.2525,-1.1943,-1.0518,-0.977,-0.9739,-0.899,-0.8807,-0.9233,-0.9904,-1.0489,-1.1018,-1.2136,-1.2352,-1.1501,-1.3033,-1.4353,-1.4991,-1.6115,-1.7085,-1.7772,-1.8581,-1.9373,-2.0005,-2.057,-2.0947,-2.1024,-2.1465,-2.1464,-2.0927,-2.0241,-1.9558,-1.8754,-1.8001,-1.7025,-1.5763,-1.5399,-1.4789,-1.3682,-1.3149,-1.302,-1.3105,-1.2586,-1.2753,-1.3912,-1.3996,-1.369,-1.302,-1.2265,-1.1751,-1.169,-1.094,-1.0539,-1.0421,-1.0027,-0.9488,-0.8527,-0.8215,-0.8458,-0.8458,-0.8339,-0.8393,-0.8447,-0.8264,-0.813,-0.7991,-0.7584,-0.7624,-0.9901,-1.0434,-1.0121,-0.9737,-0.975,-1.0203,-1.0002,-0.992,-1.022,-1.0525,-1.0993,-1.1424,-1.1966,-1.298,-1.4424,-1.5525,-1.6533,-1.763,-1.8049,-2.0067,-2.1184,-2.0348,-1.6026,-1.561,-1.4291,-1.2431,-1.2441,-1.1885,-1.1081,-1.1803,-1.17,-1.1054,-1.1643,-1.1335,-1.0406,-1.1251,-1.3985,-1.7431,-1.5465,-1.4505,-1.4367,-1.2353,-1.1183,-1.0941,-1.045,-1.0081,-0.9722,-0.9957,-0.9768,-0.8948,-0.7555,-0.689,-0.6772,-0.615,-0.5987,-0.6356,-0.6822,-0.7096,-0.726,-0.8032,-0.801,-0.737,-0.7881,-0.8633,-0.9595,-1.331,-1.5567,-1.604,-1.6818,-1.7151,-1.6969,-1.7209,-1.7518,-1.7965,-1.8695,-1.921,-1.9166,-1.8084,-1.7332,-1.7049,-1.6054,-1.5158,-1.4576,-1.3553,-1.2841,-1.2127,-1.1203,-1.0573,-1.0448,-0.9838,-0.9699,-1.0065,-1.067,-1.085,-1.0566,-0.9825,-0.9325,-0.9273,-0.9018,-0.889,-0.8826,-0.857,-0.8125,-0.727,-0.7075,-0.6876,-0.6408,-0.6274,-0.6274,-0.6144,-0.5825,-0.5574,-0.5311,-0.4716,-0.4383,-0.5091,-0.6496,-0.7012,-0.6888,-0.6952,-0.7021,-0.6952,-0.7021,-0.7264,-0.7388,-0.7899,-0.8413,-0.8914,-1.0525,-1.2056,-1.2973,-1.405,-1.505,-1.5545,-1.7379,-1.8402,-1.1547,-0.6783,-0.607,-0.4678,-0.2746,-0.2475,-0.1826,-0.1063,-0.2047,-0.2019,-0.1497,-0.233,-0.2633,-0.22,-0.2013,-0.4058,-0.8325,-0.8937,-0.9595,-0.9731,-0.7785,-0.6795,-0.6746,-0.6339,-0.6006,-0.5852,-0.6302,-0.6297,-0.5777,-0.4615,-0.407,-0.4029,-0.3346,-0.3053,-0.3303,-0.3622,-0.3756,-0.3769,-0.4166,-0.4287,-0.3935,-0.3943,-0.4287,-0.5377,-0.9096,-1.1856,-1.2868,-1.3651,-1.4038,-1.3822,-1.3755,-1.406,-1.4773,-1.5686,-1.6359,-1.6557,-1.5966,-1.5385,-1.5206,-1.43,-1.3528,-1.2962,-1.1997,-1.1141,-1.0573,-0.9446,-0.8803,-0.8292,-0.7598,-0.7098,-0.682,-0.6988,-0.7431,-0.7955,-0.7395,-0.6759,-0.6694,-0.6433,-0.6237,-0.6171,-0.6102,-0.5902,-0.5505,-0.537,-0.5038,-0.4504,-0.4438,-0.4435,-0.4375,-0.3985,-0.3597,-0.3531,-0.2937,-0.2338,-0.2327,-0.2905,-0.4156,-0.4292,-0.4421,-0.4361,-0.4227,-0.4295,-0.4298,-0.4432,-0.476,-0.5284,-0.6387,-0.8009,-0.9093,-1.0026,-1.1185,-1.2305,-1.3254,-1.4552,-1.5501,0.1953,0.3781,0.3576,0.4093,0.4565,0.4974,0.4819,0.5389,0.3146,0.4157,0.5893,0.3214,0.4069,0.4828,0.5343,0.4938,0.3736,-0.0444,-0.3402,-0.4267,-0.2644,-0.2193,-0.2696,-0.1695,-0.1655,-0.2216,-0.2221,-0.2287,-0.2258,-0.1402,-0.102,-0.1025,-0.0409,-0.0045,0.0,-0.0412,-0.0603,-0.07,-0.1224,-0.1444,-0.1323,-0.1388,-0.1634,-0.1992,-0.3455,-0.5376,-0.7783,-0.9004,-0.9987,-1.0524,-1.0532,-1.083,-1.1559,-1.2486,-1.3011,-1.3125,-1.3543,-1.3519,-1.3036,-1.2793,-1.1858,-1.0711,-1.0349,-0.9458,-0.8184,-0.7678,-0.7279,-0.6481,-0.5771,-0.4989,-0.4257,-0.3597,-0.4056,-0.5886,-0.5173,-0.432,-0.4058,-0.3338,-0.2811,-0.3076,-0.3274,-0.2811,-0.2744,-0.2804,-0.2669,-0.2401,-0.2335,-0.2267,-0.2199,-0.2068,-0.2406,-0.2272,-0.1403,-0.0534,0.0067,0.0468,-0.0801,-0.1735,-0.1999,-0.2131,-0.1928,-0.1926,-0.1793,-0.1925,-0.2517,-0.3041,-0.4235,-0.573,-0.6387,-0.7338,-0.8493,-0.9586,-1.0609,-1.1662,-1.2726,1.882,1.7979,1.8156,1.7582,1.6817,1.7462,1.8251,1.9008,1.8552,1.8477,1.8178,1.7192,1.6085,1.4802,1.4364,1.3731,1.2867,1.0052,0.6532,0.3043,0.4069,0.4263,0.337,0.3242,0.2387,0.1134,0.1354,0.1544,0.1653,0.2301,0.2659,0.2658,0.2706,0.2756,0.2743,0.244,0.2305,0.2467,0.2135,0.2047,0.2266,0.2049,0.1618,0.1128,0.0947,-0.0048,-0.2044,-0.5451,-0.7144,-0.7095,-0.7026,-0.7488,-0.8435,-0.884,-0.9655,-1.0766,-1.0252,-1.0127,-1.0316,-0.9838,-0.9134,-0.7965,-0.7321,-0.6412,-0.5373,-0.4785,-0.4328,-0.3995,-0.3671,-0.3338,-0.3006,-0.2274,-0.2404,-0.373,-0.3403,-0.3004,-0.2869,-0.2741,-0.2744,-0.2678,-0.2678,-0.2207,-0.1136,-0.0802,-0.0401,0.0534,0.0735,0.0802,0.0868,0.0601,0.1002,0.1069,0.1471,0.1203,0.1671,0.1939,0.1403,0.0601,0.0334,-0.0134,0.0067,0.02,0.0401,0.0267,-0.0333,-0.1062,-0.2255,-0.3181,-0.3833,-0.4757,-0.5849,-0.6823,-0.7683,-0.8753,-0.9974,2.6408,2.5785,2.6012,2.557,2.4795,2.5578,2.6215,2.6765,2.68,2.6397,2.5529,2.4469,2.3309,2.1823,2.0879,2.0159,1.9417,1.8013,1.5053,1.1103,0.966,0.9129,0.7904,0.7413,0.6288,0.4968,0.5291,0.5488,0.5316,0.5659,0.5848,0.5788,0.5654,0.5494,0.5363,0.5363,0.5365,0.5413,0.524,0.5273,0.5363,0.5157,0.4773,0.4477,0.4482,0.4028,0.2863,-0.026,-0.2611,-0.3579,-0.4069,-0.4546,-0.5046,-0.5673,-0.663,-0.7436,-0.7423,-0.7095,-0.7186,-0.7104,-0.6408,-0.5349,-0.4907,-0.4458,-0.3597,-0.2737,-0.2138,-0.1737,-0.1335,-0.1067,-0.0668,-0.0201,-0.0134,-0.0601,-0.1002,-0.1003,-0.0868,-0.0668,-0.0601,-0.0467,-0.0534,-0.0067,0.0668,0.1069,0.1403,0.2476,0.2678,0.2678,0.2678,0.2544,0.2744,0.2744,0.2409,0.2476,0.3009,0.3211,0.3347,0.3009,0.2674,0.2139,0.1805,0.1805,0.1872,0.1737,0.1332,0.1133,0.0133,-0.0597,-0.1322,-0.2315,-0.3241,-0.4295,-0.5274,-0.64,-0.7599,2.6322,2.7946,2.8224,2.8176,2.8172,2.8704,2.8929,2.8895,2.7988,2.7619,2.7294,2.6072,2.5441,2.5551,2.4306,2.3892,2.4139,2.2412,2.1084,1.9023,1.6014,1.2863,1.1271,1.0857,0.9911,0.8947,0.9307,0.9375,0.8781,0.87,0.8587,0.8482,0.8443,0.8253,0.8072,0.8362,0.8322,0.8157,0.8064,0.8061,0.8178,0.7678,0.7582,0.7756,0.7333,0.7014,0.6696,0.5423,0.3123,-0.0218,-0.1458,-0.1655,-0.1568,-0.2803,-0.3671,-0.3955,-0.4606,-0.4362,-0.4102,-0.4336,-0.4085,-0.2642,-0.2915,-0.3328,-0.2068,-0.1133,-0.0466,0.0133,0.0733,0.1467,0.2139,0.2474,0.2473,0.2676,0.1672,0.1471,0.2409,0.2409,0.2007,0.2207,0.2611,0.2678,0.2542,0.2676,0.2811,0.3013,0.3147,0.3211,0.3409,0.3606,0.3209,0.3407,0.4,0.4331,0.5058,0.5061,0.5193,0.5193,0.48,0.4204,0.3544,0.3345,0.3078,0.3009,0.3009,0.2809,0.2471,0.1596,0.1062,0.0398,-0.0663,-0.1859,-0.2986,-0.3972,-0.4963,2.8363,2.9229,2.9437,2.9528,2.9582,2.9907,3.0037,3.0013,2.9691,2.9098,2.8729,2.8349,2.7499,2.6885,2.6556,2.6149,2.5568,2.4764,2.3966,2.3209,2.174,1.847,1.5569,1.4332,1.3423,1.2394,1.2406,1.2197,1.1673,1.1579,1.1504,1.1497,1.126,1.1094,1.1039,1.0919,1.0984,1.094,1.0379,1.0484,1.0754,0.9839,0.9562,1.0015,0.9675,0.9257,0.8833,0.8178,0.6395,0.3276,0.2211,0.1615,0.1231,0.0231,-0.0597,-0.1043,-0.1254,-0.1409,-0.1114,-0.1254,-0.0793,0.0066,0.0,0.0333,0.1202,0.1468,0.1803,0.2007,0.2272,0.2539,0.2874,0.3403,0.3931,0.4334,0.3403,0.2609,0.2744,0.2678,0.2678,0.2678,0.2811,0.3145,0.3611,0.388,0.4079,0.455,0.4749,0.4875,0.513,0.5325,0.5256,0.624,0.6833,0.6837,0.6967,0.7037,0.7102,0.7172,0.6846,0.6256,0.547,0.4815,0.4348,0.3882,0.4148,0.4148,0.3808,0.3259,0.2996,0.2661,0.1995,0.0797,-0.0266,-0.1329,-0.2259,2.9302,2.971,2.9924,2.9997,3.004,3.0302,3.0398,3.0302,2.9987,2.9629,2.9212,2.8906,2.8519,2.8067,2.802,2.7918,2.7587,2.6962,2.6358,2.5629,2.4249,2.1875,1.9426,1.8189,1.7097,1.5763,1.551,1.5177,1.4699,1.4395,1.4247,1.4159,1.4016,1.3751,1.3271,1.3617,1.3379,1.3051,1.2665,1.2752,1.2884,1.1953,1.1816,1.2125,1.2021,1.1696,1.1172,1.0927,0.9358,0.6717,0.5247,0.4436,0.3999,0.3062,0.2408,0.1994,0.2051,0.2303,0.2621,0.2443,0.2642,0.3241,0.3243,0.3247,0.3718,0.4053,0.4323,0.4383,0.4656,0.4857,0.4985,0.5377,0.584,0.624,0.5515,0.4599,0.3946,0.388,0.3816,0.388,0.4207,0.4532,0.5067,0.5397,0.5866,0.6334,0.6531,0.6724,0.6976,0.7242,0.7432,0.7957,0.8221,0.7892,0.7757,0.7827,0.7887,0.8091,0.8156,0.7702,0.712,0.6338,0.587,0.547,0.5484,0.5422,0.5266,0.5055,0.4722,0.4389,0.4066,0.3398,0.2196,0.0999,0.0067,2.9589,2.9799,2.9988,3.0048,3.0117,3.0321,3.0417,3.0275,2.9756,2.9437,2.9321,2.8717,2.8946,2.9338,2.9203,2.9443,2.9808,2.8836,2.8422,2.749,2.6118,2.4224,2.3096,2.1231,2.0091,1.8878,1.8604,1.7961,1.7313,1.6814,1.6606,1.6443,1.6472,1.6045,1.5475,1.5923,1.5708,1.4915,1.4839,1.4928,1.4799,1.4174,1.3916,1.4302,1.3917,1.3734,1.3548,1.3439,1.2291,0.957,0.781,0.6866,0.6587,0.5682,0.5115,0.497,0.5112,0.5627,0.6423,0.5799,0.5799,0.6331,0.5933,0.5607,0.5679,0.6147,0.6481,0.6416,0.7483,0.7493,0.7757,0.8021,0.7957,0.7957,0.7957,0.7246,0.6145,0.569,0.569,0.569,0.6396,0.6719,0.7046,0.7437,0.7892,0.7181,0.7447,0.7637,0.7897,0.8091,0.8285,0.8672,0.8672,0.8484,0.8415,0.8415,0.8544,0.8672,0.8807,0.8613,0.8415,0.7827,0.7502,0.7242,0.6793,0.6793,0.6981,0.6772,0.6392,0.6244,0.5975,0.5245,0.438,0.3057,0.1994,3.0051,3.0337,3.0375,3.0412,3.0475,3.0544,3.0544,3.0537,3.0344,3.0202,3.0256,3.014,3.0139,3.0261,3.0166,3.0239,3.0158,2.978,2.9561,2.9266,2.8951,2.8104,2.6517,2.3675,2.1587,2.1004,2.0214,1.9526,1.9037,1.8817,1.855,1.8303,1.8212,1.7979,1.7517,1.7556,1.7625,1.7196,1.6887,1.7124,1.7361,1.6372,1.5954,1.6392,1.5421,1.4677,1.4505,1.4492,1.432,1.3302,1.104,0.9131,0.8674,0.7533,0.707,0.7169,0.7235,0.7684,0.8292,0.8099,0.7787,0.8531,0.8099,0.7418,0.7414,0.7673,0.7747,0.7752,0.7887,0.8415,0.8941,0.9005,0.9005,0.9005,0.9011,0.8619,0.7707,0.7377,0.7312,0.7377,0.7507,0.7697,0.7702,0.7897,0.8156,0.8027,0.8221,0.8415,0.8678,0.9005,0.9198,0.9448,0.9761,0.9691,0.9697,0.9633,0.957,0.9448,0.9454,0.959,0.9321,0.904,0.8598,0.8187,0.7767,0.7907,0.8093,0.8103,0.7663,0.7746,0.7777,0.6994,0.6141,0.4995,0.4273,3.0189,3.0448,3.0492,3.0529,3.0568,3.0591,3.0606,3.0606,3.0616,3.0606,3.0627,3.0681,3.0666,3.0619,3.0619,3.0544,3.0405,3.0324,3.0194,2.9904,2.9574,2.9326,2.8858,2.6063,2.3967,2.3712,2.2485,2.1579,2.0989,2.0398,1.9993,1.9875,1.9797,1.9531,1.9221,1.9287,1.9148,1.8711,1.8489,1.8708,1.9011,1.8303,1.7723,1.8067,1.7242,1.6773,1.6829,1.6483,1.6539,1.6044,1.4237,1.2326,1.1622,1.0695,1.0177,1.0026,1.0133,1.0342,1.0746,1.0662,1.06,1.0892,1.0537,1.0418,1.0236,1.0046,0.9799,0.9679,0.9564,0.9454,0.9849,0.9919,0.9913,0.9913,0.9919,0.9652,0.9256,0.8544,0.8027,0.8091,0.8291,0.8549,0.8613,0.8807,0.9128,0.9384,0.9448,0.9646,0.9646,0.9913,1.004,1.0288,1.085,1.1031,1.1038,1.0975,1.0724,1.0478,1.0168,1.0296,1.0328,0.9965,0.9539,0.9196,0.8864,0.8717,0.8832,0.8838,0.892,0.8898,0.8744,0.8443,0.7936,0.6973,0.6535,3.0194,3.0402,3.0474,3.0525,3.0544,3.0618,3.0677,3.0658,3.0638,3.0677,3.0661,3.0701,3.0729,3.0668,3.0687,3.0675,3.0593,3.0544,3.0432,3.0279,2.9735,2.9645,2.9292,2.8033,2.6891,2.6489,2.4773,2.3641,2.2604,2.1979,2.1493,2.1236,2.1131,2.0717,2.0505,2.0651,2.0487,1.9871,1.994,2.0246,2.0444,2.0055,1.985,1.9473,1.9127,1.8904,1.8791,1.8602,1.849,1.8549,1.7472,1.6322,1.5269,1.4141,1.3543,1.2814,1.2726,1.2789,1.2716,1.281,1.2749,1.3122,1.2879,1.2879,1.2626,1.2128,1.1757,1.1578,1.1337,1.0975,1.0989,1.1045,1.1052,1.0989,1.0989,1.0996,1.0737,0.9564,0.9169,0.8678,0.9134,0.946,0.9652,0.9843,1.0295,1.0618,1.0751,1.0814,1.0807,1.0926,1.1108,1.1296,1.1779,1.1958,1.1965,1.1965,1.1779,1.1567,1.1129,1.1191,1.1444,1.1565,1.1269,1.0437,1.0042,0.9916,0.9854,0.9982,1.0049,1.0001,0.9856,0.9651,0.9323,0.8936,0.8655,3.0393,3.0487,3.0552,3.0607,3.0664,3.0801,3.084,3.0856,3.084,3.0859,3.0859,3.0859,3.0859,3.082,3.0723,3.0664,3.0613,3.0569,3.0516,3.0472,3.0139,3.0139,2.9832,2.9497,2.9091,2.8519,2.6868,2.4999,2.3859,2.3502,2.3113,2.2203,2.2073,2.1751,2.1341,2.1039,2.1484,2.1374,2.1503,2.1863,2.2433,2.2415,2.1934,2.1302,2.066,2.0259,2.0105,1.9948,1.9979,2.032,1.974,1.9179,1.8226,1.6181,1.4805,1.4216,1.4119,1.4259,1.4186,1.3597,1.3537,1.3666,1.3657,1.3235,1.3122,1.294,1.287,1.2634,1.2573,1.252,1.2581,1.2336,1.252,1.252,1.2458,1.2397,1.2336,1.195,1.119,1.0395,1.0415,1.0491,1.073,1.0856,1.1045,1.1358,1.1483,1.1538,1.1593,1.1965,1.2397,1.252,1.2704,1.2826,1.2826,1.2818,1.2704,1.2583,1.2344,1.2299,1.2641,1.3322,1.3165,1.2217,1.1472,1.1235,1.124,1.1175,1.1217,1.1165,1.1034,1.0889,1.0896,1.0829,1.0074,3.0417,3.0467,3.0564,3.0605,3.0664,3.084,3.0918,3.0918,3.0918,3.0918,3.0918,3.0918,3.0918,3.0879,3.084,3.0742,3.0654,3.0626,3.0584,3.0548,3.0502,3.0432,3.0266,3.0234,2.9775,2.9235,2.8237,2.7124,2.5619,2.5267,2.475,2.4199,2.3911,2.3722,2.3454,2.3522,2.3294,2.3333,2.304,2.3257,2.4147,2.4227,2.3745,2.307,2.2554,2.2264,2.2169,2.1847,2.2061,2.2293,2.1764,2.1164,2.0231,1.9041,1.7261,1.6182,1.5857,1.5877,1.5918,1.5553,1.5668,1.585,1.5496,1.5168,1.4827,1.4523,1.393,1.3295,1.3009,1.3009,1.2948,1.3061,1.3009,1.3009,1.307,1.307,1.307,1.307,1.2581,1.1965,1.1965,1.1965,1.1903,1.1965,1.1911,1.2035,1.2212,1.2328,1.2443,1.2879,1.3364,1.3373,1.3433,1.3606,1.3606,1.3606,1.3545,1.3432,1.347,1.3446,1.3615,1.4195,1.4295,1.3846,1.3254,1.2944,1.22,1.2066,1.2221,1.2443,1.2322,1.2291,1.2713,1.2608,1.1857,3.0398,3.0398,3.0525,3.0571,3.0601,3.0781,3.0859,3.0859,3.0879,3.0918,3.0918,3.0918,3.0918,3.0898,3.0879,3.082,3.0723,3.0717,3.0665,3.0598,3.0595,3.0565,3.0525,3.0436,3.0107,2.962,2.9603,2.9217,2.7392,2.6765,2.6245,2.565,2.5672,2.5636,2.5384,2.5095,2.5376,2.5129,2.4596,2.453,2.5213,2.548,2.5306,2.4713,2.456,2.4377,2.4115,2.3779,2.3771,2.3815,2.3353,2.2553,2.202,2.1445,2.0268,1.8626,1.8047,1.7797,1.7512,1.7401,1.7169,1.718,1.7468,1.7191,1.68,1.5955,1.5303,1.4227,1.3828,1.3957,1.4076,1.3657,1.3606,1.3606,1.3606,1.3554,1.3674,1.3734,1.3795,1.3485,1.3485,1.3252,1.3017,1.2642,1.2458,1.2642,1.2818,1.3183,1.3304,1.3666,1.3974,1.3974,1.4094,1.4332,1.4451,1.4451,1.4332,1.4172,1.4284,1.4364,1.4533,1.4824,1.4816,1.503,1.5523,1.5086,1.4018,1.315,1.3509,1.3715,1.3654,1.3685,1.3939,1.3942,1.3473,3.0398,3.0398,3.0487,3.0532,3.053,3.0668,3.0723,3.0742,3.084,3.0898,3.0918,3.0918,3.0918,3.0918,3.0918,3.0898,3.084,3.0742,3.0684,3.0646,3.0623,3.0586,3.0524,3.0564,3.0463,3.0079,3.0278,2.9212,2.814,2.7849,2.7372,2.6738,2.6436,2.5997,2.6157,2.6161,2.5729,2.6007,2.6224,2.6634,2.711,2.6919,2.6551,2.6202,2.5826,2.5491,2.5289,2.5088,2.5121,2.5016,2.4436,2.3781,2.3273,2.2671,2.1736,2.0455,1.9334,1.8286,1.795,1.795,1.8004,1.8058,1.7841,1.7567,1.739,1.7291,1.6935,1.7169,1.6394,1.5891,1.5661,1.5381,1.5225,1.5099,1.5089,1.5089,1.5099,1.5061,1.507,1.507,1.5061,1.4332,1.3769,1.3321,1.3009,1.3243,1.3545,1.3965,1.4264,1.4678,1.4628,1.4579,1.4579,1.4874,1.4932,1.4932,1.4874,1.4756,1.4911,1.5176,1.5441,1.5575,1.5806,1.61,1.6711,1.6784,1.5591,1.4993,1.5043,1.4898,1.4735,1.487,1.4985,1.4919,1.5002,3.0398,3.0398,3.0467,3.0487,3.0502,3.0607,3.0669,3.0723,3.0762,3.082,3.0898,3.0918,3.0918,3.0918,3.0918,3.0918,3.0859,3.0762,3.0742,3.0723,3.0683,3.0642,3.0625,3.0598,3.0565,3.0577,3.0428,3.0182,2.9235,2.9007,2.8798,2.8334,2.8038,2.8,2.7479,2.7567,2.7501,2.7461,2.7424,2.7359,2.73,2.728,2.7261,2.7261,2.6867,2.6672,2.6605,2.6472,2.6404,2.6232,2.5684,2.476,2.402,2.3344,2.252,2.1411,2.0779,2.0117,1.9581,1.9426,1.931,1.9218,1.902,1.8715,1.8274,1.7907,1.7688,1.7578,1.7302,1.7146,1.709,1.6856,1.6743,1.6631,1.6415,1.6472,1.6472,1.6631,1.662,1.6631,1.657,1.5946,1.5497,1.5321,1.5155,1.5079,1.5439,1.5803,1.5928,1.5948,1.568,1.5235,1.5235,1.5294,1.5294,1.5294,1.5235,1.5118,1.5137,1.5489,1.61,1.6373,1.6589,1.6915,1.7406,1.7248,1.6724,1.6358,1.5992,1.5939,1.5878,1.6009,1.6201,1.6669,1.6519,3.0398,3.0398,3.0467,3.0467,3.0487,3.0544,3.0593,3.0645,3.0684,3.0762,3.084,3.0879,3.0918,3.0918,3.0918,3.0918,3.0879,3.0801,3.0801,3.0801,3.0774,3.073,3.0795,3.078,3.0972,3.0857,3.091,3.0782,3.0676,3.0308,2.9867,2.9782,2.927,2.9246,2.9277,2.8993,2.87,2.839,2.8242,2.795,2.7665,2.7715,2.7837,2.7862,2.7794,2.7678,2.7811,2.7589,2.7409,2.7049,2.6657,2.5809,2.4862,2.4402,2.3685,2.2774,2.2309,2.2076,2.1479,2.1121,2.1064,2.0832,2.0396,1.967,1.9032,1.8394,1.8178,1.834,1.795,1.7907,1.7852,1.7677,1.7413,1.7357,1.7413,1.7578,1.7678,1.7679,1.77,1.763,1.7739,1.8109,1.7763,1.769,1.7435,1.7148,1.7322,1.7611,1.7413,1.709,1.6539,1.5979,1.5816,1.57,1.541,1.542,1.542,1.5517,1.5537,1.5811,1.6422,1.6889,1.7212,1.7656,1.8162,1.8114,1.7813,1.7335,1.6922,1.6886,1.6945,1.7257,1.7569,1.793,1.7852,3.0398,3.0398,3.0398,3.0417,3.0417,3.0487,3.051,3.0559,3.0648,3.0703,3.0781,3.0898,3.1016,3.1016,3.1152,3.1152,3.0976,3.0898,3.1055,3.1016,3.0856,3.1066,3.1262,3.1612,3.1862,3.18,3.1705,3.1775,3.1698,3.1027,3.0469,3.0003,2.9855,2.9626,2.9474,2.9373,2.916,2.8915,2.8773,2.8773,2.8627,2.8621,2.8565,2.8368,2.8316,2.821,2.7954,2.788,2.7736,2.7439,2.7161,2.669,2.579,2.5491,2.4815,2.4045,2.3842,2.3603,2.3157,2.2257,2.1649,2.1472,2.1051,2.0497,1.9914,1.9786,1.9631,1.9554,1.9258,1.8903,1.8584,1.8112,1.8221,1.8221,1.8352,1.8282,1.8409,1.8563,1.8589,1.8578,1.8874,1.9345,1.9622,1.9425,1.8885,1.8532,1.8225,1.8507,1.7929,1.7578,1.7146,1.6708,1.6436,1.6093,1.5584,1.5526,1.5642,1.5771,1.5822,1.6226,1.6727,1.7194,1.757,1.8415,1.8911,1.8911,1.8911,1.8556,1.822,1.7988,1.794,1.7862,1.7794,1.794,1.8008,3.1198,3.1141,3.0629,3.0436,3.0467,3.0487,3.0544,3.0637,3.069,3.0759,3.084,3.1387,3.168,3.1777,3.2266,3.2441,3.2441,3.2441,3.2344,3.2402,3.2402,3.2402,3.2539,3.2519,3.2749,3.2682,3.2628,3.2327,3.1994,3.1802,3.168,3.1216,3.0517,2.9934,2.9748,2.9663,2.936,2.9126,2.9035,2.8994,2.8952,2.8749,2.8658,2.8773,2.8471,2.8515,2.8507,2.8334,2.8156,2.7918,2.7542,2.6967,2.6437,2.6193,2.5656,2.4932,2.4918,2.476,2.4343,2.323,2.2193,2.1697,2.1472,2.121,2.0868,2.0966,2.0953,2.089,2.0631,2.0268,2.0406,1.9965,1.9697,1.9478,1.9344,1.9226,1.9275,1.9543,1.9865,2.0011,2.0406,2.0815,2.1015,2.1052,2.0421,1.9839,1.9591,1.9239,1.8724,1.829,1.792,1.7379,1.709,1.6782,1.629,1.6087,1.5941,1.6163,1.6396,1.6972,1.747,1.7209,1.7704,1.874,1.9552,1.9562,1.9628,1.9694,1.9309,1.8529,1.8134,1.8008,1.8008,1.8008,1.8008,3.2083,3.2038,3.1422,3.0864,3.0498,3.0479,3.0546,3.0641,3.0691,3.0773,3.0957,3.1797,3.2187,3.2422,3.2969,3.3301,3.3242,3.3262,3.332,3.3281,3.3242,3.3379,3.3457,3.3574,3.3665,3.3596,3.3506,3.325,3.3359,3.3045,3.3026,3.2641,3.1698,3.1097,3.0763,3.034,2.9903,2.9566,2.9389,2.9182,2.9044,2.8773,2.8682,2.8929,2.8707,2.8725,2.8815,2.8682,2.8515,2.8237,2.7833,2.7282,2.6821,2.6386,2.6035,2.5746,2.5524,2.5465,2.5089,2.4343,2.3084,2.2548,2.2651,2.2287,2.1908,2.1835,2.1883,2.1554,2.1602,2.1697,2.1697,2.1073,2.062,2.037,2.0884,2.0862,2.0721,2.0857,2.1188,2.1512,2.185,2.2035,2.2072,2.2051,2.1514,2.0888,2.0587,2.0189,1.9726,1.9275,1.8887,1.8294,1.7688,1.7412,1.7127,1.7156,1.7305,1.7643,1.7878,1.8184,1.8415,1.8171,1.8622,2.0028,2.059,2.0333,2.0333,2.0398,1.9694,1.8721,1.8462,1.8202,1.8008,1.8008,1.8008,3.2961,3.3051,3.2856,3.1881,3.0675,3.0537,3.0629,3.0867,3.0895,3.1015,3.1289,3.2051,3.2422,3.2637,3.3457,3.3809,3.3828,3.373,3.3711,3.3809,3.3926,3.3633,3.3828,3.4219,3.459,3.4512,3.4438,3.4615,3.5051,3.3968,3.4071,3.4372,3.35,3.2541,3.2473,3.1957,3.1318,3.066,3.0323,2.9829,2.9504,2.9324,2.9318,2.9153,2.9313,2.9405,2.9185,2.9167,2.9004,2.8724,2.8344,2.79,2.7459,2.7043,2.6793,2.6656,2.6189,2.6013,2.5924,2.5411,2.453,2.3563,2.3585,2.3361,2.233,2.2213,2.251,2.2221,2.1979,2.1885,2.1791,2.1752,2.1533,2.1564,2.2114,2.221,2.2035,2.1957,2.23,2.2311,2.2686,2.3002,2.3002,2.2937,2.241,2.1951,2.1631,2.1137,2.054,2.0147,1.9653,1.9126,1.8445,1.8336,1.8227,1.8419,1.8609,1.9048,1.9291,1.9459,1.9678,1.9657,2.0355,2.153,2.1428,2.0974,2.1037,2.1164,2.0462,1.9748,1.8787,1.8395,1.8202,1.8076,1.8202,3.3872,3.3962,3.3296,3.2726,3.2274,3.2297,3.2338,3.242,3.2475,3.25,3.2734,3.3476,3.3867,3.4101,3.459,3.5,3.5059,3.5137,3.5117,3.5098,3.5078,3.5137,3.5234,3.5351,3.5508,3.5469,3.5392,3.5349,3.5391,3.4757,3.4872,3.5155,3.4757,3.3892,3.287,3.224,3.1863,3.1615,3.1281,3.093,3.082,3.0609,3.0307,2.9843,3.0228,3.0252,2.9843,2.9806,2.9655,2.946,2.9115,2.8806,2.8393,2.7993,2.7739,2.7403,2.689,2.647,2.6436,2.6123,2.5508,2.4806,2.4273,2.4096,2.3142,2.3141,2.3126,2.3052,2.2963,2.2949,2.298,2.3019,2.2937,2.2949,2.3168,2.3103,2.3003,2.301,2.3102,2.2941,2.3113,2.3283,2.3356,2.376,2.3463,2.2994,2.2604,2.1643,2.0899,2.0611,2.0225,1.9765,1.9281,1.9262,1.9289,1.9561,1.9645,1.9817,2.019,2.0556,2.0699,2.0922,2.1424,2.2187,2.1939,2.1678,2.1865,2.1928,2.1553,2.091,2.0074,1.911,1.8529,1.8529,1.8654,3.4762,3.4834,3.4265,3.4051,3.4026,3.3492,3.3308,3.3379,3.3379,3.3379,3.3555,3.4277,3.4648,3.4902,3.5547,3.6016,3.6016,3.5996,3.6328,3.6367,3.6445,3.6387,3.6445,3.6641,3.6445,3.6348,3.645,3.6528,3.5684,3.592,3.5809,3.5565,3.5488,3.4779,3.3884,3.3513,3.3126,3.2808,3.2302,3.1821,3.1671,3.1455,3.1175,3.0949,3.1022,3.1199,3.079,3.0577,3.0485,3.0295,3.0075,2.9764,2.9347,2.8898,2.8728,2.8401,2.786,2.752,2.7521,2.6776,2.6277,2.6038,2.5377,2.4678,2.4249,2.4396,2.4251,2.4191,2.4157,2.4249,2.4238,2.429,2.418,2.4185,2.4509,2.4437,2.3986,2.3987,2.4229,2.4032,2.3754,2.3865,2.3968,2.4313,2.4526,2.4045,2.3606,2.2552,2.1521,2.1251,2.0999,2.0466,2.0333,2.0447,2.0584,2.0876,2.0875,2.0641,2.1033,2.156,2.1801,2.1993,2.2445,2.2763,2.2506,2.2433,2.2689,2.2628,2.2187,2.1928,2.1604,2.0515,1.9177,1.911,1.9431,3.5622,3.5694,3.5694,3.5701,3.5559,3.4168,3.3537,3.3535,3.3555,3.3574,3.3613,3.4609,3.5,3.5,3.5703,3.6055,3.6016,3.6016,3.6504,3.6973,3.7051,3.7168,3.7519,3.7891,3.7441,3.7109,3.707,3.706,3.6075,3.6315,3.6213,3.5738,3.5666,3.5345,3.51,3.491,3.4566,3.4124,3.3636,3.3203,3.2962,3.2484,3.2199,3.1978,3.1941,3.1932,3.1647,3.1452,3.1078,3.0844,3.0755,3.0405,2.9944,2.9397,2.9745,2.966,2.9015,2.885,2.8578,2.7641,2.7515,2.7438,2.6839,2.5782,2.5274,2.5512,2.5342,2.5213,2.5222,2.5375,2.55,2.5303,2.5106,2.5538,2.6087,2.5705,2.5103,2.5089,2.545,2.5384,2.5106,2.5089,2.532,2.556,2.5522,2.5046,2.4584,2.4006,2.3109,2.2342,2.1937,2.1335,2.1355,2.1725,2.1888,2.1878,2.2182,2.2043,2.22,2.2625,2.2822,2.2859,2.2859,2.2944,2.3065,2.3065,2.3005,2.2944,2.2763,2.2567,2.2372,2.1542,2.0074,2.0268,2.0515,3.5647,3.5842,3.5735,3.5783,3.581,3.5347,3.5183,3.5254,3.5234,3.5254,3.5293,3.6172,3.6035,3.5742,3.6543,3.6426,3.625,3.6133,3.6601,3.7051,3.7578,3.7793,3.8125,3.8476,3.8223,3.7891,3.7683,3.7622,3.7344,3.7223,3.6329,3.568,3.5968,3.5897,3.5844,3.5969,3.5863,3.5675,3.5135,3.483,3.4697,3.4505,3.389,3.3283,3.319,3.3067,3.2692,3.2373,3.2065,3.1983,3.2023,3.18,3.1387,3.1204,3.1272,3.0272,2.9876,2.9688,2.9435,2.9007,2.8784,2.871,2.8053,2.7412,2.6775,2.6522,2.6414,2.6178,2.6409,2.6659,2.6642,2.6479,2.6471,2.6888,2.73,2.7094,2.6462,2.6217,2.6505,2.6094,2.5823,2.6018,2.6272,2.6551,2.6443,2.6018,2.555,2.5121,2.4485,2.3698,2.3124,2.2485,2.2316,2.2654,2.2533,2.2477,2.304,2.3453,2.3339,2.3299,2.345,2.3424,2.3201,2.3125,2.3125,2.3125,2.3065,2.3005,2.2884,2.2944,2.2811,2.1928,2.129,2.1416,2.1353,3.5314,3.5737,3.5795,3.5847,3.5977,3.6231,3.6407,3.6445,3.6152,3.6016,3.6074,3.6484,3.666,3.6562,3.6699,3.6816,3.7148,3.6836,3.7226,3.832,3.8223,3.8691,3.9004,3.9043,3.8594,3.8281,3.791,3.765,3.7482,3.6914,3.6065,3.6719,3.668,3.6199,3.6147,3.6435,3.6839,3.6734,3.6568,3.65,3.6482,3.6369,3.5344,3.4659,3.4609,3.4135,3.3705,3.3375,3.3118,3.2914,3.2889,3.2792,3.2492,3.2465,3.2169,3.1332,3.1017,3.0969,3.0775,2.9916,2.9886,2.9723,2.9168,2.8843,2.858,2.8323,2.7551,2.6967,2.7574,2.7996,2.7846,2.7758,2.8021,2.8273,2.8342,2.845,2.7951,2.747,2.7027,2.6573,2.6539,2.6761,2.7039,2.7357,2.7452,2.7185,2.6755,2.6226,2.5628,2.486,2.4363,2.3886,2.3646,2.3576,2.336,2.3132,2.3416,2.3669,2.3349,2.3397,2.3796,2.3733,2.3321,2.3185,2.3125,2.3125,2.3245,2.3125,2.3065,2.3125,2.3138,2.258,2.2199,2.2249,2.2113,3.4807,3.5617,3.5795,3.5888,3.6061,3.6646,3.6964,3.7104,3.6387,3.6133,3.6172,3.625,3.6777,3.7051,3.7129,3.7559,3.7793,3.7676,3.8144,3.9824,3.9512,3.9687,3.9902,3.9941,3.9492,3.8555,3.8047,3.8151,3.6712,3.6447,3.7083,3.8007,3.6887,3.6334,3.6589,3.7142,3.7603,3.7867,3.7488,3.7196,3.7426,3.7048,3.6329,3.5875,3.5477,3.502,3.4676,3.4317,3.3906,3.3571,3.3395,3.3449,3.329,3.3221,3.2866,3.2591,3.2252,3.2188,3.1916,3.1132,3.1043,3.0768,3.0257,3.0085,2.9926,2.9459,2.8563,2.8076,2.8563,2.8679,2.8575,2.8903,2.9225,2.9226,2.923,2.9164,2.8779,2.8401,2.8112,2.772,2.7565,2.7786,2.8041,2.8378,2.8238,2.8218,2.7897,2.7291,2.6791,2.6008,2.5411,2.508,2.4929,2.4608,2.4165,2.3955,2.3839,2.3752,2.3535,2.3735,2.4258,2.397,2.339,2.359,2.3813,2.3484,2.3378,2.3305,2.3185,2.3125,2.315,2.3175,2.3055,2.2958,2.275,3.4743,3.5584,3.5661,3.5685,3.5803,3.658,3.6596,3.6154,3.6657,3.6855,3.709,3.7559,3.7695,3.75,3.8301,3.8769,3.8555,3.8594,3.9004,3.9668,4.0,4.0351,4.0703,4.0605,4.0371,4.0273,3.9766,3.8848,3.7942,3.7642,3.7423,3.7501,3.711,3.7385,3.7184,3.7858,3.8618,3.8777,3.8693,3.8454,3.8665,3.8546,3.8092,3.7015,3.6192,3.5732,3.5325,3.4811,3.4557,3.4363,3.4398,3.4226,3.3881,3.3836,3.3652,3.3424,3.325,3.3211,3.2913,3.2371,3.2257,3.1755,3.1324,3.1235,3.0928,3.0281,2.9799,2.9453,2.9309,2.9337,2.9471,2.9926,3.0277,3.0161,3.0064,2.9761,2.9496,2.9316,2.9088,2.8873,2.8701,2.8826,2.9046,2.914,2.8967,2.8778,2.8491,2.811,2.7864,2.7217,2.6279,2.5941,2.6023,2.5727,2.5175,2.4694,2.4518,2.4262,2.404,2.4327,2.4761,2.4543,2.4323,2.4496,2.4553,2.4221,2.3826,2.3424,2.3305,2.3305,2.3271,2.3356,2.3412,2.3292,2.319,3.4718,3.5565,3.6021,3.5951,3.5843,3.6547,3.6845,3.6832,3.6579,3.6975,3.7676,3.7988,3.8125,3.8164,3.916,3.9863,3.9492,3.9336,3.9824,4.0273,4.0449,4.0762,4.0976,4.0918,4.0488,4.0371,3.9746,3.9004,3.9004,3.8602,3.8194,3.8437,3.875,3.8326,3.8078,3.9032,3.9432,3.933,3.9638,3.9777,3.9719,3.9373,3.9008,3.7886,3.7302,3.6802,3.6372,3.591,3.5742,3.5627,3.5567,3.4771,3.4386,3.4218,3.4117,3.4,3.3887,3.3865,3.3652,3.34,3.3154,3.2563,3.21,3.1882,3.183,3.1232,3.0479,3.0163,3.033,3.0409,3.009,3.0337,3.0667,3.0707,3.0658,3.0477,3.0123,2.9848,2.954,2.9196,2.9196,2.9377,2.9697,3.0092,2.9853,2.9198,2.8919,2.8654,2.8463,2.814,2.721,2.6654,2.6654,2.6496,2.596,2.5481,2.5188,2.4872,2.4731,2.4891,2.5233,2.5269,2.5287,2.5397,2.53,2.4951,2.4496,2.415,2.3872,2.3884,2.3806,2.3667,2.3692,2.37,2.3586,3.4699,3.5584,3.6362,3.6323,3.5892,3.6689,3.7392,3.7757,3.6756,3.7104,3.8378,3.7969,3.8592,3.8984,3.9414,4.0195,4.0547,4.0234,4.0625,4.0898,4.1074,4.1094,4.0879,4.0605,4.0488,4.0215,3.9707,3.9824,4.0019,3.9434,3.9375,4.0293,3.9844,3.891,3.9414,3.9684,3.9727,3.987,4.01,4.0392,4.0181,3.9815,3.9431,3.9027,3.8623,3.8161,3.7698,3.7332,3.7063,3.6898,3.6616,3.5864,3.5318,3.5162,3.4992,3.4918,3.4675,3.4554,3.4278,3.3807,3.3522,3.316,3.2755,3.2494,3.2413,3.1916,3.1146,3.1099,3.1274,3.1009,3.0688,3.0666,3.1021,3.1185,3.1089,3.1032,3.0675,3.0459,3.0211,2.9802,2.9874,3.0092,3.0359,3.079,3.0452,2.9777,2.9422,2.9104,2.8779,2.8319,2.768,2.7225,2.7034,2.6826,2.6732,2.6247,2.584,2.5911,2.5811,2.5758,2.5841,2.6353,2.6477,2.6157,2.5979,2.5688,2.5398,2.5106,2.4894,2.4509,2.4465,2.4358,2.4149,2.4137,2.4115,3.4699,3.5507,3.5699,3.5661,3.5757,3.7084,3.7584,3.7377,3.8248,3.9026,3.9102,3.922,3.9219,3.8945,4.0332,4.1035,4.0976,4.084,4.0937,4.1172,4.1191,4.1191,4.1113,4.0879,4.0937,4.0723,4.0547,4.0801,4.0644,4.0019,3.9746,4.0156,4.0117,3.9687,3.9726,4.0059,4.0493,4.0516,4.0424,4.0646,4.062,4.0273,3.9873,3.9508,3.9142,3.8604,3.8127,3.7824,3.779,3.7728,3.75,3.69,3.6572,3.634,3.6217,3.5769,3.5525,3.5177,3.4848,3.4365,3.406,3.356,3.3146,3.2787,3.2563,3.2165,3.1769,3.1917,3.1845,3.1066,3.0781,3.1026,3.1309,3.1326,3.1286,3.1219,3.1009,3.1288,3.1399,3.1082,3.0889,3.1033,3.1122,3.1211,3.0931,3.0441,3.0287,2.9891,2.915,2.8638,2.8155,2.7745,2.7408,2.7876,2.8055,2.7035,2.658,2.6797,2.7013,2.7085,2.7348,2.7866,2.7876,2.749,2.6885,2.6465,2.6233,2.6167,2.5618,2.5287,2.5231,2.5102,2.4856,2.4813,2.4892]},{"header":{"parameterUnit":"m.s-1","parameterCategory":1,"la1":31.0,"la2":29.5877,"lo1":-88.7671,"lo2":-86.6584,"dy":0.0162,"dx":0.0185,"nx":115,"ny":88,"refTime":"2023-08-22T12:00:00:Z","depth":0,"parameterNumber":3,"parameterNumberName":"V-component_of_WINDS"},"data":[0.0,0.0,0.0,0.0,0.0,0.0,0.0,0.0,0.0,0.0,0.0,0.0,0.0,0.0,0.0,0.0,0.0,0.0,0.0,0.0,0.0,0.0,0.0,0.0,0.0,0.0,0.0,0.0,0.0,0.0,0.0,0.0,0.0,0.0,0.0,0.0,0.0,0.0,0.0,0.0,0.0,0.0,0.0,0.0,0.0,0.0,0.0,0.0,0.0,0.0,0.0,0.0,0.0,0.0,0.0,0.0,0.0,0.0,0.0,0.0,0.0,0.0,0.0,0.0,0.0,0.0,0.0,0.0,0.0,0.0,0.0,0.0,0.0,0.0,0.0,0.0,0.0,0.0,0.0,0.0,0.0,0.0,0.0,0.0,0.0,0.0,0.0,0.0,0.0,0.0,0.0,0.0,0.0,0.0,0.0,0.0,0.0,0.0,0.0,0.0,0.0,0.0,0.0,0.0,0.0,0.0,0.0,0.0,0.0,0.0,0.0,0.0,0.0,0.0,0.0,0.0,0.0,0.0,0.0,0.0,0.0,0.0,0.0,0.0,0.0,0.0,0.0,0.0,0.0,0.0,0.0,0.0,0.0,0.0,0.0,0.0,0.0,0.0,0.0,0.0,0.0,0.0,0.0,0.0,0.0,0.0,0.0,0.0,0.0,0.0,0.0,0.0,0.0,0.0,0.0,0.0,0.0,0.0,0.0,0.0,0.0,0.0,0.0,0.0,0.0,0.0,0.0,0.0,0.0,0.0,0.0,0.0,0.0,0.0,0.0,0.0,0.0,0.0,0.0,0.0,0.0,0.0,0.0,0.0,0.0,0.0,0.0,0.0,0.0,0.0,0.0,0.0,0.0,0.0,0.0,0.0,0.0,0.0,0.0,0.0,0.0,0.0,0.0,0.0,0.0,0.0,0.0,0.0,0.0,0.0,0.0,0.0,0.0,0.0,0.0,0.0,0.0,0.0,0.0,0.0,0.0,0.0,0.0,0.0,0.0,0.0,0.0,0.0,0.0,0.0,0.0,0.0,0.0,0.0,0.0,0.0,0.0,0.0,0.0,0.0,0.0,0.0,0.0,0.0,0.0,0.0,0.0,0.0,0.0,0.0,0.0,0.0,0.0,0.0,0.0,0.0,0.0,0.0,0.0,0.0,0.0,0.0,0.0,0.0,0.0,0.0,0.0,0.0,0.0,0.0,0.0,0.0,0.0,0.0,0.0,0.0,0.0,0.0,0.0,0.0,0.0,0.0,0.0,0.0,0.0,0.0,0.0,0.0,0.0,0.0,0.0,0.0,0.0,0.0,0.0,0.0,0.0,0.0,0.0,0.0,0.0,0.0,0.0,0.0,0.0,0.0,0.0,0.0,0.0,0.0,0.0,0.0,0.0,0.0,0.0,0.0,0.0,0.0,0.0,0.0,0.0,0.0,0.0,0.0,0.0,0.0,0.0,0.0,0.0,0.0,0.0,0.0,0.0,0.0,0.0,0.0,0.0,0.0,0.0,0.0,0.0,0.0,0.0,0.0,0.0,0.0,0.0,0.0,0.0,0.0,0.0,0.0,0.0,0.0,0.0,0.0,0.0,0.0,0.0,0.0,0.0,0.0,0.0,0.0,0.0,0.0,0.0,0.0,0.0,0.0,0.0,0.0,0.0,0.0,0.0,0.0,0.0,0.0,0.0,0.0,0.0,0.0,0.0,0.0,0.0,0.0,0.0,0.0,0.0,0.0,0.0,0.0,0.0,0.0,0.0,0.0,0.0,0.0,0.0,0.0,0.0,0.0,0.0,0.0,0.0,0.0,0.0,0.0,0.0,0.0,0.0,0.0,0.0,0.0,0.0,0.0,0.0,0.0,0.0,0.0,0.0,0.0,0.0,0.0,0.0,0.0,0.0,0.0,0.0,0.0,0.0,0.0,0.0,0.0,0.0,0.0,0.0,0.0,0.0,0.0,0.0,0.0,0.0,0.0,0.0,0.0,0.0,0.0,0.0,0.0,0.0,0.0,0.0,0.0,0.0,0.0,0.0,0.0,0.0,0.0,0.0,0.0,0.0,0.0,0.0,0.0,0.0,0.0,0.0,0.0,0.0,0.0,0.0,0.0,0.0,0.0,0.0,0.0,0.0,0.0,0.0,0.0,0.0,0.0,0.0,0.0,0.0,0.0,0.0,0.0,0.0,0.0,0.0,0.0,0.0,0.0,0.0,0.0,0.0,0.0,0.0,0.0,0.0,0.0,0.0,0.0,0.0,0.0,0.0,0.0,0.0,0.0,0.0,0.0,0.0,0.0,0.0,0.0,0.0,0.0,0.0,0.0,0.0,0.0,0.0,0.0,0.0,0.0,0.0,0.0,0.0,0.0,0.0,0.0,0.0,0.0,0.0,0.0,0.0,0.0,0.0,0.0,0.0,0.0,0.0,0.0,0.0,0.0,0.0,0.0,0.0,0.0,0.0,0.0,0.0,0.0,0.0,0.0,0.0,0.0,0.0,0.0,0.0,0.0,0.0,0.0,0.0,0.0,0.0,0.0,0.0,0.0,0.0,0.0,0.0,0.0,0.0,0.0,0.0,0.0,0.0,0.0,0.0,0.0,0.0,0.0,0.0,0.0,0.0,0.0,0.0,0.0,0.0,0.0,0.0,0.0,0.0,0.0,0.0,0.0,0.0,0.0,0.0,0.0,0.0,0.0,0.0,0.0,0.0,0.0,0.0,0.0,0.0,0.0,0.0,0.0,0.0,0.0,0.0,0.0,0.0,0.0,0.0,0.0,0.0,0.0,0.0,0.0,0.0,0.0,0.0,0.0,0.0,0.0,0.0,0.0,0.0,0.0,0.0,0.0,0.0,0.0,0.0,0.0,0.0,0.0,0.0,0.0,0.0,0.0,0.0,0.0,0.0,0.0,0.0,0.0,0.0,0.0,0.0,0.0,0.0,0.0,0.0,0.0,0.0,0.0,0.0,0.0,0.0,0.0,0.0,0.0,0.0,0.0,0.0,0.0,0.0,0.0,0.0,0.0,0.0,0.0,0.0,0.0,0.0,0.0,0.0,0.0,0.0,0.0,0.0,0.0,0.0,0.0,0.0,0.0,0.0,0.0,0.0,0.0,0.0,0.0,0.0,0.0,0.0,0.0,0.0,0.0,0.0,0.0,0.0,0.0,0.0,0.0,0.0,0.0,0.0,0.0,0.0,0.0,0.0,0.0,0.0,0.0,0.0,0.0,0.0,0.0,0.0,0.0,0.0,0.0,0.0,0.0,0.0,0.0,0.0,0.0,0.0,0.0,0.0,0.0,0.0,0.0,0.0,0.0,0.0,0.0,0.0,0.0,0.0,0.0,0.0,0.0,0.0,0.0,0.0,0.0,0.0,0.0,0.0,0.0,0.0,0.0,0.0,0.0,0.0,0.0,0.0,0.0,0.0,0.0,0.0,0.0,0.0,0.0,0.0,0.0,0.0,0.0,0.0,0.0,0.0,0.0,0.0,0.0,0.0,0.0,0.0,0.0,0.0,0.0,0.0,0.0,0.0,0.0,0.0,0.0,0.0,0.0,0.0,0.0,0.0,0.0,0.0,0.0,0.0,0.0,0.0,0.0,0.0,0.0,0.0,0.0,0.0,0.0,0.0,0.0,0.0,0.0,0.0,0.0,0.0,0.0,0.0,0.0,0.0,0.0,0.0,0.0,0.0,0.0,0.0,0.0,0.0,0.0,0.0,0.0,0.0,0.0,0.0,0.0,0.0,0.0,0.0,0.0,0.0,0.0,0.0,0.0,0.0,0.0,0.0,0.0,0.0,0.0,0.0,0.0,0.0,0.0,0.0,0.0,0.0,0.0,0.0,0.0,0.0,0.0,0.0,0.0,0.0,0.0,0.0,0.0,0.0,0.0,0.0,0.0,0.0,0.0,0.0,0.0,0.0,0.0,0.0,0.0,0.0,0.0,0.0,0.0,0.0,0.0,0.0,0.0,0.0,0.0,0.0,0.0,0.0,0.0,0.0,0.0,0.0,0.0,0.0,0.0,0.0,0.0,0.0,0.0,0.0,0.0,0.0,0.0,0.0,0.0,0.0,0.0,0.0,0.0,0.0,0.0,0.0,0.0,0.0,0.0,0.0,0.0,0.0,0.0,0.0,0.0,0.0,0.0,0.0,0.0,0.0,0.0,0.0,0.0,0.0,0.0,0.0,0.0,0.0,0.0,0.0,0.0,0.0,0.0,0.0,0.0,0.0,0.0,0.0,0.0,0.0,0.0,0.0,0.0,0.0,0.0,0.0,0.0,0.0,0.0,3.2438,0.0,0.0,0.0,0.0,0.0,0.0,0.0,0.0,0.0,0.0,0.0,0.0,0.0,0.0,0.0,0.0,0.0,0.0,0.0,0.0,0.0,0.0,0.0,0.0,0.0,0.0,0.0,0.0,0.0,0.0,0.0,0.0,0.0,0.0,0.0,0.0,0.0,0.0,0.0,0.0,0.0,0.0,0.0,0.0,0.0,0.0,0.0,0.0,0.0,0.0,0.0,0.0,0.0,0.0,0.0,0.0,0.0,0.0,0.0,0.0,0.0,0.0,0.0,0.0,0.0,0.0,0.0,0.0,0.0,0.0,0.0,0.0,0.0,0.0,0.0,0.0,0.0,0.0,0.0,0.0,0.0,0.0,0.0,0.0,0.0,0.0,0.0,0.0,0.0,0.0,0.0,0.0,0.0,0.0,0.0,0.0,0.0,0.0,0.0,0.0,0.0,0.0,0.0,0.0,0.0,0.0,0.0,0.0,0.0,0.0,3.2561,3.2441,3.3333,3.3216,3.1936,0.0,0.0,0.0,0.0,0.0,0.0,0.0,0.0,0.0,0.0,0.0,0.0,0.0,0.0,0.0,0.0,0.0,0.0,0.0,0.0,0.0,0.0,0.0,0.0,0.0,0.0,0.0,0.0,0.0,0.0,0.0,0.0,0.0,0.0,0.0,0.0,0.0,0.0,0.0,0.0,0.0,0.0,0.0,0.0,0.0,0.0,0.0,0.0,0.0,0.0,0.0,0.0,0.0,0.0,0.0,0.0,0.0,0.0,0.0,0.0,0.0,0.0,0.0,0.0,0.0,0.0,0.0,0.0,0.0,0.0,0.0,0.0,0.0,0.0,0.0,0.0,0.0,0.0,0.0,0.0,0.0,0.0,0.0,0.0,0.0,0.0,0.0,0.0,0.0,0.0,0.0,0.0,0.0,0.0,0.0,0.0,0.0,0.0,0.0,0.0,0.0,0.0,0.0,0.0,0.0,0.0,0.0,0.0,0.0,0.0,0.0,0.0,3.3571,3.3101,3.1588,0.0,0.0,0.0,0.0,0.0,0.0,0.0,0.0,0.0,0.0,0.0,0.0,0.0,0.0,0.0,0.0,0.0,0.0,0.0,0.0,0.0,0.0,0.0,0.0,0.0,0.0,0.0,0.0,0.0,0.0,0.0,0.0,0.0,0.0,0.0,0.0,0.0,0.0,0.0,0.0,0.0,0.0,0.0,0.0,0.0,0.0,0.0,0.0,0.0,0.0,0.0,0.0,0.0,0.0,0.0,0.0,0.0,0.0,0.0,0.0,0.0,0.0,0.0,0.0,0.0,0.0,0.0,0.0,0.0,0.0,0.0,0.0,0.0,0.0,0.0,0.0,0.0,0.0,0.0,0.0,0.0,0.0,0.0,0.0,0.0,0.0,0.0,0.0,0.0,0.0,0.0,0.0,0.0,0.0,0.0,0.0,0.0,0.0,0.0,0.0,0.0,0.0,0.0,0.0,0.0,0.0,0.0,0.0,0.0,0.0,3.2046,3.4835,3.3518,0.0,3.2144,0.0,0.0,0.0,0.0,0.0,0.0,0.0,0.0,0.0,0.0,0.0,0.0,0.0,0.0,0.0,0.0,0.0,0.0,0.0,0.0,0.0,0.0,0.0,0.0,0.0,0.0,0.0,0.0,0.0,0.0,0.0,0.0,0.0,0.0,0.0,0.0,0.0,0.0,0.0,0.0,0.0,0.0,0.0,0.0,0.0,0.0,0.0,0.0,0.0,0.0,0.0,0.0,0.0,0.0,0.0,0.0,0.0,0.0,0.0,0.0,0.0,0.0,0.0,0.0,0.0,0.0,0.0,0.0,0.0,0.0,0.0,0.0,0.0,0.0,0.0,0.0,0.0,0.0,0.0,0.0,0.0,0.0,0.0,0.0,0.0,0.0,0.0,0.0,0.0,0.0,0.0,0.0,0.0,0.0,0.0,0.0,0.0,0.0,0.0,0.0,0.0,0.0,0.0,0.0,0.0,0.0,0.0,0.0,0.0,0.0,3.2181,3.392,3.3313,3.2645,0.0,0.0,0.0,0.0,0.0,0.0,0.0,0.0,0.0,0.0,0.0,0.0,0.0,0.0,0.0,0.0,0.0,0.0,0.0,0.0,0.0,0.0,0.0,0.0,0.0,0.0,0.0,0.0,0.0,0.0,0.0,0.0,0.0,0.0,0.0,0.0,0.0,0.0,0.0,0.0,0.0,0.0,0.0,0.0,0.0,0.0,0.0,0.0,0.0,0.0,0.0,0.0,0.0,0.0,0.0,0.0,0.0,0.0,0.0,0.0,0.0,0.0,0.0,0.0,0.0,0.0,0.0,0.0,0.0,0.0,0.0,0.0,0.0,0.0,0.0,0.0,0.0,0.0,0.0,0.0,0.0,0.0,0.0,0.0,0.0,0.0,0.0,0.0,0.0,0.0,0.0,0.0,0.0,0.0,0.0,0.0,0.0,0.0,0.0,0.0,0.0,0.0,0.0,0.0,0.0,0.0,0.0,0.0,0.0,0.0,3.2299,3.2781,3.3739,3.3367,3.2827,3.2154,0.0,0.0,0.0,0.0,0.0,0.0,0.0,0.0,0.0,0.0,0.0,0.0,0.0,0.0,0.0,0.0,0.0,0.0,0.0,0.0,0.0,0.0,0.0,0.0,0.0,0.0,0.0,0.0,0.0,0.0,0.0,0.0,0.0,0.0,0.0,0.0,0.0,0.0,0.0,0.0,0.0,0.0,0.0,0.0,0.0,0.0,0.0,0.0,0.0,0.0,0.0,0.0,0.0,0.0,0.0,0.0,0.0,0.0,0.0,0.0,0.0,0.0,0.0,0.0,0.0,0.0,0.0,0.0,0.0,0.0,0.0,0.0,0.0,0.0,0.0,0.0,0.0,0.0,0.0,0.0,0.0,0.0,0.0,0.0,0.0,0.0,0.0,0.0,0.0,0.0,0.0,0.0,0.0,0.0,0.0,0.0,0.0,0.0,0.0,0.0,0.0,0.0,0.0,0.0,0.0,0.0,0.0,0.0,3.6414,3.4393,3.3973,3.5431,3.3893,3.2987,0.0,0.0,0.0,0.0,0.0,0.0,0.0,0.0,0.0,0.0,0.0,0.0,0.0,0.0,0.0,0.0,0.0,0.0,0.0,0.0,0.0,0.0,0.0,0.0,0.0,0.0,0.0,0.0,0.0,0.0,0.0,0.0,0.0,0.0,0.0,0.0,0.0,0.0,0.0,0.0,0.0,0.0,0.0,0.0,0.0,0.0,0.0,0.0,0.0,0.0,0.0,0.0,0.0,0.0,0.0,0.0,0.0,0.0,0.0,0.0,0.0,0.0,0.0,0.0,0.0,0.0,0.0,0.0,0.0,0.0,0.0,0.0,0.0,0.0,0.0,0.0,0.0,0.0,0.0,0.0,0.0,0.0,0.0,0.0,0.0,0.0,0.0,0.0,0.0,0.0,0.0,0.0,0.0,0.0,0.0,0.0,0.0,0.0,0.0,0.0,0.0,0.0,0.0,0.0,0.0,0.0,0.0,0.0,0.0,3.1929,3.2071,3.306,3.4843,3.3244,3.2552,0.0,0.0,0.0,0.0,0.0,0.0,0.0,0.0,0.0,0.0,0.0,0.0,0.0,0.0,0.0,0.0,0.0,0.0,0.0,0.0,0.0,0.0,0.0,0.0,0.0,0.0,0.0,0.0,0.0,0.0,0.0,0.0,0.0,0.0,0.0,0.0,0.0,0.0,0.0,0.0,0.0,0.0,0.0,0.0,0.0,0.0,0.0,0.0,0.0,0.0,0.0,0.0,0.0,0.0,0.0,0.0,0.0,0.0,0.0,0.0,0.0,0.0,0.0,0.0,0.0,0.0,0.0,0.0,0.0,0.0,0.0,0.0,0.0,0.0,0.0,0.0,0.0,0.0,0.0,0.0,0.0,0.0,0.0,0.0,0.0,0.0,0.0,0.0,0.0,0.0,0.0,0.0,0.0,0.0,0.0,0.0,0.0,0.0,0.0,0.0,0.0,0.0,0.0,0.0,0.0,0.0,0.0,0.0,0.0,2.9753,0.0,3.2981,3.3808,3.2393,3.166,0.0,0.0,0.0,0.0,0.0,0.0,0.0,0.0,0.0,0.0,0.0,0.0,0.0,0.0,0.0,0.0,0.0,0.0,0.0,0.0,0.0,0.0,0.0,0.0,0.0,0.0,0.0,0.0,0.0,0.0,0.0,0.0,0.0,0.0,0.0,0.0,0.0,0.0,0.0,0.0,0.0,0.0,0.0,0.0,0.0,0.0,0.0,0.0,0.0,0.0,0.0,0.0,0.0,0.0,0.0,0.0,0.0,0.0,0.0,0.0,0.0,0.0,0.0,0.0,0.0,0.0,0.0,0.0,0.0,0.0,0.0,0.0,0.0,0.0,0.0,0.0,0.0,0.0,0.0,0.0,0.0,0.0,0.0,0.0,0.0,0.0,0.0,0.0,0.0,0.0,0.0,0.0,0.0,0.0,0.0,0.0,0.0,0.0,0.0,0.0,0.0,0.0,0.0,0.0,0.0,0.0,0.0,0.0,2.9624,3.0765,3.2862,3.3116,3.2419,3.1023,3.0108,0.0,0.0,0.0,0.0,0.0,0.0,0.0,0.0,0.0,0.0,0.0,0.0,0.0,0.0,0.0,0.0,0.0,0.0,0.0,0.0,0.0,0.0,0.0,0.0,0.0,0.0,0.0,0.0,0.0,0.0,0.0,0.0,0.0,0.0,0.0,0.0,0.0,0.0,0.0,0.0,0.0,0.0,0.0,0.0,0.0,0.0,0.0,0.0,0.0,0.0,0.0,0.0,0.0,0.0,0.0,0.0,0.0,0.0,0.0,0.0,0.0,0.0,0.0,0.0,0.0,0.0,0.0,0.0,0.0,0.0,0.0,0.0,0.0,0.0,0.0,0.0,0.0,0.0,0.0,0.0,0.0,0.0,0.0,0.0,0.0,0.0,0.0,0.0,0.0,0.0,0.0,0.0,0.0,0.0,0.0,0.0,0.0,0.0,0.0,0.0,0.0,0.0,0.0,0.0,0.0,0.0,0.0,0.0,0.0,2.6018,2.3681,2.372,2.6201,2.384,2.448,0.0,0.0,0.0,0.0,0.0,0.0,0.0,0.0,0.0,0.0,0.0,0.0,0.0,0.0,0.0,0.0,0.0,0.0,0.0,0.0,0.0,0.0,0.0,0.0,0.0,0.0,0.0,0.0,0.0,0.0,0.0,0.0,0.0,0.0,0.0,0.0,0.0,0.0,0.0,0.0,0.0,0.0,0.0,0.0,0.0,0.0,0.0,0.0,0.0,0.0,0.0,0.0,0.0,0.0,0.0,0.0,0.0,0.0,0.0,0.0,0.0,0.0,0.0,0.0,0.0,0.0,0.0,0.0,0.0,0.0,0.0,0.0,0.0,0.0,0.0,0.0,0.0,0.0,0.0,0.0,0.0,0.0,0.0,0.0,0.0,0.0,0.0,0.0,0.0,0.0,0.0,0.0,0.0,0.0,0.0,0.0,0.0,0.0,0.0,0.0,0.0,0.0,0.0,0.0,0.0,0.0,0.0,0.0,0.0,1.9827,1.7781,1.7586,1.928,1.8021,1.9577,2.4316,0.0,0.0,0.0,0.0,0.0,0.0,0.0,0.0,0.0,0.0,0.0,0.0,0.0,0.0,0.0,0.0,0.0,0.0,0.0,0.0,0.0,0.0,0.0,0.0,0.0,0.0,0.0,0.0,0.0,0.0,0.0,0.0,0.0,0.0,0.0,0.0,0.0,0.0,0.0,0.0,0.0,0.0,0.0,0.0,0.0,0.0,0.0,0.0,0.0,0.0,0.0,0.0,0.0,0.0,0.0,0.0,0.0,0.0,0.0,0.0,0.0,0.0,0.0,0.0,0.0,0.0,0.0,0.0,0.0,0.0,0.0,0.0,0.0,0.0,0.0,0.0,0.0,0.0,0.0,0.0,0.0,0.0,0.0,0.0,0.0,0.0,0.0,0.0,0.0,0.0,0.0,0.0,0.0,0.0,0.0,0.0,0.0,0.0,0.0,0.0,0.0,0.0,0.0,0.0,0.0,0.0,0.0,0.0,1.2492,1.4313,1.3933,1.1529,1.3265,1.5366,0.0,0.0,0.0,0.0,0.0,0.0,0.0,0.0,0.0,0.0,0.0,0.0,0.0,0.0,0.0,0.0,0.0,0.0,0.0,0.0,0.0,0.0,0.0,0.0,0.0,0.0,0.0,0.0,0.0,0.0,0.0,0.0,0.0,0.0,0.0,0.0,0.0,0.0,0.0,0.0,0.0,0.0,0.0,0.0,0.0,0.0,0.0,0.0,0.0,0.0,0.0,0.0,0.0,0.0,0.0,0.0,0.0,0.0,0.0,0.0,0.0,0.0,0.0,0.0,0.0,0.0,0.0,0.0,0.0,0.0,0.0,0.0,0.0,0.0,0.0,0.0,0.0,0.0,0.0,0.0,0.0,0.0,0.0,0.0,0.0,0.0,0.0,0.0,0.0,0.0,0.0,0.0,0.0,0.0,0.0,0.0,0.0,0.0,0.0,0.0,0.0,0.0,0.0,0.0,0.0,0.0,0.0,0.0,0.0,0.9647,0.3889,0.2192,0.4844,0.6279,0.9815,0.0,0.0,0.0,0.0,0.0,0.0,0.0,0.0,0.0,0.0,0.0,0.0,0.0,0.0,0.0,0.0,0.0,0.0,0.0,0.0,0.0,0.0,0.0,0.0,0.0,0.0,0.0,0.0,0.0,0.0,0.0,0.0,0.0,0.0,0.0,0.0,0.0,0.0,0.0,0.0,0.0,0.0,0.0,0.0,0.0,0.0,0.0,0.0,0.0,0.0,0.0,0.0,0.0,0.0,0.0,0.0,0.0,0.0,0.0,0.0,0.0,0.0,0.0,0.0,0.0,0.0,0.0,0.0,0.0,0.0,0.0,0.0,0.0,0.0,0.0,0.0,0.0,0.0,0.0,0.0,0.0,0.0,0.0,0.0,0.0,0.0,0.0,0.0,0.0,0.0,0.0,0.0,0.0,0.0,0.0,0.0,0.0,0.0,0.0,0.0,0.0,0.0,0.0,0.0,0.0,0.0,0.0,0.0,1.4683,0.5867,-0.1791,-0.5382,-0.4637,-0.1099,0.4004,0.0,0.0,0.0,0.0,0.0,0.0,0.0,0.0,0.0,0.0,0.0,0.0,0.0,0.0,0.0,0.0,0.0,0.0,0.0,0.0,0.0,0.0,0.0,0.0,0.0,0.0,0.0,0.0,0.0,0.0,0.0,0.0,0.0,0.0,0.0,0.0,0.0,0.0,0.0,0.0,0.0,0.0,0.0,0.0,0.0,0.0,0.0,0.0,0.0,0.0,0.0,0.0,0.0,0.0,0.0,0.0,0.0,0.0,0.0,0.0,0.0,0.0,0.0,0.0,0.0,0.0,0.0,0.0,0.0,0.0,0.0,0.0,0.0,0.0,0.0,0.0,0.0,0.0,0.0,0.0,0.0,0.0,0.0,0.0,0.0,0.0,0.0,0.0,0.0,0.0,0.0,0.0,0.0,0.0,0.0,0.0,0.0,0.0,0.0,0.0,0.0,0.0,0.0,0.0,0.0,0.0,0.0,0.0,1.1589,0.2021,-0.4656,-1.0345,-1.456,-0.8138,-0.1341,0.0,0.0,0.0,0.0,0.0,0.0,0.0,0.0,0.0,0.0,0.0,0.0,0.0,0.0,0.0,0.0,0.0,0.0,0.0,0.0,0.0,0.0,0.0,0.0,0.0,0.0,0.0,0.0,0.0,0.0,0.0,0.0,0.0,0.0,0.0,0.0,0.0,0.0,0.0,0.0,0.0,0.0,0.0,0.0,0.0,0.0,0.0,0.0,0.0,0.0,0.0,0.0,0.0,0.0,0.0,0.0,0.0,0.0,0.0,0.0,0.0,0.0,0.0,0.0,0.0,0.0,0.0,0.0,0.0,0.0,0.0,0.0,0.0,0.0,0.0,0.0,0.0,0.0,0.0,0.0,0.0,0.0,0.0,0.0,0.0,0.0,0.0,0.0,0.0,0.0,0.0,0.0,0.0,0.0,0.0,0.0,0.0,0.0,0.0,0.0,0.0,0.0,0.0,0.0,0.0,0.0,0.0,0.0,0.7044,-0.0243,-0.9005,-1.5315,-1.8809,-1.1696,-0.3408,0.0,0.0,0.0,0.0,0.0,0.0,0.0,0.0,0.0,0.0,0.0,0.0,0.0,0.0,0.0,0.0,0.0,0.0,0.0,0.0,0.0,0.0,0.0,0.0,0.0,0.0,0.0,0.0,0.0,0.0,0.0,0.0,0.0,0.0,0.0,0.0,0.0,0.0,0.0,0.0,0.0,0.0,0.0,0.0,0.0,0.0,0.0,0.0,3.266,0.0,0.0,0.0,0.0,0.0,0.0,0.0,0.0,0.0,0.0,0.0,0.0,0.0,0.0,0.0,0.0,0.0,0.0,0.0,0.0,0.0,0.0,0.0,0.0,0.0,0.0,0.0,0.0,0.0,0.0,0.0,0.0,0.0,0.0,0.0,0.0,0.0,0.0,0.0,0.0,0.0,0.0,0.0,0.0,0.0,0.0,0.0,0.0,0.0,0.0,0.0,0.0,0.0,0.0,0.0,0.0,0.0,0.0,0.0,0.4527,-0.2307,-1.1731,-1.8055,-2.0513,-1.6111,-0.8178,0.0,0.0,0.0,0.0,0.0,0.0,0.0,0.0,0.0,0.0,0.0,0.0,0.0,0.0,0.0,0.0,0.0,0.0,0.0,0.0,0.0,0.0,0.0,0.0,0.0,0.0,0.0,0.0,0.0,0.0,0.0,0.0,0.0,0.0,0.0,0.0,0.0,0.0,0.0,0.0,0.0,0.0,0.0,0.0,0.0,0.0,0.0,0.0,0.0,0.0,0.0,0.0,0.0,0.0,0.0,0.0,0.0,0.0,0.0,0.0,0.0,0.0,0.0,0.0,0.0,0.0,0.0,0.0,0.0,0.0,0.0,0.0,0.0,0.0,0.0,0.0,0.0,0.0,0.0,0.0,0.0,0.0,0.0,0.0,0.0,0.0,0.0,0.0,0.0,0.0,0.0,0.0,0.0,0.0,0.0,0.0,0.0,0.0,0.0,0.0,0.0,0.0,0.0,0.0,0.0,0.0,0.0,1.1449,0.2845,-0.4245,-1.3661,-1.9686,-2.1788,-2.0308,-1.3608,-0.1388,0.0,0.0,0.0,0.0,0.0,0.0,0.0,0.0,0.0,0.0,0.0,0.0,0.0,0.0,0.0,0.0,0.0,0.0,0.0,0.0,0.0,0.0,0.0,0.0,0.0,0.0,0.0,0.0,0.0,0.0,0.0,0.0,0.0,0.0,0.0,0.0,0.0,0.0,2.7273,2.3742,0.0,0.0,0.0,0.0,0.0,0.0,0.0,0.0,2.712,0.0,0.0,0.0,0.0,0.0,0.0,0.0,0.0,0.0,0.0,0.0,0.0,0.0,0.0,0.0,0.0,0.0,0.0,0.0,0.0,0.0,0.0,0.0,0.0,0.0,0.0,0.0,0.0,0.0,0.0,0.0,0.0,0.0,0.0,0.0,0.0,0.0,0.0,0.0,0.0,0.0,0.0,0.0,0.0,0.0,0.0,0.0,0.0,0.0,0.0,0.0,0.0,0.0,0.0,0.0,0.0,1.8667,0.9197,0.0928,-0.6061,-1.5347,-2.1213,-2.3143,-2.1973,-1.6936,-0.7781,0.0,0.0,0.0,0.0,0.0,0.0,0.0,0.0,0.0,0.0,0.0,0.0,0.0,0.0,0.0,0.0,0.0,0.0,0.0,0.0,0.0,0.0,0.0,0.0,0.0,0.0,0.0,0.0,0.0,0.0,0.0,0.0,0.0,0.0,0.0,0.0,0.0,0.0,0.0,2.0008,1.7493,0.0,0.0,0.0,0.0,0.0,0.0,0.0,0.0,2.6818,0.0,0.0,0.0,0.0,0.0,0.0,0.0,0.0,0.0,0.0,0.0,0.0,0.0,0.0,0.0,0.0,0.0,0.0,0.0,0.0,0.0,0.0,0.0,0.0,0.0,0.0,0.0,0.0,0.0,0.0,0.0,0.0,0.0,0.0,0.0,0.0,0.0,0.0,0.0,0.0,0.0,0.0,0.0,0.0,0.0,0.0,0.0,0.0,0.0,0.0,0.0,0.0,0.0,0.0,0.0,1.7626,0.8279,0.0095,-0.6565,-1.5386,-2.1281,-2.3876,-2.2496,-1.8337,0.0,0.0,0.0,0.0,0.0,0.0,0.0,0.0,0.0,0.0,0.0,0.0,0.0,0.0,0.0,0.0,0.0,0.0,0.0,0.0,0.0,0.0,0.0,0.0,0.0,0.0,0.0,0.0,0.0,0.0,0.0,0.0,0.0,0.0,0.0,0.0,0.0,0.0,0.0,0.0,1.9076,1.6294,1.5226,0.0,0.0,0.0,0.0,0.0,0.0,1.7921,2.1145,0.0,0.0,0.0,0.0,0.0,0.0,0.0,0.0,0.0,0.0,0.0,0.0,0.0,0.0,0.0,0.0,0.0,0.0,0.0,0.0,0.0,0.0,0.0,0.0,0.0,0.0,0.0,0.0,0.0,0.0,0.0,0.0,0.0,0.0,0.0,0.0,0.0,0.0,0.0,0.0,0.0,0.0,0.0,0.0,0.0,0.0,0.0,0.0,0.0,0.0,0.0,0.0,0.0,0.0,0.0,1.7028,0.7833,-0.0253,-0.7025,-1.5337,-2.1138,-2.422,-2.2813,-1.9528,0.0,0.0,0.0,0.0,0.0,0.0,0.0,0.0,0.0,0.0,0.0,0.0,0.0,0.0,0.0,0.0,0.0,0.0,0.0,0.0,0.0,0.0,0.0,0.0,0.0,0.0,0.0,0.0,0.0,0.0,0.0,0.0,0.0,0.0,0.0,0.0,0.0,0.0,0.0,0.0,0.0,1.5853,1.3958,1.2413,0.0,0.0,0.0,0.0,1.0934,1.3135,0.0,0.0,0.0,0.0,0.0,0.0,0.0,0.0,0.0,0.0,0.0,0.0,0.0,0.0,0.0,0.0,0.0,0.0,0.0,0.0,0.0,0.0,0.0,0.0,0.0,0.0,0.0,0.0,0.0,0.0,0.0,0.0,0.0,0.0,0.0,0.0,0.0,0.0,0.0,0.0,0.0,0.0,0.0,0.0,0.0,0.0,0.0,0.0,0.0,0.0,0.0,0.0,0.0,0.0,0.0,0.0,1.5383,0.7736,-0.031,-0.8674,-1.6277,-2.1537,-2.4302,-2.3456,-2.1652,0.0,0.0,0.0,0.0,0.0,0.0,0.0,0.0,0.0,0.0,0.0,0.0,0.0,0.0,0.0,0.0,0.0,0.0,0.0,0.0,0.0,0.0,0.0,0.0,0.0,0.0,0.0,0.0,0.0,0.0,0.0,0.0,0.0,0.0,0.0,0.0,0.0,0.0,0.0,0.0,0.0,1.4955,1.2767,1.1153,1.0162,0.0,0.0,0.987,1.0201,1.2138,0.0,0.0,0.0,0.0,0.0,0.0,0.0,0.0,0.0,0.0,0.0,0.0,0.0,0.0,0.0,0.0,0.0,0.0,0.0,0.0,0.0,0.0,0.0,0.0,0.0,0.0,0.0,0.0,0.0,0.0,0.0,0.0,0.0,0.0,0.0,0.0,0.0,0.0,0.0,0.0,0.0,0.0,0.0,0.0,0.0,0.0,0.0,0.0,0.0,0.0,0.0,0.0,0.0,0.0,0.0,2.021,1.4845,0.6596,-0.1412,-0.8989,-1.6401,-2.1738,-2.476,-2.3729,-2.2352,0.0,0.0,0.0,0.0,0.0,0.0,0.0,0.0,0.0,0.0,0.0,0.0,0.0,0.0,0.0,0.0,0.0,0.0,0.0,0.0,0.0,0.0,0.0,0.0,0.0,0.0,0.0,0.0,0.0,0.0,0.0,0.0,0.0,0.0,0.0,0.0,0.0,0.0,0.0,0.0,0.0,0.0,1.2617,1.0625,0.0,0.0,0.0,0.813,0.8882,0.0,0.0,0.0,0.0,0.0,0.0,0.0,0.0,0.0,0.0,0.0,0.0,0.0,0.0,0.0,0.0,0.0,0.0,0.0,0.0,0.0,0.0,0.0,0.0,0.0,0.0,0.0,0.0,0.0,0.0,0.0,0.0,0.0,0.0,0.0,0.0,0.0,0.0,0.0,0.0,0.0,0.0,0.0,0.0,0.0,0.0,0.0,0.0,0.0,0.0,0.0,0.0,0.0,0.0,0.0,0.0,0.0,1.4298,0.5579,-0.2306,-0.9378,-1.6548,-2.1784,-2.4847,-2.3925,0.0,0.0,0.0,0.0,0.0,0.0,0.0,0.0,0.0,0.0,0.0,0.0,0.0,0.0,0.0,0.0,0.0,0.0,0.0,0.0,0.0,0.0,0.0,0.0,0.0,0.0,0.0,2.8029,0.0,0.0,0.0,0.0,0.0,0.0,0.0,0.0,0.0,0.0,0.0,0.0,0.0,0.0,1.437,1.2156,1.0055,0.8672,0.0,0.0,0.729,0.8695,0.9852,1.2077,0.0,0.0,0.0,0.0,0.0,0.0,0.0,0.0,0.0,0.0,0.0,0.0,0.0,0.0,0.0,0.0,0.0,0.0,0.0,0.0,0.0,0.0,0.0,0.0,0.0,0.0,0.0,0.0,0.0,0.0,0.0,0.0,0.0,0.0,0.0,0.0,0.0,0.0,0.0,0.0,0.0,0.0,0.0,0.0,0.0,0.0,0.0,0.0,0.0,0.0,0.0,0.0,0.0,0.0,0.0,1.3062,0.5194,-0.2593,-1.0232,-1.6876,-2.1615,-2.4343,-2.416,-2.3001,0.0,0.0,0.0,0.0,0.0,0.0,0.0,0.0,0.0,0.0,0.0,0.0,0.0,0.0,0.0,0.0,0.0,0.0,0.0,0.0,0.0,0.0,0.0,0.0,0.0,0.0,0.0,0.0,0.0,0.0,0.0,0.0,0.0,0.0,0.0,0.0,0.0,0.0,0.0,0.0,0.0,1.3979,1.0597,0.9358,0.8706,0.0,0.0,0.8941,1.0445,1.0979,1.249,1.6252,0.0,0.0,0.0,0.0,0.0,0.0,0.0,0.0,0.0,0.0,0.0,0.0,0.0,0.0,0.0,0.0,0.0,0.0,0.0,0.0,0.0,0.0,0.0,0.0,0.0,0.0,0.0,0.0,0.0,0.0,0.0,0.0,0.0,0.0,0.0,0.0,0.0,0.0,0.0,0.0,0.0,0.0,0.0,0.0,0.0,0.0,0.0,0.0,0.0,0.0,0.0,0.0,0.0,1.8524,1.3781,0.5474,-0.1976,-0.8303,-1.5321,-2.0109,-2.2481,-2.278,-2.2054,0.0,0.0,0.0,0.0,0.0,0.0,0.0,0.0,0.0,0.0,0.0,0.0,0.0,0.0,0.0,0.0,0.0,0.0,0.0,0.0,0.0,0.0,0.0,0.0,0.0,0.0,0.0,0.0,2.6517,2.6961,2.7114,0.0,0.0,0.0,0.0,0.0,0.0,0.0,0.0,0.0,0.0,1.3396,1.1921,1.0835,0.0,0.0,1.086,1.1571,1.1921,1.2996,1.4201,1.5708,1.7095,0.0,0.0,0.0,0.0,0.0,0.0,0.0,0.0,0.0,0.0,0.0,0.0,0.0,0.0,0.0,0.0,0.0,0.0,0.0,0.0,0.0,0.0,0.0,0.0,0.0,0.0,0.0,0.0,0.0,0.0,0.0,0.0,0.0,0.0,0.0,0.0,0.0,0.0,0.0,0.0,0.0,0.0,0.0,0.0,0.0,0.0,0.0,0.0,0.0,0.0,0.0,0.0,1.8387,1.3774,0.5764,-0.1175,-0.6948,-1.3474,-1.8113,-2.0563,-2.1234,-2.0954,0.0,0.0,0.0,0.0,0.0,0.0,0.0,0.0,0.0,0.0,0.0,0.0,0.0,0.0,0.0,0.0,0.0,0.0,0.0,0.0,0.0,0.0,0.0,0.0,0.0,0.0,0.0,0.0,2.5967,2.6704,2.6542,0.0,0.0,0.0,0.0,0.0,0.0,0.0,0.0,0.0,0.0,1.3741,1.2883,1.2018,1.1527,1.1388,1.2279,1.298,1.3146,1.4283,1.5305,1.5929,0.0,0.0,0.0,0.0,0.0,0.0,0.0,0.0,0.0,0.0,0.0,0.0,0.0,0.0,0.0,0.0,0.0,0.0,0.0,0.0,0.0,0.0,0.0,0.0,0.0,0.0,0.0,0.0,0.0,0.0,2.532,0.0,0.0,0.0,0.0,0.0,0.0,0.0,0.0,0.0,0.0,0.0,0.0,0.0,0.0,0.0,0.0,0.0,0.0,0.0,0.0,0.0,0.0,1.8412,1.2567,0.6081,-0.0403,-0.662,-1.1617,-1.5686,-1.8846,-1.9666,-1.9685,-1.8917,0.0,0.0,0.0,0.0,0.0,0.0,0.0,0.0,0.0,0.0,0.0,0.0,0.0,0.0,0.0,0.0,0.0,0.0,0.0,0.0,0.0,0.0,0.0,0.0,0.0,0.0,2.3985,2.5392,2.6227,0.0,0.0,0.0,0.0,0.0,0.0,0.0,0.0,0.0,0.0,1.6327,1.5281,1.3002,1.2607,1.2525,1.2417,1.2339,1.2772,1.4207,1.4762,1.5679,0.0,0.0,0.0,0.0,0.0,0.0,0.0,0.0,0.0,0.0,0.0,0.0,0.0,0.0,0.0,0.0,0.0,0.0,0.0,0.0,0.0,0.0,0.0,0.0,0.0,0.0,0.0,2.0665,2.1039,0.0,0.0,0.0,0.0,0.0,0.0,0.0,0.0,0.0,0.0,0.0,1.4881,1.5099,0.0,0.0,0.0,0.0,0.0,0.0,0.0,0.0,0.0,0.0,0.0,0.0,1.7978,1.3571,0.6946,0.1132,-0.3745,-0.8695,-1.2476,-1.507,-1.6553,-1.6726,-1.5506,0.0,0.0,0.0,0.0,0.0,0.0,0.0,0.0,0.0,0.0,0.0,0.0,0.0,0.0,0.0,0.0,0.0,0.0,0.0,0.0,0.0,0.0,0.0,0.0,0.0,2.4184,0.0,0.0,0.0,0.0,0.0,0.0,0.0,0.0,0.0,0.0,0.0,1.9815,1.7523,1.5813,1.457,1.3685,1.3724,1.3885,0.0,0.0,0.0,0.0,0.0,0.0,0.0,0.0,0.0,0.0,0.0,0.0,0.0,0.0,2.0223,2.0119,2.0682,2.1484,2.2455,0.0,0.0,0.0,0.0,0.0,0.0,0.0,0.0,0.0,0.0,0.0,0.0,0.0,0.0,0.0,0.0,1.9987,0.0,0.0,0.0,0.0,0.0,0.0,0.0,0.0,1.6577,1.5512,1.3846,1.3877,1.3952,0.0,1.391,1.5468,0.0,0.0,0.0,0.0,0.0,0.0,0.0,0.0,1.7601,1.3496,0.7564,0.2407,-0.1645,-0.6278,-0.9821,-1.2192,-1.4429,-1.4879,-1.3442,-1.2249,-1.0,0.0,0.0,0.0,0.0,0.0,0.0,0.0,0.0,0.0,0.0,0.0,0.0,0.0,0.0,0.0,0.0,0.0,0.0,0.0,0.0,0.0,0.0,0.0,2.3617,0.0,0.0,0.0,0.0,0.0,0.0,0.0,0.0,0.0,2.2033,2.0525,1.8902,1.7341,1.5993,1.5077,1.4894,0.0,0.0,0.0,0.0,0.0,0.0,0.0,1.6359,1.6166,1.6466,1.6794,1.6981,1.7829,1.8307,1.7541,0.0,0.0,1.8773,1.9287,2.0092,2.0945,2.0456,2.0032,2.0613,1.9728,1.8496,0.0,0.0,0.0,0.0,0.0,0.0,0.0,0.0,1.2469,1.3398,0.0,1.6683,0.0,0.0,0.0,0.0,0.0,0.0,0.0,0.0,1.653,1.5329,1.3763,1.4597,1.4508,1.3736,1.4465,1.5204,1.5968,2.0133,0.0,0.0,0.0,0.0,0.0,0.0,1.7243,1.2479,0.7779,0.3436,-0.0541,-0.4389,-0.77,-1.0371,-1.3159,-1.3913,-1.2693,-1.1806,-0.9824,-0.6355,-0.3196,0.0,0.0,0.0,0.0,0.0,0.0,0.0,0.0,0.0,0.0,0.0,0.0,0.0,0.0,0.0,0.0,0.0,0.0,0.0,0.0,2.2044,0.0,0.0,0.0,0.0,0.0,0.0,0.0,0.0,0.0,0.0,2.0236,1.8739,1.7587,1.6531,0.0,0.0,0.0,0.0,1.648,1.587,1.5858,1.5858,1.5899,1.6346,1.6693,1.6693,0.0,0.0,1.7595,1.809,1.7857,1.5881,1.7245,1.8577,1.8804,1.8467,1.805,1.7788,1.6539,1.5092,1.4669,1.4275,1.308,0.4839,0.0,0.0,0.0,0.0,1.0509,1.1166,1.0871,1.1646,1.2075,1.2254,1.458,0.0,0.0,0.0,0.0,0.0,0.0,1.7614,1.6028,1.5627,1.4882,1.3961,1.4636,1.4629,1.3948,1.379,1.4285,1.5436,1.7129,1.9764,2.3091,0.0,0.0,0.0,0.0,1.5581,1.2341,0.773,0.3667,0.0182,-0.2728,-0.5784,-0.8953,-1.0342,-1.0479,-0.925,-0.9029,-0.7579,-0.4766,-0.3183,0.0,0.0,0.0,0.0,0.0,0.0,0.0,0.0,0.0,0.0,0.0,0.0,0.0,0.0,0.0,0.0,0.0,0.0,0.0,2.3029,2.353,2.4518,0.0,0.0,0.0,0.0,0.0,0.0,0.0,0.0,0.0,2.0499,1.9544,1.8644,0.0,0.0,1.6072,1.5698,1.5899,1.6172,1.642,0.0,0.0,0.0,1.6734,1.6707,1.6707,1.7194,1.7655,1.7876,1.823,1.832,1.7682,1.8143,1.8457,1.831,1.8176,1.8083,1.8054,1.6876,1.5683,1.5386,1.3567,1.1599,0.1651,0.4125,0.46,0.5108,0.5839,0.7882,0.8705,0.8542,0.9759,1.0285,1.0608,1.3028,1.4226,1.4488,1.6391,0.0,0.0,0.0,1.6661,1.5598,1.462,1.4006,1.3628,1.4072,1.3936,1.3373,1.2758,1.3436,1.5218,1.5607,1.7376,2.0507,0.0,0.0,1.9438,1.6922,1.4227,1.124,0.7325,0.3859,0.0914,-0.1852,-0.4488,-0.6905,-0.7452,-0.7233,-0.6359,-0.5902,-0.4731,-0.249,-0.1108,0.0962,0.0,0.0,0.0,0.0,0.0,0.0,0.0,0.0,0.0,0.0,0.0,3.014,2.8493,0.0,0.0,0.0,2.5127,2.4644,2.4054,2.4731,0.0,0.0,0.0,0.0,0.0,0.0,0.0,2.4073,2.2981,2.2083,2.1367,2.0704,1.9812,1.8683,1.7958,1.7369,1.7055,0.0,1.7487,1.7741,1.7618,1.7728,1.8003,1.8011,1.7815,1.747,1.7395,1.7455,1.7649,1.7842,1.7956,1.7949,1.7862,1.7722,1.7549,1.7515,1.7655,1.8029,1.6781,1.5398,1.4849,1.2724,1.0715,0.0,0.0,0.0,0.0976,0.2641,0.489,0.5927,0.6103,0.7271,0.8453,0.9746,1.1898,1.3212,1.3915,1.6308,0.0,1.6952,1.6308,1.5898,1.5576,1.362,1.2748,1.2817,1.304,1.2886,1.2304,1.1872,1.2725,1.4828,1.4913,1.5759,1.7339,1.8384,1.8101,1.6431,1.523,1.2928,0.9449,0.6691,0.4044,0.1583,-0.1528,-0.3579,-0.4468,-0.447,-0.4229,-0.3713,-0.2711,-0.1409,0.0277,0.208,0.4325,0.7081,0.0,0.0,0.0,0.0,0.0,0.0,0.0,0.0,0.0,0.0,0.0,0.0,0.0,0.0,0.0,2.4434,0.0,2.4993,2.5807,0.0,0.0,0.0,2.6791,2.6648,2.5239,2.4061,2.3492,0.0,0.0,2.2546,0.0,2.1025,2.013,1.9951,1.9759,1.9497,1.9518,1.9742,1.9387,1.9389,1.9389,1.9393,1.9597,1.9383,1.8581,1.7867,1.7544,1.7428,1.7435,1.7442,1.7599,1.7136,1.6866,1.6866,1.6787,1.68,1.7321,1.61,1.4584,1.3289,1.1661,1.0034,0.0,0.0,0.0,0.0296,0.0998,0.4487,0.5955,0.6089,0.7133,0.7771,0.8103,1.0149,1.1878,1.342,1.4757,1.509,1.4451,1.4271,1.4006,1.3739,1.2635,1.2439,1.2985,1.2921,1.2767,1.2669,1.3355,1.3218,1.2427,1.3988,1.4257,1.3339,1.4492,1.5209,1.5168,1.2814,1.0704,0.889,0.6423,0.3936,0.1416,-0.057,-0.1785,-0.2128,-0.2023,-0.1641,-0.093,0.0529,0.1876,0.2975,0.414,0.5854,0.8203,0.9596,0.0,0.0,0.0,0.0,0.0,0.0,0.0,0.0,0.0,3.0696,2.7144,0.0,2.9233,0.0,2.5534,2.6183,2.7243,2.7532,0.0,0.0,2.7866,2.7789,2.6225,2.6701,2.6359,2.426,2.37,2.3175,2.2732,2.1816,2.132,2.14,2.0366,1.9488,1.9052,1.9052,1.9101,1.9331,1.9151,1.9011,1.9567,1.9686,1.9568,1.9042,1.9012,1.8962,1.8714,1.8675,1.8752,1.8969,1.8118,1.7545,1.7652,1.6856,1.6182,1.6149,1.5314,1.4168,1.277,1.1258,0.964,0.0,0.0,0.0,0.0,0.0189,0.3071,0.4803,0.58,0.6901,0.7312,0.7337,0.9132,1.092,1.2565,1.3559,1.3732,1.322,1.2799,1.2612,1.2572,1.183,1.1943,1.2668,1.3041,1.3003,1.264,1.3611,1.3523,1.2482,1.381,1.4109,1.3399,1.3449,1.3616,1.38,1.1736,0.9826,0.81,0.5684,0.3561,0.1753,0.086,0.0347,0.0239,0.0304,0.0745,0.1472,0.281,0.4129,0.5418,0.642,0.7962,1.0066,1.0961,1.2364,0.0,0.0,0.0,0.0,0.0,0.0,0.0,0.0,0.0,0.0,0.0,2.8725,0.0,2.6549,2.7168,2.8021,2.8335,2.8363,2.8005,2.8118,2.7722,2.6595,2.6563,2.6106,2.4679,2.427,2.3942,2.3694,2.3113,2.2912,2.3171,2.2399,2.1418,2.0422,2.0205,2.0285,2.0403,2.0252,2.0157,2.0625,2.0214,1.9779,1.9521,1.9264,1.897,1.8783,1.8661,1.8726,1.8896,1.8332,1.7908,1.8094,1.7553,1.6752,1.6022,1.5544,1.4444,1.2538,1.1245,0.9903,-0.0178,0.0,0.0,0.0088,0.0347,0.1341,0.2994,0.5003,0.6245,0.6903,0.7073,0.8763,1.025,1.1594,1.2682,1.2959,1.2614,1.1899,1.1724,1.192,1.145,1.1675,1.2434,1.3335,1.3305,1.2497,1.3407,1.3685,1.3393,1.3898,1.4452,1.4811,1.3576,1.2739,1.2323,1.1318,0.9583,0.7303,0.5159,0.364,0.2805,0.2563,0.2448,0.2459,0.2525,0.2804,0.3474,0.4569,0.5953,0.7624,0.8743,1.0205,1.2206,1.2615,1.3726,0.0,1.6083,0.0,0.0,0.0,0.0,0.0,0.0,0.0,0.0,2.7986,2.7702,2.7402,2.7381,2.7582,2.8059,2.8549,2.8737,2.8599,2.7855,2.7382,2.7192,2.6031,2.5192,2.5124,2.4991,2.478,2.4635,2.458,2.4436,2.4183,2.4007,2.3332,2.2221,2.2038,2.2168,2.2128,2.1977,2.1777,2.1915,2.111,2.0448,2.0274,1.9516,1.86,1.86,1.8515,1.8389,1.8439,1.8312,1.8135,1.8192,1.8074,1.7419,1.63,1.5856,1.4916,1.2541,1.1499,1.0348,-0.1189,0.0,0.0,0.0594,0.1435,0.0668,0.1176,0.2645,0.4582,0.6286,0.7696,0.868,0.9666,1.0563,1.2342,1.265,1.1733,1.2349,1.2497,1.2167,1.2491,1.289,1.3327,1.3526,1.3345,1.289,1.3626,1.3332,1.2114,1.3424,1.3414,1.2115,1.2394,1.2095,1.1143,0.0,0.0,0.0,0.674,0.6433,0.598,0.4703,0.3964,0.401,0.4158,0.0,0.4505,0.6552,0.8266,0.9452,1.0389,0.0,0.0,0.0,0.0,0.0,0.0,0.0,0.0,0.0,0.0,0.0,2.5862,2.6375,2.6974,2.7233,2.7556,2.7883,2.7946,2.7984,2.8097,2.8197,2.7879,2.7107,2.7557,2.7631,2.678,2.7061,2.7324,2.6869,2.5781,2.4837,2.4449,2.3219,2.257,2.2778,2.2477,2.2324,2.2095,2.2992,2.3525,2.3113,2.2553,2.2583,2.3143,2.2424,2.185,2.1998,2.1339,2.0552,2.0153,1.956,1.9231,1.9505,1.8588,1.7985,1.825,1.7248,1.6596,1.6092,1.5466,1.4306,1.2326,1.1826,1.0955,-0.1621,0.0,0.0,0.0404,0.0,0.0236,0.0314,0.1099,0.364,0.5526,0.6904,0.8089,0.8834,0.9163,1.1044,1.2016,1.2144,1.2732,1.2869,1.2633,1.2668,1.2999,1.3627,1.3372,1.3241,1.324,1.3811,1.3588,1.269,1.3588,1.3792,1.3184,1.2894,1.2564,1.227,1.1288,0.9601,0.7301,0.7079,0.6971,0.6961,0.6169,0.5583,0.5287,0.0,0.0,0.0,0.0,0.0,0.0,0.0,0.0,0.0,0.0,0.0,1.5506,1.6839,1.824,1.9638,2.1261,2.2718,2.4056,2.5038,2.5911,2.6565,2.724,2.7808,2.8072,2.8109,2.8109,2.8109,2.8109,2.7765,2.7066,2.7704,2.7857,2.6892,2.7413,2.7827,2.721,2.6479,2.5844,2.564,2.4949,2.4427,2.4402,2.4402,2.4377,2.4282,2.3594,2.2911,2.2677,2.2384,2.2295,2.2577,2.2477,2.2265,2.2206,2.1854,2.1544,2.1269,2.0885,2.0676,2.0813,2.0216,1.9867,1.9925,1.9203,1.8247,1.737,1.6663,1.5577,1.3877,1.2484,1.0861,-0.1853,0.0,0.0,0.0,0.0,-0.0301,-0.0222,0.0434,0.0,0.0,0.0,0.7241,0.7986,0.8107,0.9799,1.1368,1.2598,1.3059,1.3174,1.3074,1.2831,1.3037,1.3523,1.3195,1.3159,1.3418,1.3844,1.3876,1.356,1.3989,1.447,1.4882,1.3815,1.3365,1.3537,1.2493,1.0694,0.8374,0.7591,0.7313,0.7421,0.7253,0.7016,0.6579,0.6584,0.6488,0.6469,0.7294,0.8521,1.0147,1.09,1.1781,1.2923,1.4215,1.487,1.4951,1.6037,1.7436,1.9055,2.0083,2.1527,2.346,2.4912,2.5924,2.6471,2.7422,2.7974,2.7885,2.7931,2.801,2.7933,2.7921,2.7729,2.7271,2.785,2.7815,2.6966,2.7358,2.7605,2.7116,2.6873,2.6813,2.6734,2.6693,2.6798,2.6648,2.6394,2.6674,2.6239,2.4381,2.3152,2.3211,2.3155,2.2706,2.2838,2.2807,2.2506,2.269,2.2515,2.2226,2.201,2.1888,2.1777,2.1308,2.1565,2.1308,2.1252,2.0632,2.0171,1.8866,1.8103,1.7254,1.5653,1.3578,1.1383,-0.1763,0.0,0.0,0.0,-0.0073,-0.1684,-0.1006,0.1189,0.2463,0.3519,0.4549,0.6171,0.7302,0.8103,0.9831,1.1098,1.2003,1.3325,1.3798,0.0,1.3746,1.3758,1.3536,1.3459,1.3268,1.3047,1.3573,1.3793,1.3836,1.4327,1.4678,1.4735,1.4526,1.3936,1.2988,1.2753,1.1895,1.0415,0.9976,0.9376,0.8598,0.7943,0.7735,0.792,0.7943,0.8034,0.824,0.8909,0.991,1.1063,1.1212,1.1781,1.2931,1.4224,1.487,1.4951,1.6027,1.7252,1.8541,1.9514,2.1419,2.4532,2.5462,2.6065,2.6488,2.7237,2.7443,2.7027,2.7493,2.7669,2.7195,2.712,2.7093,2.702,2.7115,2.7127,2.6955,2.7074,2.7183,2.7031,2.6593,2.6357,2.6307,2.6383,2.626,2.5602,2.6088,2.5958,2.5289,2.5245,2.5773,2.6076,2.5472,2.5365,2.5428,2.5432,2.4718,2.4771,2.4125,2.3443,2.2439,2.2143,2.1761,2.057,2.0665,2.0271,1.9787,1.9277,1.931,1.9015,1.8341,1.7417,1.6462,1.52,1.3663,-0.2758,-0.1381,-0.0436,-0.0576,-0.1563,-0.2381,-0.1725,0.0,0.1361,0.3063,0.4974,0.6688,0.7095,0.6827,0.9395,1.0847,1.1363,1.3262,1.4234,1.4375,1.4323,1.4368,1.4461,1.4268,1.4047,1.3884,1.4154,1.4294,1.4329,1.456,1.4869,1.5152,1.5186,1.471,1.3802,1.3776,1.3338,1.2406,1.1166,1.0415,1.0189,0.9855,0.9398,0.8858,0.9451,0.9187,0.8083,0.9363,1.0356,1.084,1.1289,1.1973,1.294,1.4215,1.487,1.4951,1.6445,1.7771,1.8765,2.037,2.2084,2.3995,2.4388,2.465,2.48,2.6356,2.7144,2.6862,2.6856,2.6749,2.6448,2.6133,2.5919,2.5911,2.6564,2.686,2.6622,2.721,2.7488,2.7205,2.724,2.715,2.6713,2.7083,2.7055,2.6348,2.6516,2.6426,2.5879,2.6281,2.6287,2.5284,2.4627,2.4678,2.5378,2.5511,2.5222,2.5075,2.5142,2.4747,2.382,2.3327,2.2948,2.2694,2.222,2.1869,2.1655,2.1288,2.0809,2.0165,1.9574,1.8755,1.7874,1.6592,1.4667,-0.3706,-0.2848,-0.1279,-0.1894,-0.3783,-0.3236,-0.2473,-0.1468,0.0265,0.251,0.5101,0.6854,0.7076,0.6479,0.8777,1.0286,1.1327,1.3267,1.4495,1.4883,1.4613,1.4731,1.5129,1.4947,1.4858,1.4903,1.5118,1.5318,1.536,1.5301,1.5548,1.6051,1.6351,1.6036,1.524,1.5365,1.5037,1.4255,1.2705,1.1813,1.161,1.1627,1.1145,1.036,1.0952,1.0514,0.8992,1.0356,1.12,1.1327,1.1974,1.2602,1.3235,1.4362,1.5022,1.5172,1.6729,1.8175,1.9229,2.1239,2.2773,2.3565,2.3741,2.3977,2.4369,2.5934,2.6863,2.651,2.6217,2.6143,2.6113,2.568,2.537,2.5529,2.644,2.6894,2.6499,2.7265,2.7731,2.7344,2.7758,2.7891,2.7591,2.7989,2.8217,2.7725,2.7401,2.7153,2.7169,2.7089,2.6056,2.485,2.4172,2.4601,2.4838,2.5412,2.5637,2.5379,2.5863,2.5788,2.5213,2.479,2.4508,2.4471,2.397,2.3475,2.3794,2.3138,2.2242,2.1498,2.0779,1.9981,1.8897,1.7082,1.4964,-0.4041,-0.3754,-0.2948,-0.4403,-0.7143,-0.4923,-0.3451,-0.2375,-0.0647,0.1539,0.3993,0.5639,0.7171,0.8228,0.7824,0.9223,1.202,1.3866,1.4616,1.456,1.4613,1.4719,1.4949,1.5285,1.5416,1.5624,1.6486,1.7127,1.7409,1.7085,1.7123,1.7658,1.855,1.8487,1.7589,1.7487,1.7022,1.607,1.5413,1.4244,1.2676,1.258,1.2626,1.2763,1.2296,1.2358,1.2503,1.3041,1.3389,1.3764,1.3782,1.3918,1.4114,1.4808,1.5245,1.5381,1.6772,1.8185,1.9651,2.1491,2.3083,2.4189,2.4769,2.5514,2.6561,2.6973,2.6443,2.5419,2.5792,2.6321,2.6367,2.626,2.6304,2.6694,2.702,2.7153,2.7147,2.719,2.7248,2.7201,2.7631,2.7679,2.7657,2.8317,2.8905,2.8583,2.7769,2.7212,2.7178,2.6894,2.6623,2.6198,2.6412,2.6704,2.6767,2.6957,2.6802,2.6581,2.6823,2.6695,2.617,2.5862,2.5778,2.5201,2.4446,2.4212,2.3754,2.2922,2.2665,2.247,2.1636,2.0436,1.8928,1.72,1.498,-0.7362,-0.7654,-0.6407,-0.7807,-1.0327,-0.7658,-0.6059,-0.5434,-0.2158,0.0715,0.3275,0.5763,0.7274,0.787,0.872,1.0833,1.3603,1.4376,1.5015,1.5566,1.5691,1.6213,1.7126,1.7357,1.7557,1.7818,1.8285,1.8587,1.8738,1.8758,1.8831,1.896,1.9634,1.9395,1.8374,1.8802,1.8332,1.69,1.7078,1.6567,1.5385,1.4381,1.3693,1.3424,1.3762,1.37,1.3355,1.3888,1.4346,1.4502,1.4521,1.4859,1.5639,1.6001,1.6348,1.6714,1.8001,1.9634,2.1349,2.253,2.3496,2.4326,2.491,2.5472,2.5967,2.6504,2.633,2.5573,2.5916,2.6272,2.6283,2.6118,2.6264,2.6718,2.6978,2.7244,2.759,2.759,2.7624,2.7658,2.81,2.825,2.7907,2.8115,2.8386,2.8346,2.7842,2.7619,2.7561,2.7467,2.7448,2.7472,2.777,2.7693,2.735,2.7542,2.7621,2.7571,2.7895,2.7946,2.7244,2.6791,2.6571,2.6337,2.5841,2.5527,2.5719,2.4916,2.4382,2.381,2.2702,2.1492,2.0496,1.9047,1.7246,-1.1109,-1.1646,-1.0863,-1.2169,-1.4459,-1.1387,-0.9801,-0.8839,-0.4788,-0.1133,0.2244,0.5918,0.7762,0.8143,0.985,1.2277,1.5012,1.574,1.6175,1.668,1.7086,1.7963,1.906,1.934,1.9606,1.9836,2.002,2.0009,1.9903,2.0333,2.0348,2.0097,2.0423,2.014,1.9303,1.978,1.9337,1.8114,1.8484,1.8342,1.7496,1.6467,1.5463,1.4703,1.5396,1.5417,1.4526,1.5341,1.5928,1.6063,1.5947,1.6311,1.7229,1.7494,1.7981,1.8931,2.0091,2.1424,2.3025,2.3661,2.4287,2.4909,2.5347,2.568,2.5988,2.6522,2.6703,2.6489,2.6597,2.6753,2.6421,2.6253,2.6387,2.6833,2.7204,2.756,2.7911,2.8031,2.8103,2.8148,2.8586,2.89,2.8518,2.846,2.8547,2.8529,2.8467,2.8399,2.8406,2.853,2.8594,2.8617,2.8809,2.853,2.7753,2.7924,2.822,2.8353,2.8622,2.8629,2.8281,2.7842,2.7547,2.7441,2.7073,2.6895,2.6878,2.6533,2.5857,2.5003,2.4002,2.292,2.2203,2.1057,1.9875,-1.481,-1.5589,-1.6375,-1.753,-1.8982,-1.632,-1.452,-1.2865,-0.8645,-0.4161,0.1004,0.6081,0.8862,1.0052,1.1012,1.2972,1.6379,1.8283,1.8396,1.7555,1.8939,1.9746,1.9893,2.062,2.1029,2.1143,2.1535,2.1478,2.1002,2.1685,2.1562,2.065,2.1051,2.1002,2.0497,2.042,2.0148,1.9573,1.9707,1.9388,1.8585,1.8699,1.8206,1.7169,1.7206,1.7385,1.7694,1.818,1.8627,1.9068,1.8603,1.8533,1.8682,1.9243,2.0368,2.1956,2.2878,2.3516,2.4112,2.4776,2.548,2.6234,2.6404,2.6817,2.7442,2.7723,2.7763,2.7787,2.794,2.7822,2.7304,2.7174,2.7308,2.7763,2.804,2.8196,2.8222,2.85,2.8567,2.8631,2.8916,2.92,2.9495,2.9624,2.9495,2.9495,2.9569,2.9513,2.9457,2.955,2.9567,2.9564,2.959,2.9479,2.8753,2.8668,2.878,2.8892,2.8929,2.8813,2.8842,2.8809,2.8662,2.853,2.827,2.8098,2.8021,2.7522,2.6705,2.5967,2.5337,2.449,2.4061,2.2484,2.1463,-1.8002,-1.6888,-1.9277,-2.1388,-2.2542,-1.8017,-1.5988,-1.5535,-0.9816,-0.3745,0.2476,0.8498,1.2263,1.4192,1.5846,1.7426,1.9022,2.0064,2.0242,1.9956,2.0763,2.1482,2.2065,2.241,2.2642,2.2905,2.3038,2.2736,2.2147,2.2578,2.2361,2.1641,2.1806,2.1588,2.0952,2.1154,2.0754,1.968,2.0389,2.0335,1.92,1.9629,1.9737,1.9245,1.8575,1.8553,1.9201,1.9178,1.9301,1.9694,1.9537,1.9628,2.004,2.1038,2.2197,2.3459,2.4327,2.4868,2.5276,2.5942,2.6521,2.6845,2.7332,2.7695,2.8058,2.8439,2.8659,2.8705,2.8981,2.8987,2.882,2.8539,2.845,2.864,2.8944,2.913,2.9187,2.9267,2.9306,2.9326,2.9401,2.9548,2.9709,2.9756,2.9783,2.9827,2.9836,2.9836,2.9863,2.9966,3.0074,3.0121,3.02,3.0231,3.0021,2.9608,2.949,2.954,2.9525,2.9528,2.9525,2.9528,2.9409,2.9358,2.9225,2.9101,2.8931,2.853,2.7727,2.7353,2.6705,2.62,2.6,2.4477,2.3767,-2.1267,-2.0571,-2.0996,-2.2248,-2.3197,-1.8803,-1.7012,-1.6783,-1.1042,-0.4998,0.1128,0.7621,1.2659,1.6435,1.9152,2.0401,2.0735,2.1709,2.2067,2.1729,2.2293,2.294,2.3525,2.3658,2.3865,2.4145,2.4152,2.3709,2.2956,2.2939,2.2506,2.1739,2.1736,2.1385,2.0853,2.1355,2.1034,2.0337,2.1435,2.155,2.0485,2.102,2.1311,2.0982,2.043,2.033,2.0794,2.0429,2.0426,2.0784,2.0782,2.1142,2.2005,2.3038,2.4139,2.5134,2.5675,2.6118,2.6471,2.7037,2.7432,2.7639,2.8092,2.8464,2.8659,2.907,2.9251,2.94,2.9647,2.9851,2.9836,2.9677,2.9529,2.9432,2.9658,2.987,2.9884,2.9942,2.9983,2.9997,2.9991,3.0011,3.0067,3.0071,3.0109,3.0134,3.0144,3.0124,3.0173,3.0266,3.0393,3.0401,3.0503,3.0555,3.0419,3.0173,3.0046,3.0066,3.0028,3.0076,3.0075,3.0085,3.0105,3.0105,3.0055,2.9967,2.9732,2.9377,2.906,2.871,2.8215,2.7638,2.7174,2.6524,2.5799,-2.414,-2.568,-2.166,-1.9896,-2.0174,-1.8402,-1.7675,-1.6341,-1.2501,-0.7499,-0.1551,0.3492,1.053,1.617,1.9597,2.0969,2.0919,2.2632,2.311,2.2211,2.3209,2.3864,2.4127,2.4238,2.4436,2.4705,2.4764,2.4307,2.3446,2.2926,2.2242,2.1343,2.0816,2.0625,2.0352,2.0972,2.1261,2.1375,2.2427,2.2786,2.2441,2.2692,2.2656,2.2215,2.245,2.2612,2.2604,2.2146,2.2171,2.2698,2.2587,2.3224,2.437,2.518,2.6096,2.6911,2.7163,2.7414,2.7798,2.7911,2.8278,2.8649,2.8823,2.9107,2.9511,2.9687,2.9747,2.9851,3.0037,3.0216,3.0288,3.0393,3.0296,2.9934,3.0106,3.026,3.0315,3.0482,3.0594,3.0549,3.0508,3.0594,3.06,3.0516,3.0508,3.0511,3.0516,3.0502,3.0487,3.0535,3.0569,3.058,3.0612,3.062,3.0625,3.0621,3.0595,3.0556,3.0501,3.0472,3.0427,3.0408,3.0396,3.0388,3.0286,3.0199,3.0133,2.9826,2.9732,2.9431,2.9139,2.886,2.8375,2.781,2.7447,-2.3035,-2.3967,-2.0342,-1.6684,-1.4111,-1.4588,-1.5045,-1.485,-1.1991,-0.5429,0.2838,0.6385,1.1687,1.7255,1.8889,1.8388,1.7956,1.9517,2.0877,2.1998,2.2784,2.3285,2.3608,2.3823,2.4238,2.474,2.4807,2.4365,2.3634,2.3363,2.2893,2.2047,2.1274,2.0933,2.0836,2.0618,2.0633,2.1244,2.1672,2.1759,2.1561,2.1779,2.1776,2.1533,2.1679,2.2226,2.3368,2.3377,2.355,2.3952,2.3911,2.4302,2.5208,2.6041,2.6707,2.7331,2.836,2.8798,2.8732,2.8981,2.919,2.947,2.9637,2.9846,3.009,3.0209,3.0318,3.0344,3.0444,3.0482,3.0516,3.0599,3.055,3.0377,3.0455,3.0497,3.049,3.0561,3.06,3.0606,3.0606,3.0604,3.0604,3.0614,3.0603,3.0601,3.0616,3.0614,3.0613,3.0619,3.0609,3.0606,3.0629,3.0621,3.0599,3.0603,3.0593,3.058,3.0584,3.0605,3.0605,3.0605,3.0603,3.0585,3.0486,3.0411,3.0346,3.0263,3.0128,3.0036,2.9743,2.9555,2.9444,2.9082,2.8562,-1.9541,-1.9167,-1.6892,-1.3099,-0.9025,-1.0923,-1.2086,-1.2057,-1.0355,-0.5251,0.0947,0.3821,0.8311,1.3505,1.4755,1.4917,1.4832,1.6219,1.7939,1.9928,2.1697,2.2453,2.2955,2.3159,2.3469,2.3883,2.4114,2.3769,2.3027,2.3126,2.2817,2.1985,2.1475,2.1053,2.0925,2.0925,2.1126,2.1315,2.162,2.1753,2.1711,2.1479,2.1308,2.1292,2.155,2.2275,2.3321,2.3866,2.4333,2.4683,2.4983,2.5457,2.5959,2.6689,2.7352,2.7994,2.8704,2.927,2.9368,2.9589,2.9827,2.9956,3.013,3.0279,3.0393,3.0522,3.057,3.0595,3.0576,3.0567,3.0598,3.0644,3.0644,3.0619,3.0609,3.0628,3.0613,3.0618,3.0619,3.0602,3.0601,3.0605,3.0618,3.0606,3.0612,3.0603,3.0606,3.0606,3.0606,3.0617,3.06,3.06,3.0608,3.0603,3.0555,3.0554,3.0559,3.0555,3.0567,3.0589,3.0611,3.0611,3.0607,3.0595,3.0518,3.0526,3.0468,3.0404,3.0284,3.0263,3.0198,3.0085,2.991,2.9789,2.9385,-1.4515,-1.281,-1.1835,-0.9291,-0.6117,-0.8095,-0.9052,-0.8834,-0.7828,-0.7014,-0.5926,-0.2281,0.1556,0.5665,0.933,1.1014,1.2035,1.3667,1.5039,1.661,1.8917,2.0888,2.1767,2.2259,2.2525,2.2569,2.3035,2.2775,2.2151,2.2372,2.2081,2.1534,2.1298,2.0953,2.0625,2.1644,2.168,2.1388,2.2006,2.2299,2.2318,2.1834,2.1412,2.1308,2.2076,2.2588,2.2787,2.3724,2.4548,2.5019,2.5681,2.6119,2.6594,2.7239,2.7884,2.8595,2.8675,2.9187,2.9659,2.9902,3.0016,3.0197,3.027,3.0385,3.0535,3.0545,3.0543,3.0586,3.0558,3.0531,3.0589,3.0584,3.0564,3.0586,3.0618,3.0629,3.0608,3.0608,3.0618,3.0604,3.0611,3.0606,3.0598,3.0586,3.0594,3.0594,3.0581,3.0554,3.0513,3.0471,3.0535,3.0494,3.0382,3.0337,3.0224,3.0243,3.0221,3.0221,3.0306,3.0394,3.0517,3.054,3.0568,3.0555,3.0555,3.0574,3.0545,3.0446,3.0411,3.0388,3.0364,3.0392,3.0322,3.0169,3.0062,-1.1603,-1.1001,-0.893,-0.7021,-0.5549,-0.6221,-0.6453,-0.6379,-0.6108,-0.5986,-0.5325,-0.3418,-0.024,0.348,0.5827,0.7995,1.0072,1.1548,1.2878,1.4084,1.5364,1.7451,1.9485,2.1148,2.1691,2.1576,2.2265,2.2581,2.1953,2.1892,2.1865,2.1737,2.1066,2.0756,2.0653,2.0429,2.0549,2.0794,2.0818,2.1027,2.122,2.11,2.0862,2.0648,2.1604,2.2211,2.2424,2.3418,2.4289,2.4883,2.5274,2.5496,2.5634,2.6464,2.7357,2.8106,2.8723,2.9341,3.0018,3.0228,3.0302,3.039,3.0371,3.0486,3.0582,3.057,3.0572,3.0618,3.058,3.0559,3.0549,3.0455,3.0372,3.0356,3.0455,3.0592,3.06,3.0606,3.0606,3.0606,3.0594,3.0561,3.051,3.0496,3.047,3.0443,3.0413,3.0353,3.0252,3.0198,3.019,3.0002,2.9893,2.9912,2.9882,2.9886,2.987,2.9874,2.995,3.0079,3.0251,3.0402,3.0453,3.0516,3.0481,3.0481,3.0466,3.0372,3.0419,3.0411,3.0442,3.0439,3.0507,3.044,3.0404,-0.9804,-0.9368,-0.7461,-0.6171,-0.5432,-0.5411,-0.5428,-0.5411,-0.5287,-0.5291,-0.4954,-0.4127,-0.1432,0.2332,0.4501,0.6445,0.8368,0.9284,1.025,1.1344,1.2422,1.4616,1.7187,1.9251,1.9842,1.9905,2.096,2.1082,2.0703,2.075,2.0827,2.0698,2.0394,2.0102,1.9955,1.972,1.9741,2.0193,1.9976,1.992,2.0322,2.0092,2.006,2.008,2.0822,2.1319,2.1927,2.2529,2.3309,2.4222,2.4683,2.4841,2.4896,2.5874,2.6845,2.7643,2.8442,2.9265,2.9964,3.0194,3.0197,3.0198,3.0217,3.0256,3.028,3.0277,3.0279,3.0231,3.0249,3.0237,3.0197,3.011,3.0043,3.0002,3.0124,3.0317,3.0488,3.0496,3.0524,3.0496,3.0414,3.0327,3.0282,3.0225,3.0177,3.0122,3.008,3.0018,2.992,2.9877,2.981,2.9695,2.9643,2.9712,2.9727,2.9729,2.9693,2.9678,2.9661,2.9782,2.9946,3.0142,3.0196,3.0251,3.0328,3.0359,3.0248,3.0205,3.0239,3.0269,3.0373,3.0416,3.0448,3.0511,3.0527,-0.8624,-0.7637,-0.6854,-0.6113,-0.5446,-0.5415,-0.5432,-0.5338,-0.5247,-0.5257,-0.5236,-0.5064,-0.2596,0.1473,0.3974,0.5857,0.6677,0.7458,0.8016,0.8999,1.0222,1.2343,1.5142,1.6888,1.7465,1.7759,1.8767,1.9009,1.8812,1.8921,1.9104,1.9167,1.9117,1.9121,1.911,1.9146,1.9398,1.9525,1.9338,1.9367,1.9638,1.942,1.951,2.0051,2.0249,2.0749,2.1266,2.1611,2.2173,2.3539,2.4036,2.4343,2.4582,2.5628,2.6622,2.7484,2.8272,2.895,2.9584,2.9832,2.9832,2.9784,2.9826,2.9889,2.9915,2.9882,2.9851,2.9865,2.9737,2.9775,2.9727,2.9677,2.9695,2.9695,2.9695,2.9896,3.0202,3.033,3.033,3.033,3.0089,2.9999,2.9924,2.9829,2.9712,2.9912,2.9867,2.9799,2.9731,2.9678,2.9625,2.9514,2.9514,2.9589,2.9588,2.9588,2.9551,2.9514,2.9494,2.9551,2.9588,2.9729,2.9813,2.9877,3.0022,3.0022,2.9939,2.9927,3.007,3.0021,3.0036,3.0133,3.0211,3.0354,3.0423,-0.7353,-0.5966,-0.5767,-0.5568,-0.5442,-0.5386,-0.5386,-0.5316,-0.5282,-0.519,-0.5335,-0.5315,-0.3901,-0.1387,0.3171,0.5536,0.5862,0.6534,0.7302,0.8116,0.837,0.9746,1.2084,1.4296,1.5612,1.5972,1.7112,1.7427,1.7066,1.7018,1.7223,1.7598,1.7664,1.7901,1.8218,1.818,1.8412,1.8521,1.8672,1.8852,1.9113,1.9254,1.9526,2.0152,2.0465,2.0767,2.1006,2.1086,2.1533,2.2358,2.3146,2.3943,2.4838,2.5635,2.6616,2.7721,2.8228,2.8676,2.9156,2.9454,2.9578,2.927,2.9454,2.9753,2.9734,2.9668,2.9689,2.9708,2.9693,2.9588,2.9474,2.9455,2.9455,2.9455,2.9474,2.957,2.9801,2.9864,2.988,2.9864,2.9832,2.9763,2.9782,2.9731,2.9661,2.9696,2.9643,2.9588,2.9533,2.9455,2.9395,2.9295,2.9172,2.9175,2.9193,2.9214,2.9235,2.9295,2.9314,2.9516,2.9561,2.9567,2.9739,2.9774,2.9765,2.9769,2.9941,2.9979,3.0175,2.9952,2.9803,2.9996,3.0182,3.0254,3.0404,-0.6762,-0.5369,-0.4489,-0.3613,-0.3078,-0.3756,-0.4097,-0.4097,-0.4167,-0.4097,-0.4372,-0.4928,-0.4378,-0.2275,0.2746,0.5386,0.5498,0.5826,0.628,0.6698,0.6828,0.7516,0.8754,1.0929,1.2543,1.3967,1.5526,1.5822,1.5602,1.5511,1.562,1.5738,1.596,1.6316,1.6709,1.6693,1.6793,1.7221,1.7545,1.7909,1.8439,1.8953,1.9257,1.9631,1.9922,1.9989,1.9967,2.0354,2.0885,2.1682,2.2564,2.3552,2.4643,2.5505,2.6512,2.7361,2.8029,2.8223,2.8552,2.8709,2.8732,2.856,2.8755,2.8819,2.8905,2.8972,2.9077,2.9138,2.9217,2.9314,2.9225,2.9222,2.9203,2.9203,2.9222,2.927,2.9357,2.9551,2.9696,2.9678,2.9644,2.957,2.9551,2.9494,2.9397,2.9316,2.9295,2.9251,2.9251,2.9203,2.916,2.9052,2.8827,2.8737,2.8755,2.8779,2.8874,2.8984,2.9115,2.9484,2.9783,2.9783,2.98,2.9846,2.9926,3.0152,3.0302,3.032,3.0357,3.0282,3.0246,3.0189,3.0145,3.0202,3.0419,-0.628,-0.5292,-0.3742,-0.1934,-0.04,-0.1672,-0.228,-0.2278,-0.2277,-0.228,-0.248,-0.3974,-0.323,-0.1473,0.2146,0.4448,0.4982,0.5386,0.5572,0.5203,0.5578,0.6234,0.7168,0.8237,0.9721,1.2423,1.3521,1.3856,1.3988,1.4137,1.4025,1.3989,1.4253,1.4914,1.5173,1.5073,1.5229,1.5806,1.6219,1.6616,1.7384,1.7978,1.8349,1.8805,1.9211,1.9321,1.9459,1.9774,2.0356,2.1245,2.2164,2.3096,2.4083,2.5122,2.6155,2.6715,2.7447,2.7741,2.7903,2.7946,2.7974,2.7823,2.7936,2.7936,2.8029,2.8228,2.8384,2.8478,2.8597,2.8779,2.8815,2.8773,2.8791,2.8815,2.8815,2.8834,2.891,2.9217,2.9302,2.9533,2.9415,2.9332,2.927,2.9206,2.9071,2.8975,2.8947,2.8923,2.8905,2.8839,2.8749,2.8676,2.8438,2.8342,2.836,2.836,2.8438,2.863,2.8804,2.9345,2.9813,2.9933,2.9942,3.0097,3.0231,3.0519,3.0785,3.095,3.0928,3.0779,3.0559,3.0379,3.0256,3.0169,3.0434,-0.5564,-0.5376,-0.5113,-0.3082,0.0,0.0,0.0,-0.0471,0.0,0.0,0.0,0.0,0.0,0.0,0.0,0.0,0.3218,0.45,0.497,0.4486,0.4976,0.5858,0.6477,0.681,0.7795,0.8924,1.0448,1.1459,1.2026,1.191,1.2484,1.2949,1.3132,1.3658,1.4395,1.4663,1.4287,1.4485,1.4987,1.5595,1.6075,1.6662,1.7291,1.8033,1.8766,1.9225,1.9415,1.9688,2.0154,2.0859,2.1542,2.2456,2.3434,2.4563,2.5642,2.6595,2.6978,2.7103,2.7251,2.7572,2.7601,2.756,2.7542,2.7747,2.7823,2.7908,2.7918,2.8047,2.8075,2.812,2.8093,2.8201,2.812,2.812,2.8147,2.8174,2.8201,2.8324,2.8591,2.8952,2.9007,2.9021,2.8892,2.8845,2.8773,2.8651,2.8601,2.8558,2.8515,2.836,2.8174,2.812,2.8037,2.7982,2.7982,2.7964,2.8037,2.8263,2.856,2.9152,2.9601,2.9922,3.0098,3.0622,3.0888,3.1078,3.1305,3.1556,3.1458,3.1311,3.0943,3.0538,3.0557,3.0581,3.055,-0.5432,-0.5372,-0.5389,-0.3284,0.0,0.0,0.0,0.0,0.0,0.0,0.0,0.0,0.0,0.0,0.0,0.0,0.1741,0.4236,0.4913,0.477,0.5173,0.5572,0.602,0.6083,0.6465,0.7154,0.8097,0.9472,1.0875,1.1052,1.1345,1.1868,1.2183,1.2547,1.3001,1.3039,1.3246,1.3336,1.3912,1.4674,1.5532,1.6264,1.7094,1.7384,1.786,1.819,1.8275,1.8659,1.9009,1.9723,2.0563,2.1537,2.2468,2.3409,2.4537,2.5771,2.6132,2.6165,2.6232,2.6404,2.6336,2.625,2.6438,2.6673,2.6886,2.7029,2.7339,2.7718,2.7897,2.7897,2.7926,2.7851,2.7897,2.7897,2.7869,2.7869,2.7869,2.7869,2.8093,2.836,2.836,2.836,2.8386,2.836,2.8404,2.8352,2.8255,2.8183,2.8112,2.7936,2.7707,2.7725,2.7695,2.7589,2.7589,2.7589,2.7619,2.7848,2.8241,2.8835,2.9532,2.9929,3.0831,3.1655,3.1802,3.1444,3.1991,3.2271,3.2046,3.1792,3.1483,3.1202,3.1074,3.1011,3.0888,-0.5428,-0.5428,-0.5382,-0.3754,-0.1202,0.0,0.0,0.0,0.0,0.0,0.0,0.0,0.0,0.0,0.0,0.0,0.0,0.3161,0.4241,0.5189,0.4846,0.4909,0.5382,0.5435,0.5716,0.6161,0.6427,0.7624,0.9232,1.0007,1.0537,1.0954,1.1296,1.1615,1.1837,1.2037,1.2172,1.2324,1.2941,1.3878,1.5224,1.6311,1.6829,1.6591,1.6644,1.6911,1.7281,1.7676,1.8076,1.869,1.9509,2.0486,2.1172,2.1918,2.301,2.4384,2.4839,2.5067,2.5243,2.5319,2.5454,2.547,2.5297,2.5486,2.5746,2.6164,2.6505,2.7186,2.7435,2.7391,2.733,2.7542,2.7589,2.7589,2.7589,2.7636,2.7577,2.7547,2.7517,2.7648,2.7648,2.7783,2.7915,2.8065,2.8147,2.8065,2.7964,2.7794,2.7736,2.756,2.7426,2.7426,2.7365,2.7241,2.7178,2.7178,2.7241,2.7369,2.7882,2.8499,2.9309,3.0059,3.1062,3.1868,3.1652,3.1452,3.224,3.2752,3.2415,3.2116,3.1972,3.1853,3.1678,3.1314,3.0987,-0.5428,-0.5428,-0.5376,-0.5109,-0.4223,-0.1473,0.0,0.0,0.0,0.0,0.0,0.0,0.0,0.0,0.0,0.0,0.0,0.0,0.0,0.4239,0.3964,0.4095,0.504,0.5389,0.5166,0.5439,0.5543,0.601,0.7343,0.8514,0.9292,0.9798,1.048,1.1035,1.1306,1.1443,1.1455,1.1308,1.202,1.2847,1.3517,1.4313,1.4946,1.5434,1.5982,1.6475,1.6818,1.7082,1.7346,1.7598,1.833,1.9172,1.9877,2.0502,2.1547,2.2818,2.3876,2.4712,2.4934,2.4934,2.4894,2.4855,2.5012,2.5205,2.5303,2.5395,2.5587,2.5454,2.5983,2.6317,2.6454,2.664,2.6774,2.6824,2.6807,2.6807,2.6824,2.6756,2.6773,2.6773,2.6756,2.7241,2.7617,2.7771,2.7897,2.7765,2.7619,2.7409,2.7255,2.7034,2.7083,2.7132,2.7132,2.6971,2.6939,2.6939,2.6971,2.7036,2.7463,2.8097,2.9041,2.9919,3.0855,3.1429,3.1263,3.1401,3.1967,3.2338,3.2444,3.2317,3.1962,3.2072,3.232,3.1812,3.1102,-0.5428,-0.5428,-0.5372,-0.5376,-0.5173,-0.3623,-0.1809,0.0,0.0,0.0,0.0,0.0,0.0,0.0,0.0,0.0,0.0,0.0,0.0,0.0,0.3293,0.3491,0.2679,0.3351,0.3956,0.4706,0.5024,0.5526,0.6281,0.7098,0.8122,0.873,0.9518,0.9984,1.0548,1.0859,1.1181,1.1586,1.221,1.2685,1.2948,1.3527,1.404,1.404,1.474,1.509,1.5206,1.5515,1.5631,1.5918,1.668,1.7989,1.8936,1.9762,2.0726,2.1979,2.2577,2.3142,2.3649,2.3776,2.3846,2.3945,2.4127,2.4389,2.4697,2.4989,2.5144,2.5221,2.5411,2.554,2.5577,2.5709,2.5783,2.5855,2.6016,2.598,2.598,2.5855,2.5839,2.5855,2.601,2.6671,2.7114,2.708,2.7061,2.6925,2.6607,2.6301,2.6248,2.6282,2.6488,2.6791,2.6791,2.6758,2.6758,2.6758,2.6791,2.6858,2.6892,2.7657,2.8748,2.9691,3.0553,3.1153,3.124,3.1439,3.1787,3.1933,3.2074,3.1969,3.1847,3.1935,3.1969,3.1683,3.1232,-0.5428,-0.5428,-0.5372,-0.5372,-0.5376,-0.5386,-0.3892,-0.1539,0.0,0.0,0.0,0.0,0.0,0.0,0.0,0.0,0.0,0.0,0.0,0.0,0.2287,0.2824,0.2965,0.3303,0.4009,0.4131,0.5103,0.5497,0.5755,0.6304,0.7033,0.7702,0.8531,0.9151,0.9442,0.9983,1.0517,1.1327,1.1843,1.2081,1.2101,1.2704,1.2907,1.2992,1.3183,1.3425,1.3191,1.3606,1.3965,1.461,1.5313,1.6522,1.7816,1.8472,1.9352,2.0416,2.0895,2.1226,2.1857,2.2257,2.2392,2.2634,2.3054,2.3651,2.4142,2.4632,2.4792,2.4672,2.4934,2.4989,2.5028,2.5128,2.5335,2.5373,2.5335,2.5221,2.5246,2.5484,2.5754,2.6015,2.6176,2.6349,2.6584,2.6351,2.6216,2.6031,2.5681,2.5269,2.5335,2.5577,2.5961,2.6332,2.6453,2.6521,2.6691,2.6708,2.6708,2.6742,2.6776,2.7385,2.8588,2.9401,3.0116,3.0581,3.0988,3.1061,3.1167,3.1435,3.166,3.1591,3.1537,3.1456,3.1372,3.1213,3.1235,-0.5428,-0.5428,-0.5428,-0.5432,-0.5432,-0.5376,-0.5243,-0.4295,-0.1472,0.0,0.0,0.0,0.0,0.0,0.0,0.0,0.0,0.0,0.0,0.0,0.0471,0.2036,0.301,0.4232,0.5332,0.5464,0.5662,0.5603,0.5589,0.5681,0.6199,0.6789,0.7652,0.8495,0.9011,0.9332,1.004,1.0667,1.1045,1.1045,1.0989,1.1274,1.1469,1.1896,1.202,1.2266,1.2887,1.3,1.3304,1.3906,1.4442,1.5255,1.6588,1.7113,1.7947,1.8871,1.9221,1.9544,2.0041,2.1121,2.1744,2.1946,2.2377,2.2965,2.342,2.358,2.3709,2.3721,2.3888,2.4194,2.444,2.4816,2.4736,2.4736,2.4688,2.4934,2.5107,2.555,2.5821,2.6165,2.6338,2.6383,2.6397,2.6251,2.6233,2.6102,2.5433,2.5011,2.502,2.5221,2.554,2.5852,2.6049,2.6262,2.659,2.6624,2.6556,2.6774,2.6994,2.7685,2.8682,2.9336,2.9977,3.0199,3.0559,3.0559,3.0559,3.073,3.0931,3.1157,3.123,3.1252,3.1291,3.123,3.119,-0.5501,-0.5491,-0.547,-0.5435,-0.5372,-0.5376,-0.5386,-0.5196,-0.3904,-0.1949,0.0,0.0,0.0,0.0,0.0,0.0,0.0,0.0,0.0,0.0,0.0,0.0,0.0,0.0,0.3442,0.5396,0.5827,0.5846,0.5713,0.5679,0.58,0.6351,0.6905,0.7256,0.7832,0.8857,0.9753,1.0314,1.0568,1.0624,1.0681,1.1108,1.1288,1.1045,1.1648,1.1593,1.1663,1.2027,1.2389,1.287,1.3657,1.4718,1.5651,1.613,1.6901,1.7784,1.7938,1.8155,1.8679,2.0016,2.1245,2.1697,2.1946,2.2253,2.2575,2.2483,2.2469,2.25,2.2712,2.301,2.2863,2.3274,2.3578,2.3734,2.3994,2.4388,2.4894,2.5354,2.5772,2.6078,2.6118,2.6168,2.6184,2.623,2.6255,2.6209,2.5416,2.4848,2.4848,2.4831,2.5123,2.5406,2.5577,2.5967,2.6324,2.638,2.64,2.6768,2.7153,2.7831,2.8648,2.9509,3.0056,3.0137,3.0107,3.0123,3.0081,3.0038,3.0309,3.0838,3.1095,3.119,3.119,3.119,3.119,-0.5657,-0.5577,-0.547,-0.5373,-0.5309,-0.4827,-0.4906,-0.5403,-0.5343,-0.337,0.0,0.0,0.0,0.0,0.0,0.0,0.0,0.0,0.0,0.0,0.0,0.0,0.0,0.0,0.1764,0.4274,0.5908,0.6013,0.5957,0.5827,0.5823,0.5976,0.6233,0.6539,0.7315,0.8485,0.9788,1.018,1.0624,1.0621,1.0715,1.1045,1.1226,1.0744,1.1163,1.117,1.0989,1.1226,1.1593,1.2205,1.3053,1.4127,1.4944,1.5698,1.6348,1.68,1.7135,1.7257,1.7731,1.8679,2.0244,2.0752,2.1215,2.1429,2.1623,2.1835,2.2172,2.1838,2.1791,2.1697,2.1697,2.2303,2.2801,2.3024,2.3194,2.358,2.4477,2.5077,2.5589,2.598,2.6156,2.6612,2.6657,2.6751,2.6332,2.626,2.5651,2.5043,2.4689,2.4671,2.4725,2.4949,2.5144,2.5573,2.5999,2.6167,2.6395,2.7038,2.7398,2.7735,2.8493,2.9364,2.9658,2.9415,2.9406,2.9585,2.9585,2.954,3.0038,3.0699,3.0878,3.1055,3.119,3.119,3.119,-0.5738,-0.5679,-0.5425,-0.5335,-0.5202,-0.3547,-0.3761,-0.4751,-0.4824,-0.3123,0.0,0.0,0.0,0.0,0.0,0.0,0.0,0.0,0.0,0.0,0.0,0.0,0.0,0.0,0.0,0.0,0.324,0.5173,0.6259,0.5989,0.5854,0.5829,0.6058,0.6399,0.7199,0.8938,0.9724,0.9667,1.0441,1.0783,1.0593,1.0745,1.0816,1.0755,1.0887,1.0921,1.0839,1.0832,1.1206,1.1751,1.2545,1.3458,1.4294,1.5067,1.5547,1.578,1.6285,1.6492,1.6595,1.7302,1.8401,1.9684,2.0233,2.0668,2.1469,2.1924,2.1929,2.1272,2.1411,2.1506,2.1602,2.1752,2.2105,2.2428,2.2602,2.3405,2.4365,2.5037,2.5541,2.6355,2.7036,2.7535,2.7535,2.7335,2.6707,2.6276,2.5779,2.5302,2.4807,2.4549,2.4597,2.459,2.4813,2.5353,2.5791,2.6062,2.6454,2.7077,2.755,2.779,2.8233,2.9006,2.907,2.8701,2.8826,2.9134,2.9088,2.8996,2.9496,2.9978,3.0658,3.0918,3.1055,3.1151,3.1055,-0.5973,-0.5912,-0.431,-0.4454,-0.5473,-0.4827,-0.3613,-0.1983,-0.1702,0.0,0.0,0.0,0.0,0.0,0.0,0.0,0.0,0.0,0.0,0.0,0.0,0.0,0.0,0.0,0.0,0.0,0.201,0.4262,0.624,0.6129,0.6149,0.612,0.6129,0.6511,0.7212,0.8338,0.8911,0.914,1.0164,1.0953,1.0312,1.0689,1.0956,1.0862,1.1002,1.0936,1.0862,1.0848,1.1088,1.1382,1.2134,1.29,1.3695,1.4495,1.5139,1.5504,1.5998,1.5748,1.5806,1.6244,1.7124,1.8356,1.9308,1.9775,2.0385,2.0563,2.055,2.0575,2.0586,2.0573,2.0421,2.1279,2.1766,2.2065,2.2569,2.382,2.4776,2.5221,2.577,2.6742,2.7545,2.7503,2.7467,2.7093,2.6521,2.6568,2.6234,2.5565,2.5017,2.4672,2.4535,2.4407,2.4568,2.5102,2.5597,2.6076,2.6549,2.715,2.741,2.7527,2.8102,2.8665,2.8561,2.8271,2.8463,2.8638,2.8496,2.8448,2.8732,2.918,2.9761,3.0435,3.0838,3.0838,3.074,-0.6208,-0.6142,-0.4587,-0.471,-0.577,-0.553,-0.3354,0.0,0.0,0.0,0.0,0.0,0.0,0.0,0.0,0.0,0.0,0.0,0.0,0.0,0.0,0.0,0.0,0.0,0.0,0.0,0.1034,0.2875,0.5015,0.593,0.6234,0.6271,0.6257,0.6446,0.7048,0.7737,0.8259,0.8638,0.9645,1.0647,1.029,1.0448,1.0963,1.096,1.0986,1.0895,1.1055,1.1129,1.1096,1.1327,1.1847,1.2558,1.322,1.3861,1.4559,1.5022,1.5285,1.5333,1.5809,1.5537,1.666,1.8148,1.8437,1.8851,1.9462,1.9933,2.017,2.012,1.9825,1.9989,2.0338,2.1208,2.1393,2.1681,2.2458,2.3702,2.4623,2.5057,2.542,2.6457,2.6967,2.6974,2.7091,2.665,2.6187,2.6471,2.6681,2.5943,2.531,2.5103,2.4805,2.4717,2.4776,2.5363,2.5878,2.6245,2.6718,2.7268,2.7411,2.7472,2.7655,2.815,2.7966,2.786,2.8042,2.8076,2.7894,2.7944,2.8271,2.8448,2.867,2.9435,3.0393,3.0435,3.0208,-0.6281,-0.6213,-0.6213,-0.6054,-0.619,-0.5259,-0.3008,0.0,0.0,0.0,0.0,0.0,0.0,0.0,0.0,0.0,0.0,0.0,0.0,0.0,0.0,0.0,0.0,0.0,0.0,0.0,0.17,0.2835,0.3553,0.5427,0.6304,0.6302,0.6369,0.6391,0.6743,0.7102,0.7505,0.7957,0.917,0.9835,0.9686,0.9854,1.0307,1.0545,1.0533,1.0684,1.0974,1.1292,1.1235,1.1532,1.2037,1.2284,1.2633,1.3012,1.3477,1.3988,1.4467,1.5259,1.6004,1.5638,1.6207,1.7564,1.8189,1.8475,1.8873,1.94,1.9622,1.9787,1.9617,2.0275,2.0835,2.0951,2.1066,2.1524,2.2084,2.3145,2.4136,2.4655,2.4901,2.5384,2.5659,2.5867,2.6105,2.5897,2.5411,2.5936,2.6133,2.6084,2.5553,2.5815,2.5571,2.5314,2.545,2.5777,2.6201,2.654,2.7149,2.7712,2.7537,2.7569,2.7685,2.773,2.773,2.771,2.761,2.761,2.766,2.771,2.786,2.7993,2.8125,2.8717,2.9761,2.9629,2.9435,-0.5407,-0.4084,-0.3992,-0.487,-0.5752,-0.2937,-0.0921,0.0,0.0,0.0,0.0,0.0,0.0,0.0,0.0,0.0,0.0,0.0,0.0,0.0,0.0,0.0,0.0,0.0,0.0,0.0,0.1975,0.3374,0.4007,0.5563,0.6324,0.6291,0.6342,0.641,0.6482,0.6667,0.6809,0.7258,0.876,0.9089,0.9054,0.9246,0.9638,0.9701,1.0147,1.0347,1.0622,1.1384,1.1434,1.172,1.1893,1.2207,1.3081,1.3165,1.3355,1.3876,1.417,1.456,1.5405,1.5504,1.5873,1.6911,1.7615,1.8316,1.8661,1.8918,1.9103,1.9194,1.9275,1.9727,2.0076,2.0226,2.0589,2.1197,2.1715,2.2434,2.3412,2.3918,2.4182,2.4654,2.4937,2.5016,2.526,2.4651,2.4337,2.5016,2.5439,2.5452,2.5689,2.5862,2.5908,2.5639,2.5785,2.6061,2.65,2.6905,2.758,2.8075,2.7814,2.7643,2.7823,2.7793,2.7649,2.756,2.756,2.756,2.761,2.766,2.776,2.771,2.7795,2.8448,2.8904,2.881,2.8857,-0.5514,-0.4467,-0.4316,-0.5118,-0.5698,-0.3568,-0.1669,0.0,0.0,0.0,0.0,0.0,0.0,0.0,0.0,0.0,0.0,0.0,0.0,0.0,0.0,0.0,0.0,0.0,0.0,0.0,0.0,0.3046,0.4353,0.5517,0.6359,0.6474,0.6468,0.6383,0.6455,0.6507,0.6579,0.714,0.7856,0.8343,0.8506,0.8648,0.873,0.9125,0.9679,0.9707,1.0064,1.0925,1.1323,1.1494,1.1566,1.2179,1.2799,1.2707,1.3079,1.3461,1.3648,1.4277,1.5093,1.5325,1.5807,1.6476,1.7096,1.7675,1.8207,1.8569,1.8671,1.8795,1.8775,1.8884,1.9138,1.9437,2.008,2.073,2.126,2.1732,2.2433,2.305,2.3598,2.4137,2.4319,2.4308,2.4027,2.3365,2.3343,2.4157,2.4516,2.4456,2.4857,2.5408,2.5562,2.5502,2.5805,2.6184,2.6637,2.6965,2.7416,2.7713,2.7703,2.7637,2.7862,2.7787,2.7548,2.7509,2.756,2.756,2.7458,2.756,2.761,2.756,2.7575,2.8008,2.8286,2.8222,2.8304,-0.6294,-0.62,-0.6312,-0.6006,-0.6035,-0.5722,-0.3885,-0.0648,0.0,0.0,0.0,0.0,0.0,0.0,0.0,0.0,0.0,0.0,0.0,0.0,0.0,0.0,0.0,0.0,0.0,0.0,0.0,0.1999,0.4996,0.5854,0.5708,0.636,0.6421,0.6407,0.6534,0.6549,0.663,0.6933,0.7457,0.7906,0.7955,0.8129,0.8304,0.8779,0.8599,0.8327,0.921,0.9921,1.0609,1.0827,1.1174,1.1681,1.1952,1.2256,1.2699,1.292,1.3031,1.3746,1.4461,1.4849,1.5477,1.6102,1.66,1.7108,1.754,1.8053,1.8197,1.8233,1.8197,1.827,1.8468,1.8859,1.9435,1.9993,2.0467,2.0899,2.1393,2.1892,2.2262,2.2749,2.3027,2.3007,2.2911,2.2271,2.2261,2.3158,2.3513,2.3412,2.3807,2.4573,2.508,2.519,2.5368,2.5706,2.6256,2.6605,2.6945,2.7203,2.7314,2.7425,2.7539,2.7453,2.7386,2.7137,2.6916,2.7255,2.7372,2.7408,2.7509,2.756,2.759,2.7619,2.772,2.7851,2.7845,-0.6204,-0.6274,-0.6288,-0.5413,-0.4079,-0.4654,-0.4981,-0.4439,-0.128,0.0,0.0,0.0,0.0,0.0,0.0,0.0,0.0,0.0,0.0,0.0,0.0,0.0,0.0,0.0,0.0,0.0,0.0,0.0,0.2238,0.3376,0.4181,0.419,0.4968,0.5921,0.6306,0.642,0.6723,0.6837,0.7084,0.7301,0.7341,0.7231,0.7318,0.7531,0.7363,0.784,0.8562,0.9084,0.9502,0.9691,0.9782,1.0301,1.1009,1.1816,1.2331,1.2497,1.2514,1.2998,1.3633,1.4159,1.4701,1.5402,1.5875,1.6347,1.688,1.7395,1.7641,1.761,1.7698,1.7802,1.7883,1.8338,1.8736,1.9215,1.9617,2.0074,2.0462,2.0719,2.1037,2.1365,2.1628,2.1624,2.1591,2.1464,2.1533,2.1785,2.2159,2.2359,2.2665,2.3348,2.4399,2.4617,2.4587,2.4953,2.5618,2.6136,2.6408,2.6828,2.7053,2.7137,2.714,2.6784,2.6428,2.6269,2.6215,2.6549,2.693,2.7306,2.7408,2.7408,2.7488,2.7467,2.7778,2.8006,2.776,-0.6122,-0.6271,-0.627,-0.5614,-0.4719,-0.5055,-0.5836,-0.5916,-0.32,-0.113,0.0,0.0,0.0,0.0,0.0,0.0,0.0,0.0,0.0,0.0,0.0,0.0,0.0,0.0,0.0,0.0,0.0,0.0,0.0,0.0927,0.1918,0.0,0.0,0.4367,0.5098,0.6008,0.6599,0.6847,0.69,0.7014,0.7004,0.6943,0.6878,0.6936,0.7082,0.7404,0.7648,0.8208,0.8581,0.8966,0.9281,0.997,1.0513,1.0789,1.1168,1.1459,1.1668,1.1909,1.2498,1.3157,1.3818,1.4498,1.5225,1.5809,1.6044,1.6519,1.7244,1.7327,1.7777,1.7912,1.7724,1.7959,1.8245,1.8633,1.8787,1.9044,1.9562,1.9944,2.0398,2.0921,2.0921,2.0666,2.041,1.9823,2.0042,2.1019,2.1302,2.169,2.1939,2.2384,2.3446,2.4105,2.4105,2.4279,2.4851,2.537,2.5743,2.621,2.6637,2.646,2.6244,2.5827,2.5508,2.5508,2.5633,2.5837,2.6269,2.6587,2.6864,2.6878,2.7026,2.7225,2.7617,2.7995,2.7861,-0.6118,-0.6274,-0.6248,-0.6241,-0.6329,-0.6304,-0.6593,-0.6658,-0.5248,-0.3246,-0.1256,0.0,-0.0337,0.0,0.0,0.0,0.0,0.0,0.0,0.0,0.0,0.0,0.0,0.0,0.0,0.0,0.0,0.0,0.0,0.0,0.0,0.0,0.0,0.1104,0.0,0.4697,0.5583,0.6583,0.6981,0.7122,0.7085,0.7021,0.6953,0.6881,0.681,0.6729,0.6987,0.7341,0.7878,0.8265,0.8791,0.961,1.0044,1.0165,1.0532,1.0842,1.0767,1.0895,1.1303,1.2305,1.2952,1.365,1.4498,1.498,1.5201,1.5739,1.6474,1.6973,1.7425,1.7813,1.7628,1.7705,1.791,1.8095,1.8221,1.8279,1.8798,1.9218,1.9713,2.0292,2.0151,1.9823,1.9341,1.8684,1.9121,2.0085,2.0602,2.1049,2.1491,2.2125,2.2919,2.3458,2.3708,2.3943,2.4281,2.4691,2.5172,2.5574,2.5924,2.5645,2.5394,2.5118,2.5016,2.504,2.5197,2.5244,2.5398,2.5659,2.5892,2.6283,2.6351,2.6582,2.7296,2.7645,2.7741,-0.6118,-0.6261,-0.6295,-0.6288,-0.6305,-0.6539,-0.6627,-0.6675,-0.6572,-0.592,-0.4628,-0.3259,0.0,0.0,0.0,0.0,0.0,0.0,0.0,0.0,0.0,0.0,0.0,0.0,0.0,0.0,0.0,0.0,0.0,0.0,0.0,0.0,0.0,0.0,0.0,0.0,0.3276,0.4975,0.6584,0.6802,0.7071,0.7011,0.7031,0.6966,0.6902,0.6807,0.6809,0.684,0.6919,0.7248,0.7885,0.8944,0.9373,0.9567,0.9874,1.0172,1.0103,1.0253,1.0737,1.1415,1.2061,1.2799,1.3476,1.3833,1.4159,1.4574,1.5238,1.5826,1.6401,1.7398,1.7504,1.7823,1.8076,1.8086,1.8154,1.8115,1.8357,1.8614,1.896,1.9328,1.9489,1.911,1.87,1.8476,1.8677,1.9393,1.9669,2.0161,2.0985,2.1678,2.2396,2.2871,2.3305,2.3599,2.3961,2.4236,2.4678,2.4989,2.5301,2.5368,2.517,2.4654,2.4554,2.4753,2.4635,2.4571,2.4677,2.4832,2.5175,2.5508,2.5563,2.5881,2.6654,2.7198,2.7285]}]]